[[{"header":{"parameterUnit":"m.s-1","parameterCategory":1,"la1":30.6,"la2":28.766,"lo1":-90.7593,"lo2":-88.6598,"dx":0.0162,"dy":0.0183,"nx":116,"ny":114,"refTime":"2022-12-31T06:00:00:Z","depth":0,"parameterNumber":2,"parameterNumberName":"U-component_of_WINDS"},"data":[0.0,0.0,0.0,0.0,0.0,0.0,0.0,0.0,0.0,0.0,0.0,0.0,0.0,0.0,0.0,0.0,0.0,0.0,0.0,0.0,0.0,0.0,0.0,0.0,0.0,0.0,0.0,0.0,0.0,0.0,0.0,0.0,0.0,0.0,0.0,0.0,0.0,0.0,0.0,0.0,0.0,0.0,0.0,0.0,0.0,0.0,0.0,0.0,0.0,0.0,0.0,0.0,0.0,0.0,0.0,0.0,0.0,0.0,0.0,0.0,0.0,0.0,0.0,0.0,0.0,0.0,0.0,0.0,0.0,0.0,0.0,0.0,0.0,0.0,0.0,0.0,0.0,0.0,0.0,0.0,0.0,0.0,0.0,0.0,0.0,0.0,0.0,0.0,0.0,0.0,0.0,0.0,0.0,0.0,0.0,0.0,0.0,0.0,0.0,0.0,0.0,0.0,0.0,0.0,0.0,0.0,0.0,0.0,0.0,0.0,0.0,0.0,0.0,0.0,0.0,0.0,0.0,0.0,0.0,0.0,0.0,0.0,0.0,0.0,0.0,0.0,0.0,0.0,0.0,0.0,0.0,0.0,0.0,0.0,0.0,0.0,0.0,0.0,0.0,0.0,0.0,0.0,0.0,0.0,0.0,0.0,0.0,0.0,0.0,0.0,0.0,0.0,0.0,0.0,0.0,0.0,0.0,0.0,0.0,0.0,0.0,0.0,0.0,0.0,0.0,0.0,0.0,0.0,0.0,0.0,0.0,0.0,0.0,0.0,0.0,0.0,0.0,0.0,0.0,0.0,0.0,0.0,0.0,0.0,0.0,0.0,0.0,0.0,0.0,0.0,0.0,0.0,0.0,0.0,0.0,0.0,0.0,0.0,0.0,0.0,0.0,0.0,0.0,0.0,0.0,0.0,0.0,0.0,0.0,0.0,0.0,0.0,0.0,0.0,0.0,0.0,0.0,0.0,0.0,0.0,0.0,0.0,0.0,0.0,0.0,0.0,0.0,0.0,0.0,0.0,0.0,0.0,0.0,0.0,0.0,0.0,0.0,0.0,0.0,0.0,0.0,0.0,0.0,0.0,0.0,0.0,0.0,0.0,0.0,0.0,0.0,0.0,0.0,0.0,0.0,0.0,0.0,0.0,0.0,0.0,0.0,0.0,0.0,0.0,0.0,0.0,0.0,0.0,0.0,0.0,0.0,0.0,0.0,0.0,0.0,0.0,0.0,0.0,0.0,0.0,0.0,0.0,0.0,0.0,0.0,0.0,0.0,0.0,0.0,0.0,0.0,0.0,0.0,0.0,0.0,0.0,0.0,0.0,0.0,0.0,0.0,0.0,0.0,0.0,0.0,0.0,0.0,0.0,0.0,0.0,0.0,0.0,0.0,0.0,0.0,0.0,0.0,0.0,0.0,0.0,0.0,0.0,0.0,0.0,0.0,0.0,0.0,0.0,0.0,0.0,0.0,0.0,0.0,0.0,0.0,0.0,0.0,0.0,0.0,0.0,0.0,0.0,0.0,0.0,0.0,0.0,0.0,0.0,0.0,0.0,0.0,0.0,0.0,0.0,0.0,0.0,0.0,0.0,0.0,0.0,0.0,0.0,0.0,0.0,0.0,0.0,0.0,0.0,0.0,0.0,0.0,0.0,0.0,0.0,0.0,0.0,0.0,0.0,0.0,0.0,0.0,0.0,0.0,0.0,0.0,0.0,0.0,0.0,0.0,0.0,0.0,0.0,0.0,0.0,0.0,0.0,0.0,0.0,0.0,0.0,0.0,0.0,0.0,0.0,0.0,0.0,0.0,0.0,0.0,0.0,0.0,0.0,0.0,0.0,0.0,0.0,0.0,0.0,0.0,0.0,0.0,0.0,0.0,0.0,0.0,0.0,0.0,0.0,0.0,0.0,0.0,0.0,0.0,0.0,0.0,0.0,0.0,0.0,0.0,0.0,0.0,0.0,0.0,0.0,0.0,0.0,0.0,0.0,0.0,0.0,0.0,0.0,0.0,0.0,0.0,0.0,0.0,0.0,0.0,0.0,0.0,0.0,0.0,0.0,0.0,0.0,0.0,0.0,0.0,0.0,0.0,0.0,0.0,0.0,0.0,0.0,0.0,0.0,0.0,0.0,0.0,0.0,0.0,0.0,0.0,0.0,0.0,0.0,0.0,0.0,0.0,0.0,0.0,0.0,0.0,0.0,0.0,0.0,0.0,0.0,0.0,0.0,0.0,0.0,0.0,0.0,0.0,0.0,0.0,0.0,0.0,0.0,0.0,0.0,0.0,0.0,0.0,0.0,0.0,0.0,0.0,0.0,0.0,0.0,0.0,0.0,0.0,0.0,0.0,0.0,0.0,0.0,0.0,0.0,0.0,0.0,0.0,0.0,0.0,0.0,0.0,0.0,0.0,0.0,0.0,0.0,0.0,0.0,0.0,0.0,0.0,0.0,0.0,0.0,0.0,0.0,0.0,0.0,0.0,0.0,0.0,0.0,0.0,0.0,0.0,0.0,0.0,0.0,0.0,0.0,0.0,0.0,0.0,0.0,0.0,0.0,0.0,0.0,0.0,0.0,0.0,0.0,0.0,0.0,0.0,0.0,0.0,0.0,0.0,0.0,0.0,0.0,0.0,0.0,0.0,0.0,0.0,0.0,0.0,0.0,0.0,0.0,0.0,0.0,0.0,0.0,0.0,0.0,0.0,0.0,0.0,0.0,0.0,0.0,0.0,0.0,0.0,0.0,0.0,0.0,0.0,0.0,0.0,0.0,0.0,0.0,0.0,0.0,0.0,0.0,0.0,0.0,0.0,0.0,0.0,0.0,0.0,0.0,0.0,0.0,0.0,0.0,0.0,0.0,0.0,0.0,0.0,0.0,0.0,0.0,0.0,0.0,0.0,0.0,0.0,0.0,0.0,0.0,0.0,0.0,0.0,0.0,0.0,0.0,0.0,0.0,0.0,0.0,0.0,0.0,0.0,0.0,0.0,0.0,0.0,0.0,0.0,0.0,0.0,0.0,0.0,0.0,0.0,0.0,0.0,0.0,0.0,0.0,0.0,0.0,0.0,0.0,0.0,0.0,0.0,0.0,0.0,0.0,0.0,0.0,0.0,0.0,0.0,0.0,0.0,0.0,0.0,0.0,0.0,0.0,0.0,0.0,0.0,0.0,0.0,0.0,0.0,0.0,0.0,0.0,0.0,0.0,0.0,0.0,0.0,0.0,0.0,0.0,0.0,0.0,0.0,0.0,0.0,0.0,0.0,0.0,0.0,0.0,0.0,0.0,0.0,0.0,0.0,0.0,0.0,0.0,0.0,0.0,0.0,0.0,0.0,0.0,0.0,0.0,0.0,0.0,0.0,0.0,0.0,0.0,0.0,0.0,0.0,0.0,0.0,0.0,0.0,0.0,0.0,0.0,0.0,0.0,0.0,0.0,0.0,0.0,0.0,0.0,0.0,0.0,0.0,0.0,0.0,0.0,0.0,0.0,0.0,0.0,0.0,0.0,0.0,0.0,0.0,0.0,0.0,0.0,0.0,0.0,0.0,0.0,0.0,0.0,0.0,0.0,0.0,0.0,0.0,0.0,0.0,0.0,0.0,0.0,0.0,0.0,0.0,0.0,0.0,0.0,0.0,0.0,0.0,0.0,0.0,0.0,0.0,0.0,0.0,0.0,0.0,0.0,0.0,0.0,0.0,0.0,0.0,0.0,0.0,0.0,0.0,0.0,0.0,0.0,0.0,0.0,0.0,0.0,0.0,0.0,0.0,0.0,0.0,0.0,0.0,0.0,0.0,0.0,0.0,0.0,0.0,0.0,0.0,0.0,0.0,0.0,0.0,0.0,0.0,0.0,0.0,0.0,0.0,0.0,0.0,0.0,0.0,0.0,0.0,0.0,0.0,0.0,0.0,0.0,0.0,0.0,0.0,0.0,0.0,0.0,0.0,0.0,0.0,0.0,0.0,0.0,0.0,0.0,0.0,0.0,0.0,0.0,0.0,0.0,0.0,0.0,0.0,0.0,0.0,0.0,0.0,0.0,0.0,0.0,0.0,0.0,0.0,0.0,0.0,0.0,0.0,0.0,0.0,0.0,0.0,0.0,0.0,0.0,0.0,0.0,0.0,0.0,0.0,0.0,0.0,0.0,0.0,0.0,0.0,0.0,0.0,0.0,0.0,0.0,0.0,0.0,0.0,0.0,0.0,0.0,0.0,0.0,0.0,0.0,0.0,0.0,0.0,0.0,0.0,0.0,0.0,0.0,0.0,0.0,0.0,0.0,0.0,0.0,0.0,0.0,0.0,0.0,0.0,0.0,0.0,0.0,0.0,0.0,0.0,0.0,0.0,0.0,0.0,0.0,0.0,0.0,0.0,0.0,0.0,0.0,0.0,0.0,0.0,0.0,0.0,0.0,0.0,0.0,0.0,0.0,0.0,0.0,0.0,0.0,0.0,0.0,0.0,0.0,0.0,0.0,0.0,0.0,0.0,0.0,0.0,0.0,0.0,0.0,0.0,0.0,0.0,0.0,0.0,0.0,0.0,0.0,0.0,0.0,0.0,0.0,0.0,0.0,0.0,0.0,0.0,0.0,0.0,0.0,0.0,0.0,0.0,0.0,0.0,0.0,0.0,0.0,0.0,0.0,0.0,0.0,0.0,0.0,0.0,0.0,0.0,0.0,0.0,0.0,0.0,0.0,0.0,0.0,0.0,0.0,0.0,0.0,0.0,0.0,0.0,0.0,0.0,0.0,0.0,0.0,0.0,0.0,0.0,0.0,0.0,0.0,0.0,0.0,0.0,0.0,0.0,0.0,0.0,0.0,0.0,0.0,0.0,0.0,0.0,0.0,0.0,0.0,0.0,0.0,0.0,0.0,0.0,0.0,0.0,0.0,0.0,0.0,0.0,0.0,0.0,0.0,0.0,0.0,0.0,0.0,0.0,0.0,0.0,0.0,0.0,0.0,0.0,0.0,0.0,0.0,0.0,0.0,0.0,0.0,0.0,0.0,0.0,0.0,0.0,0.0,0.0,0.0,0.0,0.0,0.0,0.0,0.0,0.0,0.0,0.0,0.0,0.0,0.0,0.0,0.0,0.0,0.0,0.0,0.0,0.0,0.0,0.0,0.0,0.0,0.0,0.0,0.0,0.0,0.0,0.0,0.0,0.0,0.0,0.0,0.0,0.0,0.0,0.0,0.0,0.0,0.0,0.0,0.0,0.0,0.0,0.0,0.0,0.0,0.0,0.0,0.0,0.0,0.0,0.0,0.0,0.0,0.0,0.0,0.0,0.0,0.0,0.0,0.0,0.0,0.0,0.0,0.0,0.0,0.0,0.0,0.0,0.0,0.0,0.0,0.0,0.0,0.0,0.0,0.0,0.0,0.0,0.0,0.0,0.0,0.0,0.0,0.0,0.0,0.0,0.0,0.0,0.0,0.0,0.0,0.0,0.0,0.0,0.0,0.0,0.0,0.0,0.0,0.0,0.0,0.0,0.0,0.0,0.0,0.0,0.0,0.0,0.0,0.0,0.0,0.0,0.0,0.0,0.0,0.0,0.0,0.0,0.0,0.0,0.0,0.0,0.0,0.0,0.0,0.0,0.0,0.0,0.0,0.0,0.0,0.0,0.0,0.0,0.0,0.0,0.0,0.0,0.0,0.0,0.0,0.0,0.0,0.0,0.0,0.0,0.0,0.0,0.0,0.0,0.0,0.0,0.0,0.0,0.0,0.0,0.0,0.0,0.0,0.0,0.0,0.0,0.0,0.0,0.0,0.0,0.0,0.0,0.0,0.0,0.0,0.0,0.0,0.0,0.0,0.0,0.0,0.0,0.0,0.0,0.0,0.0,0.0,0.0,0.0,0.0,0.0,0.0,0.0,0.0,0.0,0.0,0.0,0.0,0.0,0.0,0.0,0.0,0.0,0.0,0.0,0.0,0.0,0.0,0.0,0.0,0.0,0.0,0.0,0.0,0.0,0.0,0.0,0.0,0.0,0.0,0.0,0.0,0.0,0.0,0.0,0.0,0.0,0.0,0.0,0.0,0.0,0.0,0.0,0.0,0.0,0.0,0.0,0.0,0.0,0.0,0.0,0.0,0.0,0.0,0.0,0.0,0.0,0.0,0.0,5.3118,5.1411,0.0,0.0,0.0,0.0,0.0,0.0,0.0,0.0,0.0,0.0,0.0,0.0,0.0,0.0,0.0,0.0,0.0,0.0,0.0,0.0,0.0,0.0,0.0,2.9843,2.9439,2.9012,2.8975,0.0,0.0,0.0,0.0,0.0,0.0,0.0,0.0,0.0,3.4798,3.5642,3.6009,3.7257,3.9239,3.9129,3.8285,3.6853,0.0,0.0,0.0,0.0,0.0,0.0,0.0,0.0,0.0,0.0,0.0,0.0,0.0,0.0,0.0,0.0,0.0,0.0,0.0,0.0,0.0,0.0,0.0,0.0,0.0,0.0,0.0,0.0,0.0,0.0,0.0,0.0,0.0,0.0,0.0,0.0,0.0,0.0,0.0,0.0,0.0,0.0,0.0,0.0,0.0,0.0,0.0,0.0,0.0,0.0,0.0,0.0,0.0,0.0,0.0,0.0,0.0,0.0,0.0,0.0,0.0,0.0,0.0,0.0,0.0,0.0,0.0,0.0,0.0,0.0,5.5215,5.3941,0.0,0.0,0.0,0.0,0.0,0.0,0.0,0.0,0.0,0.0,0.0,0.0,0.0,0.0,0.0,0.0,0.0,0.0,0.0,0.0,0.0,3.1311,3.0503,3.0393,3.0099,2.9292,2.9365,2.9769,3.0577,3.0613,0.0,0.0,0.0,0.0,3.4211,3.4908,3.5789,3.6927,3.8138,3.979,4.1772,4.3094,4.1919,3.8726,3.7918,0.0,0.0,0.0,0.0,0.0,0.0,0.0,0.0,0.0,0.0,0.0,0.0,0.0,0.0,0.0,0.0,0.0,0.0,0.0,0.0,0.0,0.0,0.0,0.0,0.0,0.0,0.0,0.0,0.0,0.0,0.0,0.0,0.0,0.0,0.0,0.0,0.0,0.0,0.0,0.0,0.0,0.0,0.0,0.0,0.0,0.0,0.0,0.0,0.0,0.0,0.0,0.0,0.0,0.0,0.0,0.0,0.0,0.0,0.0,0.0,0.0,0.0,0.0,5.7573,5.768,5.768,5.768,5.8242,5.9109,5.6721,5.6112,5.6698,5.4641,0.0,0.0,0.0,0.0,0.0,0.0,0.0,0.0,0.0,0.0,0.0,0.0,0.0,0.0,0.0,0.0,0.0,0.0,0.0,3.2155,3.1311,3.1237,3.0907,3.0099,3.0687,3.1421,3.2228,3.2302,0.0,0.0,0.0,3.5092,3.5936,3.6083,3.7221,3.9423,4.2323,4.3901,4.4232,4.4452,4.4268,4.3718,4.291,4.2139,4.1405,0.0,0.0,0.0,0.0,0.0,0.0,0.0,0.0,0.0,0.0,0.0,0.0,0.0,0.0,0.0,0.0,0.0,0.0,0.0,0.0,0.0,0.0,0.0,0.0,0.0,0.0,0.0,0.0,0.0,0.0,0.0,0.0,0.0,0.0,0.0,0.0,0.0,0.0,0.0,0.0,0.0,5.1767,5.2635,0.0,0.0,0.0,0.0,0.0,0.0,0.0,0.0,0.0,0.0,0.0,0.0,0.0,5.6559,5.6852,5.7916,5.8549,5.8664,5.9766,6.0277,6.0277,6.0277,6.0378,6.0541,6.0147,0.0,5.853,5.8216,0.0,0.0,0.0,0.0,0.0,0.0,0.0,0.0,0.0,0.0,0.0,0.0,0.0,0.0,0.0,0.0,0.0,0.0,0.0,0.0,0.0,3.2889,3.3109,3.2302,3.3403,3.4284,3.4651,3.4688,0.0,0.0,3.5752,3.634,3.7624,3.8102,3.9717,4.2616,4.4929,4.6287,4.6764,4.7682,4.8122,4.8122,4.7755,4.5883,4.291,4.2213,0.0,0.0,0.0,0.0,0.0,0.0,0.0,0.0,0.0,0.0,0.0,0.0,0.0,0.0,0.0,0.0,0.0,0.0,0.0,0.0,0.0,0.0,0.0,0.0,0.0,0.0,0.0,0.0,0.0,0.0,0.0,0.0,0.0,0.0,0.0,0.0,0.0,0.0,0.0,5.1129,5.2011,5.2836,5.2445,5.2009,0.0,0.0,0.0,0.0,0.0,0.0,0.0,0.0,0.0,5.7498,5.7878,5.8386,5.9147,5.9664,5.9971,5.9971,6.0541,6.105,6.1512,6.1512,6.1781,6.2204,6.2204,6.1901,6.1249,5.9568,5.8707,5.8245,0.0,0.0,0.0,0.0,5.6133,5.7522,0.0,0.0,0.0,0.0,0.0,0.0,0.0,0.0,0.0,0.0,0.0,0.0,3.3623,3.4981,3.5642,3.4798,3.6083,3.6927,3.6927,3.711,3.7294,3.7514,3.7734,3.8395,3.9606,4.0598,4.2506,4.5333,4.6948,4.8159,4.8967,5.0215,5.0802,5.0802,5.0802,4.8783,4.5333,4.4672,4.3718,4.2506,0.0,0.0,0.0,0.0,0.0,0.0,0.0,0.0,0.0,0.0,0.0,0.0,0.0,0.0,0.0,0.0,0.0,0.0,0.0,0.0,0.0,0.0,0.0,0.0,0.0,0.0,0.0,0.0,0.0,0.0,0.0,0.0,0.0,0.0,0.0,0.0,0.0,5.2173,5.2911,5.3337,5.3703,5.3524,0.0,0.0,0.0,0.0,0.0,0.0,5.7466,5.7504,5.8068,5.9354,5.9393,5.9946,6.1127,6.1127,6.1243,6.1435,6.1435,6.1781,6.2397,6.2397,6.2743,6.332,6.332,6.332,6.3142,6.0916,6.0179,6.0264,5.8501,5.8467,5.9235,5.797,5.8343,5.955,0.0,0.0,0.0,0.0,0.0,0.0,0.0,0.0,0.0,0.0,0.0,3.6156,3.6119,3.7551,3.8175,3.7367,3.8102,3.8579,3.8579,3.9276,4.0047,4.0855,4.1589,4.2029,4.2103,4.3681,4.5296,4.6985,4.8636,4.9884,5.0692,5.0765,5.0802,5.0802,5.0802,5.0655,5.0288,4.7939,4.6874,4.6544,4.3424,0.0,0.0,0.0,0.0,0.0,0.0,0.0,0.0,0.0,0.0,0.0,0.0,0.0,0.0,0.0,0.0,0.0,0.0,0.0,0.0,0.0,0.0,0.0,0.0,0.0,0.0,0.0,0.0,0.0,0.0,0.0,0.0,0.0,0.0,0.0,0.0,0.0,0.0,5.5605,5.6603,0.0,0.0,0.0,0.0,5.6857,5.6965,5.7504,5.8768,5.8806,5.9393,6.0681,6.0681,6.1127,6.2012,6.2012,6.2435,6.3166,6.3166,6.3205,6.3243,6.3243,6.3281,6.332,6.332,6.332,6.3281,6.3142,6.2387,6.1239,6.0399,5.9785,5.9345,5.8927,5.934,6.0132,0.0,0.0,0.0,2.8975,2.9659,3.0099,2.9843,3.1384,3.2816,3.3293,3.5092,3.6486,3.7,3.8982,4.012,3.9827,4.1515,4.2139,4.1075,4.2249,4.2433,4.1185,4.1882,4.302,4.4562,4.6214,4.7572,4.871,4.9811,5.0765,5.1573,5.2637,5.3371,5.3885,5.3885,5.3885,5.3702,5.0729,4.9187,4.8563,4.6838,4.5076,0.0,0.0,0.0,0.0,0.0,0.0,0.0,0.0,0.0,0.0,0.0,0.0,0.0,0.0,0.0,0.0,0.0,0.0,0.0,0.0,0.0,0.0,0.0,0.0,0.0,0.0,0.0,0.0,0.0,0.0,0.0,0.0,0.0,0.0,0.0,0.0,0.0,5.6582,5.765,0.0,5.7073,5.7749,5.8213,5.8213,5.8977,5.9625,6.0112,6.0674,6.1184,6.1627,6.2127,6.2551,6.2858,6.2858,6.3012,6.332,6.332,6.3589,6.4128,6.4128,6.4436,6.4974,6.4974,6.4974,6.4974,6.4974,6.4014,6.2605,6.2298,6.2065,6.1907,6.1773,6.1914,6.2209,0.0,2.8975,0.0,2.8975,2.9439,2.9879,3.0173,3.1568,3.3109,3.4468,3.6303,3.7918,3.8982,4.0781,4.2029,4.2286,4.3534,4.3828,4.2763,4.3975,4.4121,4.28,4.3754,4.5076,4.6654,4.7755,4.9003,5.0398,5.0949,5.1903,5.3225,5.4032,5.484,5.5574,5.5574,5.5574,5.5464,5.3298,5.1793,5.0692,4.9297,4.7792,4.6214,0.0,0.0,0.0,0.0,0.0,0.0,0.0,0.0,0.0,0.0,0.0,0.0,0.0,0.0,0.0,0.0,0.0,0.0,0.0,0.0,0.0,0.0,0.0,0.0,0.0,0.0,0.0,0.0,0.0,0.0,0.0,0.0,0.0,0.0,5.6618,5.7806,5.7105,5.8491,5.9043,5.7749,5.9035,5.9982,5.9982,6.1006,6.1627,6.1627,6.2204,6.2512,6.2512,6.3012,6.3435,6.3743,6.3743,6.3897,6.4166,6.4166,6.4628,6.5436,6.5436,6.5936,6.6744,6.6744,6.6744,6.6744,6.6744,6.6051,6.4936,6.4089,6.3551,6.332,6.332,6.332,6.332,0.0,2.8975,2.8975,2.8975,2.9012,2.9329,3.0099,3.1604,3.355,3.6009,3.8395,4.0487,4.2103,4.302,4.3828,4.4599,4.4011,4.3534,4.3534,4.4342,4.5149,4.5957,4.7462,4.8306,4.8306,4.8343,4.9591,5.1977,5.2013,5.3261,5.5574,5.484,5.4913,5.5647,5.5647,5.5647,5.5647,5.5647,5.473,5.3115,5.0692,4.9701,4.9407,0.0,0.0,0.0,0.0,0.0,0.0,0.0,0.0,0.0,0.0,0.0,0.0,0.0,0.0,0.0,0.0,0.0,0.0,0.0,0.0,0.0,0.0,0.0,0.0,0.0,0.0,0.0,0.0,0.0,0.0,0.0,0.0,0.0,5.6154,5.7642,5.8491,5.7289,5.9316,6.0353,5.912,6.0879,6.2127,6.2127,6.2858,6.332,6.332,6.332,6.3358,6.3358,6.3358,6.382,6.4666,6.4666,6.5128,6.5974,6.5974,6.6397,6.7128,6.7128,6.759,6.8398,6.8398,6.8398,6.8398,6.8398,6.8398,6.8167,6.5667,6.4205,6.3474,6.3474,6.3435,6.3435,2.8975,2.8975,2.8975,2.8975,2.9475,3.0136,3.0944,3.2449,3.4357,3.6853,3.8762,4.0487,4.2103,4.3534,4.4232,4.3864,4.4672,4.5002,4.4415,4.6214,4.7425,4.7645,4.8049,4.8306,4.8306,4.9481,5.0729,5.1977,5.2564,5.3812,5.5611,5.5978,5.6565,5.7336,5.7336,5.7336,5.7299,5.6712,5.6235,5.5647,5.3812,5.238,5.1206,0.0,0.0,0.0,0.0,0.0,0.0,0.0,0.0,0.0,0.0,0.0,0.0,0.0,0.0,0.0,0.0,0.0,0.0,0.0,0.0,0.0,0.0,0.0,0.0,0.0,0.0,0.0,0.0,0.0,0.0,0.0,5.6269,5.7319,5.7958,5.9343,6.0137,5.9805,6.0916,6.1603,6.1261,6.2271,6.2974,6.2974,6.3166,6.332,6.332,6.3897,6.4243,6.4243,6.4859,6.559,6.6397,6.6397,6.6859,6.7705,6.7705,6.7821,6.8052,6.8052,6.8167,6.8398,6.8398,6.8398,6.8398,6.8398,6.8398,6.8321,6.7628,6.7205,6.7013,6.7013,6.659,6.6051,2.8975,2.8975,2.8975,2.8975,2.9402,3.0099,3.1237,3.2779,3.4798,3.7624,3.9386,4.1038,4.2616,4.3938,4.4672,4.4525,4.5369,4.5993,4.6214,4.7865,4.8673,4.8306,4.8636,4.882,4.882,5.0141,5.1536,5.3004,5.3482,5.4693,5.6602,5.6748,5.7226,5.7997,5.7997,5.7997,5.796,5.7152,5.7005,5.7152,5.5537,5.4326,5.3298,5.1499,5.0618,5.0178,4.8783,4.8526,4.871,4.7902,0.0,0.0,0.0,0.0,0.0,0.0,0.0,0.0,0.0,0.0,0.0,0.0,0.0,0.0,0.0,0.0,0.0,0.0,0.0,0.0,0.0,0.0,0.0,0.0,5.6671,5.7634,5.8974,6.0085,6.0781,6.0781,6.1858,6.2589,6.2589,6.3358,6.3858,6.3858,6.4166,6.4397,6.4397,6.4859,6.5282,6.5628,6.6128,6.6782,6.7628,6.7628,6.7898,6.8398,6.8398,6.859,6.8936,6.8936,6.9129,6.9436,6.9436,6.9436,6.9436,6.9436,6.9436,6.9398,0.0,0.0,0.0,0.0,6.7513,6.7051,2.8975,2.8975,2.8975,2.8975,2.8975,2.9512,3.1017,3.2632,3.4835,3.8138,3.9974,4.1625,4.3314,4.4232,4.5002,4.57,4.5847,4.6581,4.8196,4.9003,4.915,4.8489,4.9187,4.9591,4.9591,5.0582,5.216,5.4399,5.4583,5.5794,5.796,5.7262,5.7336,5.7997,5.7997,5.7997,5.796,5.7262,5.7336,5.785,5.6235,5.5574,5.528,5.2344,5.205,5.2821,4.9921,4.9334,4.9848,4.9003,0.0,0.0,0.0,0.0,0.0,0.0,0.0,0.0,0.0,0.0,0.0,0.0,0.0,0.0,0.0,0.0,0.0,0.0,0.0,0.0,0.0,0.0,0.0,0.0,5.7325,5.8396,5.9127,6.0204,6.0935,6.0935,6.2435,6.3474,6.3474,6.4243,6.4743,6.4743,6.5551,6.6051,6.6051,6.6128,0.0,0.0,0.0,6.7667,6.8552,6.8552,6.859,6.8706,6.8706,6.909,6.986,6.986,7.0206,7.0898,7.0898,7.0898,7.0898,7.0898,7.0898,7.0744,6.9283,6.8706,6.859,6.7705,6.7321,6.7128,2.8975,2.8975,2.8975,2.8975,2.8975,2.9305,3.0283,3.1788,3.4027,3.7294,3.9129,4.1001,4.324,4.4232,4.4782,4.4929,4.5516,4.6581,4.8196,4.8453,4.8783,4.9334,4.9481,4.9591,4.9591,5.1646,5.3298,5.4399,5.5721,5.6895,5.7997,5.785,5.785,5.7997,5.7997,5.7997,5.7997,5.7813,5.785,5.785,5.6235,5.5574,5.5464,5.4179,5.3482,5.3115,5.2491,5.238,5.238,5.1573,5.1279,5.1169,5.0508,5.0215,0.0,0.0,0.0,0.0,0.0,0.0,0.0,0.0,0.0,0.0,0.0,0.0,0.0,0.0,0.0,0.0,0.0,0.0,0.0,5.5336,5.6443,5.7319,5.7434,6.0012,6.1858,6.1858,6.332,6.4359,6.4359,6.5128,6.5628,6.5628,6.6397,6.6859,6.6859,6.7513,6.8013,6.8129,6.8167,6.859,6.9436,6.9436,6.9783,7.0437,7.0437,0.0,7.0667,7.0667,7.0744,7.0898,7.0898,7.0898,7.0898,7.0898,7.0898,7.086,7.0552,7.0437,7.0321,6.9513,6.8744,6.8052,2.8975,2.8975,2.8975,2.8975,2.8975,2.9439,3.0613,3.1825,3.3623,3.6523,3.7955,3.946,4.1479,4.2763,4.3828,4.4635,4.6581,4.7902,4.8269,4.871,4.893,4.893,4.9738,5.0398,5.0765,5.2784,5.4399,5.5611,5.6418,5.7226,5.7997,5.7997,5.7997,5.7997,5.7997,5.7997,5.796,5.7556,5.7629,5.7886,5.6675,5.5941,5.5427,5.3812,5.3445,5.3702,5.2894,5.3115,5.3739,5.3335,5.3445,5.3739,5.3335,5.2931,5.2454,0.0,0.0,0.0,0.0,0.0,0.0,0.0,0.0,0.0,0.0,0.0,0.0,0.0,0.0,5.3695,5.4377,0.0,5.5835,5.6026,5.696,5.778,5.8204,6.0473,6.2089,6.2089,6.3974,6.5243,6.5243,6.6013,6.6513,6.6513,6.7282,6.7744,6.7744,6.8167,6.859,6.9052,6.9052,6.9436,7.0283,7.0283,7.0514,7.0898,7.0898,7.0898,7.0898,7.0898,7.1129,7.1552,7.1552,7.1783,7.2206,7.2206,7.2206,7.2206,7.2206,7.1437,7.0206,6.936,6.8513,6.7628,2.8975,2.8975,2.8975,2.8975,2.8975,2.9512,3.0944,3.1861,3.3256,3.5716,3.6743,3.7918,3.9717,4.1185,4.28,4.4562,4.7241,4.8636,4.8122,4.8825,4.8972,4.8343,4.9963,5.1253,5.1977,5.3739,5.5354,5.6822,5.6969,5.7373,5.7997,5.7997,5.7997,5.7997,5.7997,5.7997,5.796,5.7299,5.7409,5.7923,5.6969,5.6271,5.5574,5.3151,5.3041,5.4032,5.2858,5.3298,5.4436,5.4583,5.506,5.5574,5.5574,5.506,5.4252,5.3445,5.3115,0.0,0.0,0.0,0.0,0.0,0.0,0.0,0.0,5.2279,5.2545,5.3208,5.3683,5.4225,5.4774,5.577,5.669,5.7181,5.7973,5.8781,5.9396,6.1127,6.2397,6.2551,6.4666,6.6128,6.6128,6.6859,6.7359,6.7359,6.8167,6.8667,6.8667,6.8821,6.9206,6.9898,6.9937,7.0244,7.0898,7.0898,7.0898,7.0898,7.1052,7.1168,7.1168,7.1321,7.1783,7.2437,7.2437,7.286,7.3514,7.3514,7.3514,7.3514,7.3514,7.2129,7.009,6.9206,6.8436,6.7705,2.8975,2.8975,2.8975,2.8975,2.8975,2.9329,3.021,3.1017,3.2412,3.4835,3.5899,3.7331,3.9643,4.0708,4.2176,4.4525,4.57,4.6581,4.7205,4.764,4.8044,4.8269,5.0195,5.1491,5.1977,5.4252,5.5904,5.6822,5.7519,5.7923,5.7997,5.7997,5.7997,5.7997,5.7997,5.7997,5.7997,5.7886,5.7923,5.785,5.6345,5.6088,5.6418,5.3995,5.3188,5.3408,5.3959,5.4252,5.4509,5.5207,5.5537,5.5574,5.5574,5.506,5.4252,5.3445,5.2711,5.194,5.1059,5.1389,5.1977,5.1867,5.2417,5.2968,0.0,5.3336,5.3647,5.3683,5.4382,5.5189,5.6044,5.66,5.722,5.8011,5.8858,5.9396,5.9473,6.1627,6.3435,6.4243,6.5897,6.6974,6.6974,6.7744,6.8244,6.8244,6.9052,6.9552,6.9552,7.0244,7.0667,7.0744,7.0783,7.0821,7.0898,7.0898,7.0898,7.0898,7.1668,7.2052,7.2091,7.286,7.3283,7.336,7.336,7.3399,7.3514,7.3514,7.3514,7.3514,7.3514,7.286,7.1822,7.0937,7.0552,7.0244,2.9696,2.9305,2.8975,2.8975,2.8975,2.9439,3.0687,3.1164,3.2265,3.466,3.532,3.6303,3.8285,4.0487,4.2396,4.3864,4.5149,4.625,4.7058,4.7488,4.7992,4.8639,5.0339,5.1825,5.3008,5.4717,5.6198,5.7483,5.785,5.7997,5.7997,5.7997,5.7997,5.7997,5.7997,5.7997,5.7997,5.7997,5.774,5.7262,5.6565,5.5941,5.528,5.4289,5.3628,5.3261,5.3592,5.3995,0.0,5.5317,5.5904,5.6381,5.6859,5.6455,5.5647,5.484,5.4363,5.3922,5.3115,5.2784,5.2711,5.2711,5.2968,5.3225,5.3225,5.3318,5.3444,5.3444,5.4279,5.5244,5.5906,5.7128,5.8259,0.0,5.9704,6.0242,6.0242,6.2435,6.4205,6.4551,6.6974,6.8398,6.7898,6.8629,6.9167,6.9167,6.9937,7.0398,7.0398,7.0706,7.0898,7.0898,7.0898,7.1129,7.1629,7.1668,7.1898,7.2437,7.2783,7.2976,7.2976,7.3322,7.3783,7.4245,7.4745,7.4938,7.4938,7.4938,7.4938,7.4938,7.4938,7.4437,7.3437,7.1591,7.0591,7.0014,3.054,3.0063,2.9659,2.9659,2.9659,3.0063,3.1201,3.1568,3.2449,3.4431,3.4688,3.5385,3.7294,4.0157,4.2286,4.3094,4.4452,4.5773,4.7021,4.7367,4.8039,4.9176,5.0534,5.2023,5.3605,5.46,5.6012,5.7818,5.772,5.7776,5.7997,5.7997,5.7997,5.7997,5.7997,5.7997,5.7997,5.7776,5.7336,5.6785,5.6345,5.5574,5.4693,5.4252,5.3849,5.3555,5.3555,5.4069,5.484,5.5647,5.6308,5.6895,5.7483,5.7116,5.6308,5.55,5.5097,5.4803,5.4216,5.3665,5.3225,5.3225,5.3225,5.3225,5.3225,5.3225,5.3261,5.3482,5.4422,5.5467,5.6224,5.7794,5.9178,5.9734,6.0396,6.0858,6.1127,6.3166,6.4782,6.5243,6.7898,6.9552,6.9129,6.9667,7.0014,7.0014,7.0552,7.0898,7.0898,7.0898,7.1014,7.1245,7.1245,7.1668,7.2552,7.2552,7.2899,7.3514,7.3745,7.3822,7.386,7.4091,7.4514,7.5091,7.5745,7.6015,7.6015,7.6015,7.6015,7.6015,7.6015,7.5476,7.4437,7.2399,7.1091,7.0244,3.1347,3.1347,3.1311,3.1311,3.1311,3.1347,3.1384,3.2082,3.2889,3.3733,3.3844,3.4761,3.7221,3.968,4.1479,4.2286,4.3094,4.4562,4.6985,4.7099,4.7972,4.9996,5.0865,5.1896,5.3176,5.3641,5.5023,5.7441,5.7051,5.7262,5.7997,5.7997,5.7997,5.7997,5.7997,5.7997,5.796,5.7189,5.6822,5.6675,5.5097,5.4913,5.539,5.3849,5.3702,5.4363,5.4363,5.4876,5.5684,5.6492,5.6785,5.6822,5.6822,5.6271,5.5464,5.4656,5.3885,5.3298,5.3261,5.3225,5.3225,5.3225,5.3225,5.3225,5.3225,5.3225,5.3445,5.4216,5.5025,5.6182,5.7838,5.8863,5.9781,6.0627,6.0781,6.1089,6.1935,6.3512,6.5205,6.6821,6.859,7.0014,7.0744,7.086,7.086,7.086,7.0898,7.0898,7.0898,7.0898,7.1283,7.2129,7.2168,7.2591,7.3437,7.3476,7.3476,7.3514,7.4284,7.4668,7.4707,7.5553,7.5938,7.5976,7.5976,7.6015,7.6015,7.6015,7.6015,7.6015,7.6015,7.5476,7.4591,7.3745,7.286,7.2014,3.2192,3.1751,3.1384,3.1384,3.1825,3.2192,3.2192,3.2449,3.3109,3.4431,3.5246,0.0,0.0,0.0,0.0,0.0,4.2382,4.3823,4.5745,4.6644,4.7627,4.8875,5.0453,5.2018,5.3556,5.4037,5.5282,5.7407,5.7241,5.747,5.7997,5.7997,5.7997,5.7997,5.7997,5.7997,5.796,5.7152,5.6492,5.5904,5.484,5.4252,5.3959,5.3408,5.3702,5.4399,0.0,5.4583,5.5023,5.6345,5.6822,5.6895,5.7446,5.7042,5.6235,5.5427,5.462,5.3995,5.3995,5.3628,5.3225,5.3225,5.3225,5.3225,5.3225,5.3628,5.4069,5.4326,5.547,5.6692,5.7566,5.8665,5.9604,6.0245,6.1058,6.1743,6.205,6.4512,6.6474,6.7013,6.909,7.0591,7.086,7.0898,7.0898,7.0898,7.0898,7.1168,7.1745,7.1745,7.2168,7.3053,7.3053,7.3476,7.4284,7.4322,7.4591,7.5168,7.5438,7.5553,7.5553,7.5861,7.6015,7.6015,7.6015,7.6015,7.6015,7.6015,7.6015,7.6015,7.6015,7.513,7.386,7.3591,7.2591,7.1283,0.0,3.2816,3.2339,3.2632,3.2889,0.0,0.0,0.0,0.0,0.0,0.0,0.0,0.0,0.0,0.0,0.0,0.0,4.3743,4.5494,4.6252,4.7212,4.8461,4.9625,5.1,5.2683,5.3021,5.4058,5.5884,5.633,5.6833,5.7383,5.7794,5.7997,5.7997,5.7997,5.7997,5.796,5.7152,5.6345,5.5537,5.473,5.3922,5.3225,5.3225,5.3518,0.0,5.462,5.484,5.5023,5.6345,5.6822,5.6895,5.7409,5.6822,5.5904,5.5647,5.484,5.3959,5.3959,5.3592,5.3225,5.3225,5.3225,5.3298,5.3555,5.4032,5.4546,5.5133,5.6227,5.7223,5.7854,5.8874,5.9836,6.0455,6.1697,6.2743,6.3358,6.582,6.7667,6.7975,6.9744,7.0898,7.0898,7.1168,7.136,7.136,7.136,7.1745,7.2629,7.2668,7.3053,7.3899,7.3937,7.4322,7.5168,7.5168,7.5438,7.6015,7.6015,7.6015,7.6015,7.6015,7.6015,7.6015,7.6015,7.6015,7.6015,7.6015,7.6015,7.6015,7.6015,7.4976,7.3514,7.3514,7.2399,7.0898,0.0,0.0,3.4027,0.0,0.0,0.0,0.0,0.0,0.0,0.0,0.0,0.0,0.0,0.0,0.0,0.0,0.0,0.0,4.619,4.5989,4.6685,4.8684,4.8499,4.9117,5.0703,5.0749,5.1586,5.3208,5.4351,5.5283,5.61,5.7272,5.7822,5.7813,5.7813,5.785,5.7813,5.7042,5.6235,5.5464,5.4656,5.3849,5.3151,5.3151,5.3188,5.3408,5.4913,5.5537,5.5721,5.6528,5.6785,5.6748,5.6748,5.5684,5.462,5.5354,5.4473,5.3261,5.3261,5.3225,5.3225,5.3225,5.3225,5.3408,5.4216,5.4436,5.4913,5.6492,5.7186,5.7779,5.8598,5.9499,6.0417,6.1285,6.2552,6.4012,6.5667,6.7398,6.8783,0.0,0.0,0.0,0.0,0.0,7.2245,7.2322,7.2283,7.2629,7.3514,7.3553,7.3937,7.4745,7.4784,7.5168,7.5976,7.6015,7.6015,7.6015,7.6015,7.6015,7.6015,7.6015,7.6015,7.6015,7.6015,7.6015,7.6015,7.6015,7.6015,7.6015,7.6015,7.4976,7.3514,7.3514,7.2399,7.0898,0.0,0.0,0.0,0.0,0.0,0.0,0.0,0.0,0.0,0.0,0.0,0.0,0.0,0.0,0.0,0.0,0.0,0.0,4.5318,4.5684,4.6043,4.6572,4.8334,4.9448,4.9901,5.1072,5.2145,5.3208,5.3494,5.3933,5.4428,5.4758,5.4995,5.5317,5.5317,5.5647,5.6161,5.5354,5.4876,5.462,5.3849,5.3041,5.2307,5.2307,5.2674,5.3261,5.3665,5.4583,5.5721,5.6528,5.6418,5.5904,5.5904,5.5611,5.5317,5.5537,5.4876,5.4106,5.4106,5.3665,5.3225,5.3225,5.3225,5.3408,5.4216,5.484,5.5574,5.6602,5.7398,5.8113,5.8923,5.9887,6.0842,6.164,6.3723,0.0,6.582,6.7898,0.0,6.9667,0.0,7.1168,7.1822,7.2052,0.0,7.3976,7.3514,7.3553,7.4361,7.4399,7.4784,7.563,7.5668,7.5784,7.6015,7.6015,7.6015,7.6015,7.6015,7.6015,7.6015,7.6015,7.6015,7.6015,7.6015,7.6015,7.6015,7.6015,7.6015,7.6015,7.6015,7.4976,7.3514,7.3514,7.2399,7.0898,0.0,0.0,0.0,0.0,0.0,0.0,0.0,0.0,0.0,0.0,0.0,0.0,0.0,0.0,0.0,0.0,0.0,0.0,0.0,4.5337,4.5584,4.5806,4.6986,4.8018,4.8739,4.9671,5.0316,5.0772,5.2021,5.2494,5.2232,5.3275,5.401,5.4363,5.4032,5.4326,5.5023,5.4216,5.3665,0.0,0.0,5.2197,5.1463,5.1463,5.1756,5.2234,5.2968,5.4216,5.5611,5.5721,5.5684,5.5574,5.5574,5.5354,5.506,5.506,5.4509,5.3885,5.3885,5.3555,5.3225,5.3225,5.3225,5.3518,5.4656,5.528,5.5904,5.7079,5.7703,5.8253,5.9061,6.0024,6.1085,6.2219,6.4657,0.0,6.6936,6.8859,7.0244,0.0,7.0975,0.0,7.2129,7.286,7.3707,7.463,7.4284,7.4399,7.5245,7.5284,7.5476,7.5976,7.6015,7.6015,7.6015,7.6015,7.6015,7.6015,7.6015,7.6015,7.6015,7.6015,7.6015,7.6015,7.6015,7.6015,7.6015,7.6015,7.6015,7.5976,7.5592,7.463,7.3437,7.3091,7.2052,7.0898,0.0,0.0,0.0,0.0,0.0,0.0,0.0,0.0,0.0,0.0,0.0,0.0,0.0,0.0,0.0,0.0,0.0,0.0,0.0,0.0,4.5285,4.567,4.5423,4.596,4.742,4.7499,4.7607,4.7783,5.0228,5.0948,5.0064,5.2229,5.3495,5.3934,5.312,5.3225,5.4032,5.3225,5.2491,5.183,5.183,5.1353,5.0655,0.0,5.0655,5.0839,5.2454,5.3995,5.517,5.4473,5.4766,5.5427,5.5317,5.4803,5.4252,5.4252,5.3739,5.3225,5.3225,5.3225,5.3225,5.3225,5.3225,5.3592,5.5097,5.5427,5.5904,5.7519,5.785,5.8107,5.9061,6.0024,6.1236,6.2859,6.5345,6.7398,6.8282,6.986,7.0898,7.0898,7.1668,7.2245,7.236,7.3783,7.4745,7.4861,7.4861,7.5207,7.5976,7.6015,7.6015,7.6015,7.6015,7.6015,7.6015,7.6015,7.6015,7.6015,7.6015,7.6015,7.6015,7.6015,7.6015,7.6015,7.6015,7.6015,7.6015,7.6015,7.6015,7.5938,7.5168,7.4322,7.3399,7.2629,7.1745,7.0898,0.0,0.0,0.0,0.0,0.0,0.0,0.0,0.0,0.0,0.0,3.6096,3.5944,0.0,0.0,0.0,0.0,0.0,0.0,0.0,0.0,0.0,4.5217,4.5545,4.582,4.6121,4.6433,4.7105,4.8106,4.8645,4.9173,4.9612,5.0063,5.0825,5.1788,5.0706,5.1022,5.2344,5.1573,5.1132,5.1022,5.1022,5.0508,4.9811,4.9811,0.0,0.0,5.161,5.2821,5.3592,5.3482,5.3959,5.4473,5.3849,5.3518,5.3408,5.3408,5.3335,5.3225,5.3225,5.3225,5.3225,5.3225,5.3225,5.3445,5.4399,5.462,5.506,5.6675,5.7005,5.7483,5.8951,6.0024,6.1236,6.2859,6.5345,6.7398,6.8282,6.986,7.0898,0.0,7.1668,7.2476,7.3206,7.413,0.0,7.5707,7.5784,7.5822,7.5976,7.6015,7.6015,7.6015,7.6015,7.6015,7.6015,7.6015,7.6015,7.6015,7.6015,7.6015,7.6015,7.6015,7.6015,7.6015,7.6015,7.6015,7.6015,7.6015,7.6015,7.5976,7.5822,7.4861,7.3476,7.3322,7.2283,7.0898,0.0,0.0,0.0,0.0,0.0,0.0,0.0,3.7075,3.7217,3.8882,3.8524,3.8208,3.846,3.9384,4.0816,0.0,0.0,0.0,0.0,0.0,0.0,4.5381,4.5392,4.5621,4.6038,4.6073,4.6285,4.6623,0.0,4.7721,4.7958,4.8587,4.9521,5.0631,4.9675,4.9824,5.0692,4.9848,4.9517,4.9517,4.9517,4.926,4.893,4.893,0.0,0.0,5.1096,5.2417,5.3775,5.3335,5.3739,5.4252,5.3445,5.3225,5.3225,5.3225,5.3225,5.3225,5.3225,5.3225,5.3225,5.3225,5.3225,5.3408,5.4216,5.4399,5.473,5.5941,5.6528,5.7299,5.8914,6.0364,6.184,6.3539,6.6032,6.7936,6.8359,6.986,7.1052,7.1514,7.236,7.3206,7.4053,7.4899,7.5553,7.5976,7.6015,7.6015,7.6015,7.6015,7.6015,7.6015,7.6015,7.6015,7.6015,7.6015,7.6015,7.6015,7.6015,7.6015,7.6015,7.6015,7.6015,7.6015,7.6015,7.6015,7.6015,7.6015,7.6015,7.5899,7.5053,7.4207,7.3399,7.2476,7.1629,7.0898,0.0,0.0,0.0,0.0,0.0,0.0,0.0,3.8969,3.9123,4.0816,4.1046,4.0893,4.0431,4.1239,4.2162,0.0,0.0,0.0,0.0,0.0,0.0,0.0,0.0,0.0,4.6135,0.0,0.0,0.0,4.6382,0.0,0.0,0.0,0.0,0.0,4.9057,4.9043,4.9636,4.8712,4.8306,0.0,0.0,4.8306,4.8343,0.0,0.0,0.0,0.0,5.238,5.4069,5.3408,5.3628,5.4032,5.3408,5.3225,5.3225,5.3225,5.3225,5.3225,5.3225,5.3225,5.3225,5.3225,5.3225,5.3371,5.3995,5.4142,5.4363,5.517,5.5831,5.6867,5.8768,6.0369,6.1951,6.3724,6.6323,6.8129,6.8129,6.9744,7.1206,7.2091,7.2976,0.0,7.463,7.5476,7.6015,7.6015,7.6015,7.6015,7.6015,7.6015,7.6015,7.6015,7.6015,7.6015,7.6015,7.6015,7.6015,7.6015,7.6015,7.6015,7.6015,7.6015,7.6015,7.6015,7.6015,7.6015,7.6015,7.6015,7.6015,7.5861,7.4361,7.3668,7.3322,7.1745,7.1052,7.0898,0.0,0.0,0.0,0.0,0.0,0.0,0.0,4.0315,4.0893,4.2624,4.2854,4.3124,4.3778,4.2624,4.2162,0.0,0.0,0.0,0.0,0.0,0.0,0.0,0.0,0.0,0.0,0.0,0.0,0.0,0.0,0.0,0.0,0.0,0.0,0.0,0.0,4.8624,5.0003,4.879,0.0,0.0,0.0,0.0,0.0,0.0,0.0,0.0,0.0,5.2491,5.3298,5.3225,5.3261,5.3298,5.3225,5.3225,5.3225,5.3225,5.3225,5.3225,5.3225,5.3225,5.3225,5.3225,5.3225,5.3225,5.3298,5.3335,5.3555,5.4326,5.4583,5.5454,5.8293,5.9328,6.0387,6.2452,6.5273,6.7205,6.7205,6.9321,7.1206,7.2091,7.2976,7.3822,7.463,7.5476,7.6015,7.6015,7.6015,7.6015,7.6015,7.6015,7.6015,7.6015,7.6015,7.6015,7.6015,7.6015,7.6015,7.6015,7.6015,7.6015,7.6015,7.6015,7.6015,7.6015,7.6015,7.6015,7.6015,7.6015,7.6015,7.5899,7.4976,7.413,7.3399,7.2437,7.1591,7.0898,0.0,0.0,0.0,0.0,0.0,0.0,4.2277,4.1931,4.2085,4.4316,4.4586,4.4509,4.4316,4.4162,4.4239,4.4547,0.0,0.0,0.0,0.0,0.0,0.0,0.0,0.0,0.0,0.0,4.5475,4.5551,0.0,0.0,0.0,0.0,0.0,0.0,0.0,0.0,4.969,4.8716,0.0,0.0,0.0,0.0,0.0,0.0,0.0,0.0,0.0,0.0,5.3225,5.3225,5.3225,5.3225,5.3225,5.3225,5.3225,5.3225,5.3225,5.3225,5.3225,5.3225,5.3225,5.3225,5.3225,5.3225,5.3225,5.3225,5.3345,5.3931,5.4417,5.5503,5.794,5.9639,6.1095,6.2399,6.5542,6.7705,6.7167,6.9283,7.1437,7.2822,7.3283,7.4014,7.5361,7.5784,7.6015,7.6015,7.6015,7.6015,7.6015,7.6015,7.6015,7.6015,7.6015,7.6015,7.6015,7.6015,7.6015,7.6015,7.6015,7.6015,7.6015,7.6015,7.6015,7.6015,7.6015,7.6015,7.6015,7.6015,7.6015,7.5899,7.5053,7.4207,7.3399,7.2514,7.1629,7.0898,0.0,0.0,0.0,0.0,0.0,4.0277,4.3778,4.3508,4.3585,4.5355,4.5586,4.5355,4.4739,4.524,4.5586,4.5586,4.5586,0.0,0.0,0.0,0.0,0.0,0.0,0.0,0.0,0.0,4.5475,4.5243,4.5243,4.5663,0.0,0.0,0.0,0.0,0.0,0.0,0.0,0.0,0.0,0.0,0.0,0.0,0.0,0.0,0.0,0.0,0.0,0.0,0.0,0.0,0.0,5.3188,5.3318,5.3314,5.3225,5.3225,5.3225,5.3225,5.3225,5.3225,5.3225,5.3225,5.3225,5.323,5.3359,5.34,5.3484,5.3905,5.4462,5.5578,5.7905,5.9619,6.1115,6.2577,6.574,6.7782,6.7167,6.9513,7.1822,7.3322,7.3707,7.4437,7.5938,7.6092,7.6053,7.6015,7.6015,7.6015,7.6015,7.6015,7.6015,7.6015,7.6015,7.6015,7.6015,7.6015,7.6015,7.6015,7.6015,7.6015,7.6015,7.6015,7.6015,7.6015,7.6015,7.6015,7.6015,7.6015,7.6015,7.5899,7.5053,7.4361,7.3745,7.2899,7.2206,7.1668,0.0,0.0,0.0,0.0,0.0,0.0,4.4047,4.5009,4.5547,4.5586,4.5586,4.5586,4.5586,4.5586,4.5586,4.5586,4.5586,0.0,0.0,0.0,0.0,0.0,0.0,0.0,0.0,0.0,4.5586,4.5586,4.5586,4.6047,4.6894,4.6894,4.7778,0.0,0.0,0.0,0.0,0.0,0.0,0.0,0.0,0.0,4.8489,0.0,0.0,0.0,0.0,0.0,0.0,0.0,0.0,0.0,0.0,5.3524,5.3225,5.3225,5.3225,5.3225,5.3225,5.3225,5.3225,5.3225,5.3225,5.3277,5.3683,5.3795,5.3905,5.4387,5.4522,5.5404,5.833,5.8911,5.9863,6.2848,6.5436,6.709,6.709,7.0052,7.2514,7.3399,7.4207,7.513,7.6169,7.6284,7.6207,7.6015,7.6015,7.6015,7.6015,7.6015,7.6015,7.6015,7.6015,7.6015,7.6015,7.6015,7.6015,7.6015,7.6015,7.6015,7.6015,7.6015,7.6015,7.6015,7.6015,7.6015,7.6015,7.6015,7.6015,7.5899,7.5053,7.4707,7.4591,7.3783,7.3476,7.3476,0.0,0.0,0.0,0.0,0.0,0.0,0.0,4.4932,4.4932,4.5509,4.5586,4.5586,4.5586,4.5586,4.5586,4.5586,4.5586,0.0,0.0,0.0,0.0,0.0,0.0,0.0,0.0,4.6163,4.6509,4.6509,4.7048,4.7432,4.774,4.774,4.8317,4.9375,4.899,0.0,0.0,0.0,0.0,0.0,0.0,4.9234,4.9257,0.0,0.0,0.0,0.0,0.0,0.0,0.0,0.0,0.0,0.0,0.0,0.0,5.4086,5.368,5.3225,5.3225,5.34,5.3526,5.3272,5.368,5.405,5.3832,5.4048,5.4387,5.4819,5.4905,5.5625,5.8029,5.8947,6.0008,6.2127,6.5089,6.709,6.709,7.0156,7.2734,7.3619,7.5082,7.6133,7.6458,7.6508,7.6399,7.6207,7.6207,7.613,7.6015,7.6015,7.6015,7.6015,7.6015,7.6015,7.6015,7.6015,7.6015,7.6015,7.6015,7.6015,7.6015,7.6015,7.6015,7.6015,7.6015,7.6322,7.6899,7.6899,7.7207,7.7669,7.74,7.6592,7.5553,7.5284,7.4476,7.3514,0.0,0.0,0.0,0.0,0.0,0.0,0.0,4.5124,4.497,4.5509,4.5586,4.5586,4.5586,4.5586,4.5586,4.5586,4.5586,0.0,0.0,0.0,0.0,0.0,0.0,0.0,4.6086,4.6932,4.7355,4.7355,4.7855,4.8279,4.8586,4.8586,4.9048,4.9894,4.9635,4.9963,0.0,0.0,0.0,0.0,4.9738,4.9617,4.9617,0.0,0.0,0.0,0.0,0.0,0.0,0.0,0.0,0.0,0.0,0.0,0.0,0.0,5.4221,5.3682,5.3682,5.387,5.3977,5.3758,5.4121,5.4452,5.4317,5.4547,5.4819,5.5237,5.558,5.6318,5.7966,5.9242,6.0666,6.2704,6.532,6.7436,6.8501,7.1156,7.3459,7.4711,7.5979,7.6662,7.6615,7.6682,7.6614,7.6436,7.6415,7.6361,7.6207,7.6207,7.6207,7.6207,7.6092,7.6015,7.6015,7.6015,7.6015,7.6015,7.6015,7.6015,7.6015,7.6015,7.6169,7.6476,7.6476,7.6976,0.0,7.7746,7.8054,7.8477,7.8477,7.7669,7.6476,7.6476,7.563,7.4437,0.0,0.0,0.0,0.0,0.0,0.0,0.0,4.5586,4.5586,4.5586,4.5586,4.5586,4.5586,4.5586,4.5586,4.5586,0.0,0.0,0.0,0.0,0.0,0.0,0.0,0.0,4.6971,4.7778,4.8202,4.8202,4.824,4.8702,4.9471,4.9471,4.9933,5.0702,5.0702,5.0702,5.0702,5.0702,5.0483,5.0159,5.0159,4.9924,0.0,0.0,0.0,0.0,0.0,0.0,0.0,0.0,0.0,0.0,0.0,0.0,0.0,0.0,0.0,0.0,0.0,5.4547,5.4516,5.4484,5.4516,5.4671,5.5015,5.5134,0.0,5.5698,5.6434,5.728,5.8204,5.9742,6.1704,6.4205,6.6051,6.8155,7.0837,7.2762,7.4601,7.6427,7.682,7.6862,7.666,7.6795,7.6857,7.6651,7.6604,7.6619,7.6601,7.6601,7.6601,7.6601,7.6255,7.6034,7.6053,7.6015,7.6015,7.6015,7.6015,7.6015,7.6092,7.6092,7.6553,7.74,7.74,7.7823,7.8592,7.8592,7.8631,7.8669,7.8669,7.813,7.74,7.74,7.6784,7.6015,0.0,0.0,0.0,0.0,0.0,0.0,0.0,0.0,0.0,0.0,4.5586,4.5586,4.5586,4.5586,4.5586,0.0,0.0,0.0,0.0,0.0,0.0,0.0,0.0,0.0,4.7817,4.8663,4.9086,4.9086,4.974,5.0202,5.0394,5.0394,5.051,5.0702,5.0702,5.0702,5.0702,5.0702,5.0644,5.0584,5.0584,5.0504,0.0,0.0,0.0,0.0,5.2661,5.3518,0.0,0.0,0.0,0.0,0.0,0.0,0.0,0.0,5.547,5.5423,5.5423,0.0,5.4876,5.4579,5.496,5.5375,0.0,5.535,5.5769,5.6549,5.6857,5.7434,5.8934,6.0627,6.2397,6.4282,6.659,6.8821,7.0914,7.3482,7.5658,7.6912,7.7107,7.7101,7.7052,7.7106,7.7068,7.6821,7.6834,7.677,7.6609,7.6591,7.6591,7.6591,7.6514,7.6471,7.6467,7.6284,7.6207,7.6207,7.6053,7.6361,7.6976,7.6976,7.7438,7.8207,7.8207,7.8707,7.9477,7.9477,7.99,8.0477,8.0477,7.9554,7.8207,7.8207,7.7284,7.6015,0.0,0.0,0.0,0.0,0.0,0.0,0.0,0.0,0.0,0.0,0.0,4.5586,4.5586,4.5586,0.0,0.0,0.0,0.0,0.0,0.0,0.0,0.0,0.0,4.824,4.8702,4.9548,5.001,5.001,5.0471,5.0702,5.0702,5.0702,5.0702,5.0702,5.0702,5.0702,5.0702,5.0702,5.0702,5.0702,5.0702,0.0,0.0,0.0,0.0,0.0,5.2288,5.2996,0.0,5.4368,5.4651,5.4877,0.0,0.0,0.0,0.0,5.5703,5.5703,5.5703,5.5554,5.5312,5.5107,5.5375,5.5621,5.5423,5.5861,5.6549,5.7434,5.8204,5.9242,6.0935,6.2728,6.446,6.609,6.8309,7.0606,7.2904,7.5042,7.6554,7.7147,7.7187,7.7187,7.7187,7.7187,7.7148,7.7031,7.7031,7.6985,7.6872,7.687,7.6894,7.6894,7.6894,7.6782,7.6621,7.6482,7.6635,7.7044,7.6929,7.7314,7.819,7.816,7.8622,7.9353,7.9276,7.9708,8.0516,8.0439,8.0669,8.1093,8.1093,8.0015,7.8477,7.8477,7.7438,7.6015,0.0,0.0,0.0,0.0,0.0,0.0,0.0,0.0,0.0,0.0,0.0,0.0,0.0,0.0,0.0,0.0,0.0,0.0,0.0,0.0,0.0,0.0,4.8625,4.9471,4.9586,5.0317,5.0702,5.0702,5.0818,5.0894,5.0894,5.101,5.1087,5.1087,5.0933,5.0894,5.0856,5.0741,5.0702,5.0702,5.0702,0.0,0.0,0.0,0.0,0.0,0.0,0.0,0.0,5.4049,5.4395,5.4626,5.528,0.0,0.0,0.0,0.0,0.0,5.5703,5.578,5.5857,5.5742,5.5703,5.578,5.6049,5.6665,5.7511,5.8665,6.0012,6.1512,6.3243,6.4922,6.6665,6.8396,7.0607,7.2931,7.527,7.6532,7.7187,7.7187,7.7187,7.7187,7.7187,7.7187,7.7187,7.7187,7.7187,7.7187,7.7187,7.7184,7.7209,7.7209,7.7326,7.7209,7.6897,7.6858,7.7204,7.7974,7.8065,7.8552,7.9389,7.9401,7.9836,8.0597,8.0414,8.0752,8.1439,8.1246,8.117,8.1131,8.1131,8.0131,7.8669,7.8554,7.7515,7.6169,0.0,0.0,0.0,0.0,0.0,0.0,0.0,0.0,0.0,0.0,0.0,0.0,0.0,0.0,0.0,0.0,0.0,0.0,0.0,0.0,0.0,4.8971,4.924,4.974,5.0471,5.0625,5.0702,5.0702,5.1395,5.1741,5.1741,5.2472,5.2818,5.2779,5.2049,5.1741,5.1664,5.0971,5.0702,5.0702,5.0702,0.0,0.0,0.0,0.0,0.0,0.0,0.0,0.0,5.3356,5.3895,5.4511,5.4664,0.0,0.0,0.0,0.0,0.0,5.5703,5.6242,5.6626,5.5857,5.5703,5.6088,5.755,5.8011,5.8742,6.105,6.1704,6.2459,6.4292,6.5422,6.6923,6.9492,7.2788,7.5116,7.554,7.6532,7.7187,7.7187,7.7187,7.7187,7.7187,7.7187,7.7187,7.7187,7.7187,7.7187,7.7187,7.7184,7.7181,7.7181,7.7923,7.8274,7.8196,7.804,7.8035,7.8176,7.8728,7.9437,8.0215,8.0215,8.0703,8.1502,8.1463,8.1507,8.1662,8.1624,8.1516,8.1323,8.1323,8.0631,7.9515,7.8746,7.79,7.6976,0.0,0.0,0.0,0.0,0.0,0.0,0.0,0.0,0.0,0.0,0.0,0.0,0.0,0.0,0.0,0.0,0.0,0.0,0.0,0.0,4.8971,4.9394,4.9856,5.0279,5.0702,5.0702,5.0894,5.1356,5.1741,5.2164,5.2626,5.301,5.3203,5.3164,5.2279,5.1895,5.1856,5.1048,5.0702,5.0702,0.0,0.0,0.0,0.0,0.0,0.0,0.0,0.0,0.0,0.0,5.2779,5.328,5.4203,0.0,0.0,0.0,0.0,0.0,5.5703,5.5972,5.6434,5.6973,5.7434,5.7973,5.8781,5.9665,6.0704,6.1858,6.282,6.4037,6.5909,6.6995,6.8684,7.2041,7.4282,7.5809,7.6377,7.6878,7.7187,7.7187,7.7187,7.7187,7.7187,7.7187,7.7187,7.7187,7.7187,7.7187,7.7187,7.7656,7.789,7.789,7.8711,7.914,7.914,7.9531,7.9726,7.9726,8.0011,8.0602,8.1428,8.1428,8.1656,8.2007,8.1929,8.187,8.1866,8.1737,8.1646,8.1523,8.1427,8.0823,7.9792,7.8361,7.763,7.7169,0.0,0.0,0.0,0.0,0.0,0.0,0.0,0.0,0.0,0.0,0.0,0.0,0.0,0.0,0.0,0.0,0.0,0.0,0.0,4.8702,4.9471,4.9702,5.0317,5.0702,5.0702,5.0702,5.1202,5.2202,5.2433,5.3049,5.4087,5.3895,5.378,5.3741,5.2895,5.2395,5.2164,5.1318,5.0856,5.0702,0.0,0.0,0.0,0.0,0.0,0.0,0.0,0.0,0.0,0.0,0.0,0.0,0.0,0.0,0.0,5.5472,5.5818,5.5972,5.5742,5.6126,5.6896,5.8242,5.8896,5.9435,6.0204,6.1627,6.2805,6.2974,6.4422,6.614,6.7821,6.9467,7.1441,7.4178,7.5351,7.6249,7.7066,7.7187,7.7187,7.7187,7.7187,7.7187,7.7187,7.7187,7.7187,7.7187,7.7187,7.7305,7.75,7.8125,7.8594,7.8789,7.957,8.0,8.0,8.0859,8.1211,8.1015,8.1211,8.164,8.2304,8.2304,8.2304,8.2304,8.2148,8.207,8.2069,8.1898,8.1816,8.1728,8.1581,8.0939,7.9946,7.8515,7.7938,7.7746,0.0,0.0,0.0,0.0,0.0,0.0,0.0,0.0,0.0,0.0,0.0,0.0,0.0,0.0,0.0,0.0,0.0,0.0,0.0,4.9317,4.974,5.0548,5.0664,5.0702,5.0702,5.0702,5.1471,5.3126,5.3933,5.5126,5.6703,5.5895,5.5511,5.5472,5.4664,5.3857,5.3049,5.2202,5.1395,5.0702,5.0702,0.0,0.0,0.0,0.0,0.0,0.0,0.0,0.0,0.0,0.0,0.0,0.0,0.0,5.4664,5.5472,5.628,5.6703,5.5934,5.7434,5.9281,5.9396,5.8896,5.9204,6.232,6.3883,6.4908,6.5653,6.7281,6.8935,7.0067,7.308,7.5233,7.4687,7.6014,7.7106,7.7187,7.7187,7.7187,7.7187,7.7187,7.7187,7.7187,7.7187,7.7187,7.7187,7.7187,7.7539,7.8359,7.8476,7.8828,7.9609,8.0469,8.0898,8.0898,8.1758,8.1797,8.1015,8.1836,8.2226,8.2304,8.2304,8.2304,8.2304,8.2265,8.2265,8.2265,8.2265,8.2146,8.198,8.1972,8.1208,8.0061,7.9946,7.9754,7.9515,0.0,0.0,0.0,0.0,0.0,0.0,0.0,0.0,0.0,0.0,0.0,0.0,0.0,0.0,0.0,0.0,0.0,0.0,0.0,4.9894,5.0356,5.0702,5.0702,5.0702,5.0702,5.1702,5.3087,5.4741,5.5626,5.6357,5.6973,5.6088,5.5703,5.5665,5.4857,5.401,5.3126,5.2279,5.1433,5.0702,5.0702,5.0702,0.0,0.0,0.0,0.0,0.0,0.0,0.0,0.0,5.0894,5.1395,5.2779,5.3433,5.3972,5.528,5.6319,5.6934,5.6588,5.8072,5.9942,6.0858,6.1704,6.2666,6.3935,6.5384,6.6275,6.5624,6.6916,6.8645,7.0218,7.3442,7.5781,7.5469,7.6406,7.7187,7.7187,7.7187,7.7187,7.7187,7.7187,7.7187,7.7187,7.7187,7.7422,7.7969,7.8008,7.8359,7.9219,7.9765,8.0195,8.0508,8.1367,8.1797,8.1797,8.2148,8.2148,8.1797,8.2148,8.2304,8.2304,8.2304,8.2304,8.2304,8.2304,8.2304,8.2304,8.2304,8.2265,8.2187,8.2054,8.1952,8.1824,8.1273,8.1362,8.1662,0.0,0.0,0.0,0.0,0.0,0.0,0.0,0.0,0.0,0.0,0.0,0.0,0.0,0.0,0.0,0.0,0.0,0.0,4.9779,5.0356,5.0702,5.0702,5.0702,5.0818,5.1087,5.2741,5.4318,5.5703,5.6857,5.728,5.6973,5.6088,5.5703,5.5665,5.4857,5.401,5.3126,5.2279,5.1433,5.0702,5.0702,5.0702,0.0,0.0,0.0,0.0,0.0,0.0,0.0,0.0,5.0702,5.0971,5.2664,5.3203,5.3587,5.5549,5.6763,5.7456,5.7456,5.9056,6.0933,6.1968,6.3775,6.5408,6.5692,6.7055,6.7908,6.6683,6.8047,7.0035,7.1886,7.4445,7.6328,7.6328,7.6797,7.7187,7.7187,7.7187,7.7187,7.7187,7.7187,7.7187,7.7187,7.7461,7.7851,7.8476,7.875,7.9258,8.0078,8.0664,8.1133,8.1406,8.1992,8.2304,8.2304,8.2304,8.2304,8.2304,8.2304,8.2304,8.2304,8.2304,8.2304,8.2304,8.2304,8.2304,8.2304,8.2304,8.2461,8.2695,8.2578,8.2906,8.3426,8.2844,8.3096,8.3656,0.0,0.0,0.0,0.0,0.0,0.0,0.0,0.0,4.8086,4.8086,4.8086,0.0,0.0,0.0,0.0,0.0,0.0,0.0,5.0625,5.0702,5.0702,5.0702,5.0702,5.1087,5.1895,5.3587,5.4895,5.5703,5.7434,5.7857,5.6973,5.6088,5.5703,5.5665,5.4857,5.401,5.3126,5.2279,5.1433,5.0702,5.0702,5.0702,5.0702,0.0,0.0,0.0,0.0,0.0,0.0,0.0,5.0702,5.0971,5.2664,5.3203,5.3703,5.6242,5.7726,5.8517,5.8517,6.0519,6.2601,6.2536,6.4498,6.6665,6.7705,6.911,7.0052,6.9378,7.1405,7.3828,7.5586,7.6601,7.7187,7.7187,7.7187,7.7187,7.7187,7.7187,7.7187,7.7187,7.7187,7.7187,7.7226,7.8008,7.8515,7.8515,7.9258,8.0078,8.0976,8.1015,8.1406,8.2265,8.2304,8.2304,8.2304,8.2304,8.2304,8.2304,8.2304,8.2304,8.2304,8.2304,8.2304,8.2304,8.2304,8.2304,8.2304,8.2304,8.2812,8.3594,8.3594,8.4023,8.4609,8.4609,8.4987,8.5409,0.0,0.0,0.0,0.0,0.0,0.0,0.0,0.0,4.8086,4.8086,4.8086,0.0,0.0,0.0,0.0,0.0,0.0,0.0,5.151,5.101,5.0933,5.151,5.101,5.0818,5.1048,5.3318,5.5472,5.755,5.7434,5.7242,5.6973,5.6088,5.5395,5.4857,5.4626,5.3664,5.2279,5.201,5.1433,5.0702,5.0702,5.0702,5.0702,0.0,0.0,0.0,0.0,0.0,0.0,0.0,0.0,0.0,5.2664,5.3203,5.3703,5.6242,5.7627,5.8534,5.9226,6.1389,6.3439,6.3429,6.5914,6.8462,6.877,7.0135,7.1474,7.1975,7.3225,7.4375,7.4883,7.6211,7.7187,7.7187,7.7187,7.7187,7.7187,7.7187,7.7187,7.7187,7.7187,7.7422,7.8047,7.8359,7.8984,8.0156,8.0469,8.0976,8.1875,8.1914,8.2031,8.2304,8.2304,8.2304,8.2304,8.2304,8.2304,8.2304,8.2304,8.2304,8.2304,8.2304,8.2304,8.2304,8.2304,8.2656,8.3242,8.3867,8.4297,8.4492,8.4492,8.5,8.5742,8.5742,8.6245,8.685,0.0,0.0,0.0,0.0,0.0,0.0,4.9125,4.9125,4.9125,4.9125,4.9125,4.9125,0.0,0.0,0.0,4.9933,5.0394,5.0894,5.1395,5.0971,5.0933,5.1395,5.0971,5.0856,5.1164,5.2664,5.4395,5.628,5.6742,5.6819,5.6472,5.5626,5.4972,5.4472,5.4126,5.3203,5.1895,5.1895,5.1433,5.0702,5.0702,5.0702,5.0702,0.0,0.0,0.0,0.0,0.0,0.0,0.0,0.0,0.0,5.2664,5.3203,5.3857,5.7148,5.8534,5.9265,6.0635,6.2696,6.445,6.4099,6.6655,6.9656,7.1043,7.19,7.2666,7.3626,7.4492,7.5234,7.5586,7.6484,7.7187,7.7187,7.7187,7.7187,7.7187,7.7187,7.7344,7.7695,7.7734,7.8047,7.8906,7.9297,7.9922,8.0937,8.1328,8.1758,8.2265,8.2304,8.2304,8.2304,8.2304,8.2304,8.2304,8.2304,8.2304,8.2304,8.2304,8.2304,8.2304,8.2304,8.25,8.2851,8.3164,8.3633,8.414,8.4687,8.5117,8.5429,8.5429,8.5937,8.6719,8.6719,8.7031,8.7461,0.0,0.0,0.0,0.0,0.0,0.0,5.0702,5.0702,5.0702,5.0702,5.0702,5.0702,0.0,0.0,0.0,5.0587,5.0587,5.0625,5.0702,5.0702,5.0741,5.0818,5.0818,5.1164,5.1895,5.1972,5.2395,5.3087,5.5472,5.6242,5.5472,5.4818,5.4434,5.4241,5.351,5.2702,5.1779,5.1779,5.1356,5.0702,5.0702,5.0702,5.0702,5.0702,0.0,0.0,0.0,0.0,0.0,0.0,0.0,0.0,5.2587,5.3126,5.4049,5.8308,5.9771,6.0365,6.2175,6.4105,6.5385,6.4492,6.6863,7.029,7.3727,7.3937,7.3672,7.4648,7.5469,7.625,7.7031,7.7187,7.7187,7.7187,7.7187,7.7187,7.7187,7.7187,7.7539,7.8398,7.8515,7.8867,7.9726,8.0547,8.1015,8.1094,8.1836,8.2304,8.2304,8.2304,8.2304,8.2304,8.2304,8.2304,8.2304,8.2304,8.2304,8.2304,8.2383,8.2422,8.2422,8.2422,8.289,8.3789,8.4648,8.5039,8.5039,8.5117,8.5586,8.6328,8.6328,8.6797,8.75,8.75,8.75,8.75,0.0,0.0,0.0,0.0,0.0,0.0,5.0702,5.0702,5.0702,5.0702,5.0702,5.0702,5.0702,5.0087,0.0,4.9836,4.9817,5.0144,5.0914,5.0914,5.1125,5.1779,5.1702,5.1741,5.1895,5.2587,5.2702,5.2202,5.3395,5.3933,5.3741,5.4241,5.378,5.2472,5.2972,5.2356,5.0971,5.0971,5.0856,5.0702,5.0702,5.0702,5.0702,5.0702,5.0702,0.0,0.0,0.0,0.0,0.0,0.0,0.0,5.1856,5.2664,5.378,5.6862,5.877,6.0118,6.1443,6.357,6.525,6.4477,6.6862,7.0108,7.2957,7.3973,7.4765,7.6328,7.6797,7.6992,7.7187,7.7187,7.7187,7.7187,7.7187,7.7187,7.7187,7.7187,7.7539,7.8398,7.8515,7.9062,8.0586,8.0898,8.1289,8.1953,8.2187,8.2304,8.2304,8.2304,8.2304,8.2304,8.2304,8.2304,8.2304,8.2304,8.2304,8.2304,8.3008,8.332,8.332,8.332,8.3789,8.4687,8.5547,8.5937,8.5976,8.664,8.7031,8.7226,8.7226,8.7344,8.75,8.75,8.75,8.75,0.0,0.0,0.0,0.0,0.0,0.0,0.0,0.0,5.1337,5.0952,5.0914,5.0741,5.0317,4.9856,0.0,0.0,4.9087,4.9272,4.9775,5.0564,5.1531,5.2762,5.1972,5.1682,5.201,5.2049,5.1856,5.1318,5.1779,5.2395,5.3203,5.3241,5.2779,5.1933,5.2395,5.1895,5.0741,5.1125,5.1048,5.0702,5.0702,5.0933,5.1279,5.1279,5.1548,5.1856,5.1433,0.0,0.0,0.0,0.0,0.0,0.0,0.0,5.4534,5.723,5.9254,6.0846,6.1938,6.3819,6.5689,6.6518,6.8086,7.0195,7.3242,7.4258,7.5078,7.6836,7.7187,7.7187,7.7187,7.7187,7.7187,7.7187,7.7187,7.7187,7.7187,7.7578,7.8125,7.8984,7.9453,8.0195,8.1484,8.1601,8.1797,8.2265,8.2304,8.2304,8.2304,8.2304,8.2304,8.2304,8.2304,8.2304,8.2304,8.2695,8.2929,8.2929,8.3828,8.4453,8.4844,8.4844,8.5078,8.5586,8.6445,8.6836,8.6875,8.7304,8.75,8.75,8.75,8.75,8.75,8.75,8.75,8.75,0.0,0.0,0.0,0.0,0.0,0.0,0.0,0.0,0.0,5.1198,5.112,5.0756,4.9889,4.9697,4.9237,0.0,0.0,0.0,4.8327,4.994,5.1664,5.3314,5.2067,5.1567,5.2126,5.1472,5.101,5.0779,5.0914,5.1664,5.301,5.2241,5.1856,5.1702,5.1856,5.1548,5.0933,5.1625,5.1587,5.1125,5.1125,5.1548,5.2164,5.2279,5.2818,5.3356,5.2779,5.2472,5.2279,5.1548,0.0,0.0,0.0,0.0,5.5439,5.8122,6.0166,6.1697,6.2553,6.4062,6.6015,6.875,6.9414,7.0312,7.3828,7.4609,7.5078,7.6836,7.7187,7.7187,7.7187,7.7187,7.7187,7.7187,7.7187,7.7265,7.7383,7.8047,7.8867,7.9805,8.0547,8.1328,8.2226,8.2304,8.2304,8.2304,8.2304,8.2304,8.2304,8.2304,8.2304,8.2304,8.2304,8.2383,8.2539,8.3242,8.3672,8.3828,8.4726,8.5586,8.6406,8.6406,8.6406,8.6445,8.7187,8.75,8.75,8.75,8.75,8.75,8.75,8.75,8.75,8.75,8.75,8.75,0.0,0.0,0.0,0.0,0.0,0.0,0.0,0.0,0.0,0.0,5.112,5.0759,4.9893,4.9116,4.836,4.7626,4.7563,4.761,4.7725,0.0,0.0,5.2425,5.2247,5.2197,5.2251,5.2159,5.1759,5.1068,5.1742,5.2165,5.2241,5.201,5.1548,5.0894,5.1587,5.1856,5.1741,5.1856,5.2279,5.2856,5.2856,5.2933,5.3126,5.3857,5.4241,5.4395,5.4972,5.4818,5.4185,5.3356,5.263,0.0,0.0,0.0,5.5462,5.816,6.0169,6.1542,6.1811,6.3164,6.5273,6.8633,6.9492,7.039,7.3828,7.4609,7.5078,7.6836,7.7187,7.7187,7.7187,7.7187,7.7187,7.7187,7.7187,7.7461,7.8203,7.8437,7.9062,8.0625,8.0937,8.1328,8.2226,8.2304,8.2304,8.2304,8.2304,8.2304,8.2304,8.2304,8.2304,8.2304,8.2304,8.2656,8.3437,8.3554,8.3984,8.4726,8.5625,8.6484,8.7344,8.7344,8.7344,8.7344,8.7461,8.75,8.75,8.75,8.75,8.75,8.75,8.75,8.75,8.75,8.75,8.75,0.0,0.0,0.0,0.0,0.0,0.0,0.0,0.0,0.0,0.0,0.0,5.0742,4.9454,4.8942,4.841,4.7579,4.7517,4.8137,4.9648,4.9961,5.1052,5.3166,5.2308,5.1991,5.2416,5.2426,5.2191,5.1784,5.2613,5.3,5.2947,5.2877,5.2318,5.1356,5.1279,5.1471,5.1933,5.2433,5.3126,5.3972,5.4434,5.5224,5.6169,5.6053,5.6648,5.7495,5.6934,5.6511,5.6126,5.5343,5.4859,5.4671,5.5152,0.0,0.0,0.0,6.0291,6.1924,6.3471,6.4101,6.5234,6.918,6.9805,7.0234,7.3203,7.4258,7.4961,7.6211,7.6875,7.7187,7.7187,7.7187,7.7187,7.7187,7.7187,7.75,7.8398,7.8906,7.9648,8.0859,8.1445,8.1875,8.2265,8.2304,8.2304,8.2304,8.2304,8.2304,8.2304,8.2304,8.2304,8.2304,8.2773,8.3203,8.3594,8.457,8.5508,8.6367,8.6758,8.7148,8.75,8.75,8.75,8.75,8.75,8.75,8.75,8.75,8.75,8.75,8.75,8.75,8.75,8.75,8.75,8.75,0.0,0.0,0.0,0.0,0.0,0.0,0.0,0.0,0.0,0.0,0.0,5.125,5.0,0.0,0.0,0.0,4.8047,4.8828,5.0976,5.0312,5.082,5.293,5.1562,5.1211,5.2187,5.2226,5.237,5.2746,5.3399,5.3799,5.3984,5.3756,5.3321,5.2622,5.1549,5.1356,5.1972,5.3087,5.401,5.4934,5.6225,5.7593,5.8792,5.8626,5.9437,6.0519,5.9244,5.8659,5.8357,5.7366,5.6923,5.6848,5.7171,5.8164,0.0,0.0,0.0,6.2187,6.4336,6.4648,6.5156,6.8828,6.957,7.0039,7.2422,7.3828,7.4844,7.5703,7.6601,7.7187,7.7187,7.7187,7.7187,7.7187,7.7187,7.7578,7.8633,7.9336,8.0117,8.1211,8.1914,8.2304,8.2304,8.2304,8.2304,8.2304,8.2304,8.2304,8.2304,8.2304,8.2383,8.2617,8.3242,8.3828,8.4258,8.5781,8.6875,8.75,8.75,8.75,8.75,8.75,8.75,8.75,8.75,8.75,8.75,8.75,8.75,8.75,8.75,8.75,8.75,8.75,8.7617,8.7812,0.0,0.0,0.0,0.0,0.0,0.0,0.0,0.0,0.0,0.0,0.0,5.2617,5.25,5.1094,5.0117,5.0078,4.9297,4.9258,5.0195,4.9453,4.9414,5.0351,4.9531,0.0,5.1406,5.1445,5.2265,5.3906,5.3975,5.4344,5.5006,5.4199,5.4121,5.4669,5.2829,5.1991,5.201,5.3703,5.4895,5.5857,5.8517,5.9656,5.9914,6.1652,6.2363,6.2441,6.2367,6.1884,6.1035,5.9335,5.835,5.7967,5.8789,5.914,5.9492,0.0,0.0,0.0,6.2851,6.3711,6.4765,6.664,6.8242,6.9883,7.164,7.3398,7.4844,7.5703,7.6601,7.7187,7.7187,7.7187,7.7187,7.7187,7.7187,7.7773,7.9414,7.9687,8.0312,8.2031,8.2265,8.2304,8.2304,8.2304,8.2304,8.2304,8.2304,8.2304,8.2304,8.2304,8.2695,8.3515,8.3594,8.4375,8.6054,8.6953,8.7461,8.75,8.75,8.75,8.75,8.75,8.75,8.75,8.75,8.75,8.75,8.75,8.75,8.75,8.75,8.75,8.75,8.75,8.7969,8.8633,0.0,0.0,0.0,0.0,0.0,0.0,0.0,0.0,0.0,0.0,0.0,0.0,0.0,5.2148,5.1562,5.1016,5.0664,5.0625,5.0937,5.0664,5.0625,5.0976,5.0664,5.1055,5.2226,5.2773,5.3359,5.3984,5.456,5.4662,5.4389,5.4066,5.3728,5.3319,5.2558,5.2531,5.3109,5.4706,5.5955,5.7066,6.0173,6.1851,6.2629,6.3303,6.3962,6.4466,6.3876,0.0,6.2383,6.1759,6.1017,6.039,6.0703,6.0781,6.0937,6.1523,6.1719,6.1992,6.3437,6.4062,6.4844,6.7148,6.8594,6.9765,7.0898,7.25,7.4023,7.4883,7.5742,7.6523,7.7109,7.7187,7.7187,7.7187,7.7187,7.7617,7.8789,7.9375,8.0156,8.1328,8.1953,8.2304,8.2304,8.2304,8.2304,8.2304,8.2304,8.2304,8.2304,8.2304,8.2695,8.3554,8.414,8.5273,8.7031,8.7344,8.75,8.75,8.75,8.75,8.75,8.75,8.75,8.75,8.75,8.75,8.75,8.75,8.75,8.75,8.75,8.7812,8.8281,8.8281,8.8828,8.9531,0.0,0.0,0.0,0.0,0.0,0.0,0.0,0.0,5.5547,5.4961,0.0,0.0,0.0,0.0,5.2891,5.2305,5.1992,5.1836,5.1836,5.1328,5.1016,5.1016,5.043,5.0781,5.2226,5.2266,5.2851,5.3984,5.3984,5.3984,5.3984,5.3711,5.3347,5.298,5.2919,5.2962,5.3265,5.52,5.656,5.7703,6.1405,6.3199,6.3731,6.4343,6.5026,6.5508,0.0,0.0,0.0,6.3555,6.3047,6.2539,6.2226,6.1953,6.1719,6.1719,6.1719,6.1953,6.3125,6.3633,6.4336,6.6367,6.8008,6.9258,7.0078,7.1836,7.3555,7.4414,7.5273,7.6172,7.7031,7.7187,7.7187,7.7187,7.7187,7.75,7.8398,7.8945,7.9726,8.0859,8.1523,8.1992,8.2265,8.2304,8.2304,8.2304,8.2304,8.2304,8.2304,8.2578,8.3281,8.4453,8.5312,8.6328,8.75,8.75,8.75,8.75,8.75,8.75,8.75,8.75,8.75,8.75,8.75,8.75,8.75,8.75,8.7656,8.789,8.789,8.8398,8.914,8.914,8.9687,9.0429,0.0,0.0,0.0,0.0,0.0,0.0,5.6601,5.6601,5.6601,5.6601,0.0,0.0,0.0,0.0,0.0,5.4023,5.3242,5.2734,5.2734,5.1211,5.0312,5.0312,4.8672,4.8906,5.1406,4.9844,5.0625,5.3945,5.2305,5.2344,5.3945,5.3086,5.3164,5.3984,5.3984,5.3373,5.2592,5.5181,5.6717,5.7811,6.2259,6.3569,6.3068,6.4905,6.5625,0.0,6.4726,6.4961,0.0,6.4687,0.0,6.414,6.3281,6.2422,6.1758,6.1758,6.1719,6.1719,0.0,0.0,0.0,6.4062,6.6289,6.8398,6.918,7.1406,7.3515,7.4336,7.5273,7.6172,7.6992,7.7187,7.7187,7.7187,7.7187,7.75,7.8359,7.8476,7.9101,8.0742,8.0976,8.1328,8.2187,8.2265,8.2304,8.2304,8.2304,8.2304,8.2304,8.3164,8.4414,8.6133,8.7031,8.75,8.75,8.75,8.75,8.75,8.75,8.75,8.75,8.75,8.75,8.75,8.7539,8.7539,8.7539,8.7539,8.8008,8.875,8.875,8.9258,9.0039,9.0039,9.0586,9.1328,0.0,0.0,0.0,0.0,0.0,5.5859,5.6484,5.6601,5.6601,0.0,0.0,0.0,5.6562,5.5625,5.4922,5.4922,5.4141,5.3633,5.3633,5.3203,5.2969,5.2969,5.1875,5.1914,5.3242,5.2226,5.2109,5.3047,5.3203,5.3203,5.3047,5.2812,5.3164,5.3984,5.3359,5.3943,5.5494,5.6705,5.7434,5.8077,6.1717,6.3447,0.0,0.0,0.0,0.0,0.0,6.7265,6.7422,0.0,6.5859,6.414,6.3281,6.2812,6.2656,6.2656,6.2187,6.1719,6.1719,0.0,0.0,0.0,0.0,0.0,0.0,7.1015,7.3203,7.2812,7.4414,7.5976,7.6211,7.6758,7.7187,7.7187,7.7187,7.7265,7.7539,7.8086,7.8672,7.914,8.0273,8.1094,8.1328,8.1914,8.2304,0.0,8.2304,8.2304,8.2304,8.3711,8.5039,8.6172,8.7031,8.75,8.75,8.75,8.75,8.75,8.75,8.75,8.75,8.75,8.75,8.7539,8.8125,8.8359,8.8359,8.8359,8.8867,8.9648,8.9648,9.0156,9.0937,9.0937,9.1484,9.2226,0.0,0.0,5.6015,5.6523,5.6484,5.6562,5.707,5.7461,5.7695,0.0,0.0,0.0,5.7187,5.668,5.625,5.5859,5.5039,5.4531,5.4531,5.4219,5.3984,5.3984,5.3164,5.293,5.3437,5.2617,5.2344,5.2695,5.3203,5.3398,5.3242,5.3242,5.3516,5.3984,5.3867,5.4844,5.6719,5.8164,5.8828,0.0,6.2221,0.0,0.0,6.5664,6.6992,0.0,0.0,0.0,6.8242,6.8633,6.7265,0.0,0.0,6.3867,6.3008,6.3008,6.2383,6.1719,6.1719,6.207,6.2656,6.3555,0.0,0.0,6.8125,7.0859,7.3242,7.3125,7.4609,7.6133,7.6836,7.7109,7.7305,7.7695,7.7422,7.7187,7.7187,7.7656,7.8086,7.8476,7.9375,8.0234,8.0937,8.1445,8.1914,8.2265,8.2304,8.2617,8.3359,8.4336,8.5469,8.6719,8.7226,8.75,8.75,8.75,8.75,8.75,8.75,8.75,8.75,8.75,8.7695,8.8047,8.8515,8.9101,8.9765,8.9765,9.0078,9.0547,9.0547,9.1054,9.1836,9.1836,9.2148,9.2617,0.0,0.0,5.6523,5.6719,5.7305,5.7812,5.8008,5.8711,5.9219,0.0,5.9219,5.8906,5.8125,5.8047,5.7734,5.6953,5.6172,5.5703,5.5586,5.4844,5.4375,5.4297,5.3437,5.3008,5.3008,5.2148,5.207,5.2851,5.293,5.3398,5.4141,5.4141,5.4219,5.4336,5.5117,5.5976,5.7031,5.9414,6.0508,6.0898,6.3437,6.4453,0.0,0.0,6.7656,0.0,6.8476,6.8555,6.8711,6.918,6.8437,0.0,0.0,0.0,6.3555,6.3359,6.2656,6.1953,6.1758,6.1719,6.1914,6.2773,6.4883,0.0,6.7851,7.0703,7.3359,7.4023,7.5078,7.6328,7.7812,7.7578,7.75,7.8359,7.7851,7.7305,7.7226,7.7187,7.75,7.8242,7.8437,7.9101,8.0586,8.0898,8.1328,8.2109,8.2265,8.3047,8.4804,8.4883,8.5703,8.7422,8.75,8.75,8.75,8.75,8.75,8.75,8.75,8.7539,8.7617,8.7617,8.8086,8.8867,8.8945,8.9883,9.1328,9.1406,9.1445,9.1445,9.1445,9.1914,9.2617,9.2617,9.2617,9.2617,5.6601,5.6055,5.6015,5.7383,5.7226,5.7344,5.8711,5.9101,5.9219,5.9219,5.9219,5.914,5.8945,5.8945,5.8867,5.8711,5.8555,5.8125,5.7422,5.7226,5.6836,5.6133,5.5273,5.4805,5.4805,5.3945,5.3594,5.375,5.4453,5.4883,5.5039,5.5039,5.543,5.6094,5.6289,5.7226,5.8789,5.9922,6.1211,6.2656,6.457,0.0,6.5547,6.7265,6.8906,7.0195,7.0195,7.0664,7.0976,0.0,6.9101,6.9609,0.0,0.0,0.0,6.5508,6.4492,6.3476,6.207,6.1719,6.1914,6.2773,0.0,0.0,6.6953,6.9805,7.2109,0.0,7.3828,7.5781,7.543,7.6367,7.75,7.8359,7.8359,7.8008,7.7305,7.7187,7.7265,7.7422,7.8086,7.8633,7.8945,8.0195,8.1054,8.125,8.1914,8.3047,8.4804,8.4883,8.5703,8.7422,8.75,8.75,8.75,8.75,8.75,8.75,8.75,8.7851,8.8476,8.8476,8.8945,8.9804,9.0508,9.0976,9.1367,9.207,9.2344,9.2344,9.2344,9.2461,9.2617,9.2617,9.2617,9.2617,5.6601,5.6601,5.6875,5.7734,5.8242,5.8789,5.9687,6.0156,6.0469,6.0469,6.0469,6.0273,5.9844,5.9805,5.9648,5.9258,5.9219,5.9023,5.8594,5.8555,5.8164,5.7305,5.6836,5.6172,5.5312,5.5312,5.5078,5.4648,5.5508,5.5937,5.5937,5.5937,5.6875,5.8476,5.7617,5.8906,6.1758,6.1719,6.2695,6.4375,6.5234,0.0,6.7148,6.9297,7.0898,7.2031,7.25,7.2656,7.2305,7.0156,7.0273,0.0,0.0,6.8476,6.8476,0.0,6.5625,6.4648,6.3359,6.3008,6.289,6.2461,0.0,0.0,0.0,6.9219,7.1758,7.0898,7.3125,7.5234,7.5234,7.5976,7.6836,7.7695,7.8203,7.8203,7.7305,7.7578,7.7695,7.7265,7.7578,7.8008,7.8476,7.9258,8.0117,8.0937,8.1797,8.2851,8.4179,8.4648,8.5508,8.6797,8.7265,8.75,8.75,8.75,8.75,8.75,8.75,8.7929,8.8711,8.8711,8.9414,9.0664,9.1094,9.1562,9.1992,9.2422,9.2617,9.2617,9.2617,9.2617,9.2617,9.2617,9.2617,9.2617,5.668,5.7305,5.7969,5.8125,5.9414,6.0469,6.0625,6.125,6.1719,6.1719,6.1836,6.168,6.0976,6.1055,6.0898,6.0234,6.0195,6.0039,5.9687,5.9687,5.9297,5.8437,5.8242,5.75,5.6094,5.6562,5.6406,5.5547,5.625,5.6601,5.6601,5.6601,5.7773,5.9883,5.9023,6.0469,6.3555,6.3515,0.0,6.5625,0.0,6.7226,6.918,7.1406,7.2773,7.3633,7.414,7.3906,7.3125,7.1875,7.1914,7.2265,7.0898,7.043,0.0,0.0,0.0,0.0,0.0,0.0,0.0,0.0,0.0,6.6797,0.0,0.0,0.0,0.0,0.0,0.0,0.0,0.0,0.0,7.6601,0.0,0.0,0.0,7.7617,0.0,7.7539,7.7305,7.7461,7.8164,7.8867,7.9726,8.0898,8.2109,8.3047,8.3554,8.4414,8.5312,8.6172,8.7031,8.75,8.75,8.75,8.75,8.75,8.7656,8.8164,8.8945,8.9101,9.0078,9.1562,9.1562,9.1953,9.2617,9.2617,9.2617,9.2617,9.2617,9.2617,9.2617,9.2617,9.2617,9.2617,5.6914,5.7305,5.8125,5.8906,5.9805,6.0664,6.1445,6.164,6.1719,6.1719,6.2383,6.2812,6.2734,6.3398,6.3828,6.3711,6.3711,6.3047,6.1523,6.1406,6.1015,6.0156,5.9414,5.8945,5.875,5.8086,5.7344,5.6445,5.6562,5.6601,5.6601,5.6601,5.7187,5.8281,6.0351,6.1094,6.1055,6.4023,6.543,0.0,6.7265,6.9375,0.0,7.2734,7.3672,7.4375,7.3672,7.3398,7.3398,0.0,7.4219,7.4258,0.0,7.4023,7.3515,7.1015,0.0,0.0,0.0,0.0,0.0,0.0,6.6055,0.0,0.0,0.0,0.0,7.1719,0.0,0.0,0.0,0.0,0.0,0.0,0.0,0.0,0.0,0.0,0.0,7.8359,7.7656,7.7226,7.7344,8.0078,8.164,8.1054,8.3242,8.4297,8.3633,8.4414,8.5312,8.6172,8.7031,8.75,8.75,8.75,8.75,8.75,8.8203,8.9023,8.9883,9.0664,9.1523,9.2461,9.2461,9.25,9.2617,9.2617,9.2617,9.2617,9.2617,9.2617,9.2617,9.2617,9.2617,9.2617,5.8242,5.8789,5.9453,5.9844,6.0586,6.1289,6.164,6.1719,6.1719,6.1719,6.2461,6.3008,6.3008,6.3789,6.4297,6.4297,0.0,6.3789,0.0,0.0,6.2383,6.0469,6.0547,6.0195,5.9219,5.8359,5.7734,5.7344,5.6836,5.6601,5.6601,5.7109,5.8359,6.0156,6.1758,6.3359,6.5039,6.6484,6.7969,0.0,0.0,0.0,0.0,7.4297,7.4922,7.5976,7.5117,7.5117,7.5469,0.0,7.5625,0.0,0.0,0.0,0.0,7.2969,0.0,0.0,0.0,0.0,0.0,0.0,0.0,0.0,6.875,0.0,7.0664,0.0,0.0,0.0,0.0,0.0,0.0,0.0,7.6055,0.0,0.0,0.0,0.0,0.0,0.0,0.0,7.8008,7.9687,8.0625,8.0273,8.2187,8.3242,8.2851,8.414,8.5078,8.5429,8.6797,8.75,8.75,8.75,8.7734,8.8203,8.8554,8.9414,9.0781,9.1133,9.1797,9.2617,9.2617,9.2617,9.2617,9.2617,9.2617,9.2617,9.2617,9.2617,9.2617,9.2617,9.2617,9.2617,5.9883,6.0156,6.039,6.039,6.1133,6.1719,6.1719,6.1719,6.1797,6.2031,6.2812,6.3437,6.3672,6.4687,0.0,0.0,6.5586,6.5351,0.0,0.0,6.4531,6.2617,6.2695,0.0,6.0976,5.9883,5.9062,5.8594,5.7734,5.7305,5.7305,5.7734,5.9258,6.1758,6.2617,6.4687,6.7539,0.0,6.9531,7.1719,7.2578,7.4492,7.6719,7.5703,7.5937,7.6758,7.6133,7.6328,7.6719,7.5937,7.6914,0.0,7.5781,0.0,7.7459,0.0,0.0,0.0,7.2888,0.0,0.0,0.0,0.0,0.0,0.0,0.0,0.0,0.0,0.0,0.0,0.0,0.0,7.3672,7.2969,0.0,7.5547,0.0,0.0,0.0,0.0,0.0,0.0,0.0,7.9648,8.0195,7.9726,0.0,8.2695,8.1992,8.3594,8.4648,8.4883,8.6367,8.7265,8.75,8.75,8.789,8.8711,8.8945,8.9844,9.1328,9.1562,9.1992,9.2617,9.2617,9.2617,9.2617,9.2617,9.2617,9.2617,9.2617,9.2617,9.2617,9.2617,9.2617,9.2617,6.1601,6.0976,6.039,6.039,6.1133,6.1719,6.1719,6.1719,6.1992,6.2851,0.0,0.0,0.0,0.0,0.0,0.0,0.0,6.8945,6.8086,0.0,6.8047,0.0,0.0,6.5469,0.0,6.3711,6.1992,6.0312,5.9492,5.9101,5.9101,5.8281,5.9258,6.1758,6.2617,6.3984,6.5781,6.7461,6.918,7.082,7.168,7.3594,7.6015,0.0,7.664,7.5937,7.5898,0.0,0.0,7.7812,7.8437,0.0,0.0,0.0,0.0,0.0,0.0,0.0,0.0,0.0,0.0,7.2901,0.0,0.0,0.0,0.0,7.3203,0.0,0.0,0.0,0.0,7.2031,7.1289,6.8828,7.0508,0.0,0.0,0.0,0.0,0.0,0.0,0.0,0.0,0.0,0.0,0.0,8.289,8.3711,8.1172,8.2695,8.4023,8.4883,8.5781,8.664,8.75,8.75,8.789,8.8711,8.957,9.0429,9.1328,9.2187,9.2578,9.2617,9.2617,9.2617,9.2617,9.2617,9.2617,9.2617,9.2617,9.2617,9.2617,9.2617,9.2617,9.2617,6.1719,6.1445,6.125,6.125,6.1484,6.1719,6.1719,6.2187,0.0,0.0,0.0,0.0,0.0,0.0,6.9023,0.0,0.0,6.9062,6.8242,6.8711,0.0,0.0,0.0,6.6445,0.0,0.0,6.2695,6.2109,6.0703,6.0,6.0,6.0273,6.0859,6.1797,6.3828,6.5703,0.0,0.0,0.0,0.0,0.0,7.7148,7.8398,0.0,0.0,7.6758,7.6758,7.7148,0.0,7.7656,7.8398,7.9134,7.8163,7.8612,7.9269,7.8202,7.7923,7.7872,0.0,0.0,7.64,7.6322,0.0,0.0,0.0,0.0,0.0,0.0,0.0,0.0,0.0,7.4101,7.4101,7.2656,7.2656,7.2773,0.0,0.0,0.0,0.0,0.0,0.0,0.0,0.0,0.0,0.0,8.1328,0.0,8.1054,8.2656,8.3984,8.4883,8.5742,8.6601,8.75,8.75,8.8203,8.957,8.9844,9.0742,9.2187,9.2461,9.2617,9.2617,9.2617,9.2617,9.2617,9.2617,9.2617,9.2617,9.2617,9.2617,9.2617,9.2617,9.2617,9.2617,6.1719,6.1719,6.1719,6.1719,6.1719,6.1797,0.0,0.0,0.0,0.0,6.6758,0.0,6.8984,0.0,7.0781,0.0,7.1094,7.1172,7.0937,7.0859,0.0,7.0508,6.9062,0.0,0.0,0.0,6.4375,6.4375,6.2031,6.0859,6.0859,6.1445,6.2031,6.2695,6.4375,6.6445,6.8672,6.9219,7.1445,0.0,0.0,7.9258,0.0,0.0,7.8867,7.8008,0.0,7.7578,7.7928,7.7294,7.8018,7.8948,7.7677,7.8398,7.9605,7.8851,7.9005,7.9446,7.9477,7.9131,0.0,7.8347,7.824,0.0,7.777,0.0,0.0,0.0,0.0,0.0,0.0,7.4757,7.4687,7.4101,7.3633,7.3515,0.0,7.414,0.0,0.0,0.0,0.0,0.0,0.0,0.0,0.0,0.0,0.0,0.0,8.2187,8.3672,8.4844,8.5429,8.6328,8.75,8.75,8.8359,9.0,9.0,9.0898,9.2617,9.2617,9.2617,9.2617,9.2617,9.2617,9.2617,9.2617,9.2617,9.2617,9.2617,9.2617,9.2617,9.2617,9.2617,9.2617,6.1719,6.1719,6.1719,6.1758,6.1797,6.2109,0.0,0.0,6.5117,0.0,6.8555,6.9961,7.0781,7.2383,7.3359,7.3359,7.4101,0.0,7.5781,7.4297,0.0,0.0,7.2148,7.1172,7.2109,0.0,0.0,0.0,6.3555,6.1875,6.1836,6.1875,6.2773,6.4375,6.4414,6.6289,6.9453,6.9531,7.1562,7.5039,7.8398,7.9765,7.9844,8.0662,8.0465,7.9528,7.7851,7.7226,7.7161,7.6947,7.7429,7.8073,7.7873,7.8912,8.023,8.0085,8.0046,8.0092,8.0138,7.9523,7.8946,7.9146,7.9223,0.0,0.0,0.0,7.7921,0.0,0.0,0.0,0.0,0.0,7.3319,7.3242,7.3359,7.3398,0.0,0.0,0.0,0.0,0.0,0.0,0.0,0.0,0.0,0.0,0.0,0.0,0.0,0.0,8.3086,8.4844,8.4883,8.5742,8.7461,8.75,8.8359,9.0,9.0,9.0898,9.2617,9.2617,9.2617,9.2617,9.2617,9.2617,9.2617,9.2617,9.2617,9.2617,9.2617,9.2617,9.2617,9.2617,9.2617,9.2617,6.1719,6.1719,6.1914,6.2539,6.3203,6.3711,0.0,0.0,0.0,0.0,7.0664,7.1914,7.3437,7.3984,7.4258,7.4258,7.4453,0.0,0.0,0.0,0.0,7.5547,7.3047,7.2383,7.3906,6.9961,0.0,6.7851,6.5664,6.4258,6.3633,6.4297,6.4844,6.5273,6.5937,6.7773,7.0351,7.039,7.2773,7.6758,7.9531,8.0664,8.0661,0.0,8.0632,8.0239,7.8708,7.7658,7.6969,7.6889,7.6967,7.6958,7.6765,7.7456,7.84,7.8784,7.9361,8.0015,8.0669,8.0669,8.0516,8.0592,8.0708,8.0777,0.0,0.0,0.0,0.0,0.0,0.0,0.0,0.0,0.0,7.6905,7.5898,0.0,0.0,0.0,0.0,0.0,0.0,0.0,0.0,0.0,0.0,0.0,0.0,0.0,0.0,0.0,0.0,8.4844,8.4883,8.5742,8.7461,8.75,8.8359,9.0,9.0,9.0898,9.2617,9.2617,9.2617,9.2617,9.2617,9.2617,9.2617,9.2617,9.2617,9.2617,9.2617,9.2617,9.2617,9.2617,9.2617,9.2617,6.2851,6.2851,6.3125,6.3984,6.5508,0.0,6.6055,0.0,0.0,7.1601,7.293,0.0,7.5078,7.5859,7.6289,7.6289,7.664,0.0,0.0,0.0,0.0,7.6445,7.4336,7.3789,7.5156,7.1328,0.0,6.9844,0.0,6.5351,6.4883,6.5351,6.5781,6.6211,6.707,6.8867,7.1367,7.289,7.539,7.8437,8.0183,8.1091,0.0,8.1187,8.0652,7.9981,7.9929,7.8802,7.7326,7.7631,7.74,7.7053,7.7207,7.7861,7.8631,7.8977,7.9708,8.0477,8.0977,8.1093,8.1093,8.1093,8.117,8.1246,8.1246,8.0977,8.0669,0.0,7.9939,7.9485,0.0,0.0,0.0,0.0,0.0,0.0,0.0,0.0,0.0,0.0,0.0,0.0,0.0,0.0,0.0,0.0,0.0,0.0,0.0,0.0,0.0,8.4844,8.4883,8.5742,8.7461,8.75,8.8359,9.0,9.0,9.0898,9.2617,9.2617,9.2617,9.2617,9.2617,9.2617,9.2617,9.2617,9.2617,9.2617,9.2617,9.2812,9.3164,9.3164,9.3164,9.3164,6.4648,6.4726,6.5078,6.5937,6.8164,0.0,0.0,7.0273,0.0,7.3437,0.0,7.6094,7.6211,7.7695,7.8672,7.8672,0.0,7.9687,7.9687,7.8359,7.7539,7.7539,7.5859,7.5351,7.6211,7.2812,0.0,0.0,0.0,6.6211,6.6094,6.6211,6.668,6.7461,6.8555,7.0425,7.3022,7.6267,7.8461,7.9864,8.0545,8.1261,8.1955,8.185,8.081,7.9623,8.1215,8.0061,7.7912,7.8833,7.8592,7.8015,7.8631,7.9361,7.9977,8.0092,8.0669,8.1285,8.14,8.1439,8.1439,8.1439,8.1439,8.1439,8.1439,8.1439,8.14,8.1285,8.0669,8.0323,0.0,0.0,0.0,0.0,0.0,0.0,0.0,0.0,0.0,0.0,0.0,0.0,0.0,0.0,0.0,0.0,0.0,0.0,0.0,0.0,0.0,8.4804,8.4883,8.5781,8.7656,8.7656,8.8515,9.0156,9.0156,9.1015,9.2617,9.2617,9.2617,9.2617,9.2617,9.2617,9.2617,9.2617,9.2656,9.2773,9.2773,9.3281,9.4062,9.4062,9.414,9.4219,6.6445,6.7031,6.7773,6.8594,0.0,7.1992,7.3281,7.3711,7.4297,7.5312,7.6328,7.7265,7.7969,7.8906,7.9492,7.9492,7.9609,0.0,0.0,0.0,0.0,7.9258,7.7656,7.7148,7.8047,7.4648,7.2578,0.0,0.0,6.9453,6.8828,6.9492,6.9883,7.0156,7.2461,7.4792,7.7177,7.9198,0.0,8.0364,8.1204,8.1639,8.1816,8.2246,8.1831,8.1093,8.19,8.0222,7.7957,8.02,8.0254,7.9554,8.0362,8.0746,8.1016,8.167,8.1977,8.2247,8.2978,8.317,8.317,8.317,8.317,8.317,8.317,8.317,8.2939,8.2247,8.1977,8.1708,8.1208,0.0,0.0,0.0,0.0,0.0,0.0,0.0,0.0,0.0,0.0,0.0,0.0,0.0,0.0,0.0,0.0,0.0,0.0,0.0,0.0,0.0,8.4883,0.0,0.0,0.0,8.9375,9.1054,9.1054,9.1601,9.2617,9.2617,9.2617,9.2617,9.2617,9.2617,9.2617,9.2617,9.3008,9.3672,9.3672,9.4219,9.4961,9.4961,9.5429,9.5937,6.8945,0.0,0.0,0.0,0.0,0.0,0.0,7.668,0.0,7.7265,7.7969,7.8672,7.9062,7.9883,8.0351,8.0351,8.0781,8.0859,8.039,8.0351,8.0156,7.9726,7.8945,0.0,7.9101,7.664,7.5351,7.5351,0.0,7.2773,7.2812,7.2734,7.2969,7.3476,7.5519,7.7052,7.8192,7.9869,0.0,8.0493,8.1228,8.1787,8.217,8.2362,8.2208,8.2016,8.3208,8.1823,7.9592,8.083,8.0631,7.9939,8.0823,8.14,8.1785,8.217,8.2285,8.2401,8.2824,8.2939,8.2939,8.2939,8.3247,8.3593,8.3593,8.3593,8.3478,8.3054,8.2978,8.2708,8.1862,8.2631,0.0,0.0,0.0,0.0,0.0,0.0,0.0,0.0,0.0,0.0,0.0,0.0,0.0,0.0,0.0,0.0,0.0,0.0,0.0,0.0,0.0,0.0,0.0,0.0,8.9336,9.0625,9.1094,9.1758,9.2617,9.2617,9.2617,9.2617,9.2617,9.2617,9.2656,9.3086,9.3789,9.457,9.457,9.5117,9.5859,9.5859,9.6406,9.6992,0.0,7.2383,0.0,0.0,7.5547,0.0,7.7617,7.9023,7.9687,7.8867,7.9453,7.9961,7.9961,8.0742,8.1289,8.1289,8.1914,8.1992,8.1328,8.1289,8.0976,8.0273,8.0078,7.9961,7.9961,7.8515,7.7969,0.0,0.0,7.539,7.5351,7.539,7.5968,7.6958,7.7945,7.85,0.0,0.0,8.0592,8.0631,8.1323,8.1977,8.2554,8.2785,8.2631,8.2516,8.4055,8.3093,8.1093,8.1093,8.0746,8.0477,8.1362,8.2054,8.2593,8.2593,8.2593,8.2631,8.2785,8.2862,8.2939,8.3285,8.3747,8.417,8.4362,8.4247,8.4093,8.3901,8.3708,8.3324,8.2439,8.3555,0.0,0.0,0.0,0.0,0.0,0.0,0.0,0.0,0.0,0.0,0.0,0.0,0.0,0.0,8.0547,0.0,8.125,0.0,0.0,0.0,0.0,8.6094,8.8008,0.0,8.9414,9.0273,9.1172,9.1953,9.2617,9.2617,9.2617,9.2617,9.2617,9.2695,9.2929,9.3828,9.4687,9.5469,9.5469,9.6015,9.6758,9.6758,9.7148,9.7617,0.0,0.0,0.0,0.0,0.0,0.0,7.9453,8.0273,8.0586,7.9687,8.0351,8.0898,8.0898,8.164,8.2187,8.2187,8.2265,8.2265,8.2187,8.2187,8.2148,8.207,8.1289,8.0898,8.0898,7.9961,7.914,0.0,0.0,7.6562,7.3594,7.668,7.8886,8.0193,7.9584,0.0,0.0,8.1246,8.1208,8.1093,8.19,8.2247,8.2516,8.4055,8.367,8.2401,8.3362,8.2593,8.1093,8.1093,8.1516,8.2208,8.3093,8.3401,8.3478,8.3478,8.3478,8.3632,8.4439,8.467,8.5016,8.6555,8.6401,8.6055,8.6863,8.644,8.567,8.4939,8.4132,8.3324,8.2439,8.2439,8.3016,0.0,0.0,0.0,0.0,0.0,0.0,0.0,0.0,0.0,0.0,0.0,0.0,0.0,8.164,0.0,0.0,0.0,0.0,8.6015,0.0,8.7265,8.9726,8.9844,9.0312,9.1172,9.207,9.2539,9.2617,9.2617,9.2617,9.2617,9.2617,9.3047,9.3867,9.4726,9.5586,9.6367,9.6367,9.6875,9.7578,9.7578,9.7656,9.7695,0.0,0.0,0.0,0.0,0.0,0.0,0.0,8.0865,8.1294,8.0943,8.1426,8.1797,8.1797,8.2109,8.2304,8.2304,8.2304,8.2304,8.2304,8.2304,8.2304,8.2304,8.1953,8.1797,8.1797,8.0937,8.0537,0.0,0.0,0.0,7.9349,8.0708,8.133,8.1281,8.08,8.09,8.1362,8.1246,8.1439,8.1862,8.217,8.2939,8.3939,8.4632,8.4478,8.3901,8.4247,8.3593,8.2593,8.2593,8.2131,8.1708,8.2554,8.317,8.3785,8.4824,8.4747,8.467,8.6017,8.567,8.5286,8.6978,8.7132,8.7094,8.7979,8.7902,8.7401,8.6555,8.5709,8.467,8.3324,8.3901,8.417,8.2824,0.0,0.0,0.0,0.0,0.0,0.0,0.0,0.0,0.0,0.0,0.0,0.0,0.0,0.0,0.0,0.0,0.0,8.6953,0.0,8.7422,8.9961,9.0,9.0429,9.1328,9.2187,9.2617,9.2617,9.2617,9.289,9.3398,9.3398,9.4179,9.5508,9.5859,9.6484,9.7226,9.7226,9.7422,9.7695,9.7695,9.7695,9.7695,7.9299,0.0,7.9709,0.0,8.0318,8.0766,8.0766,8.131,8.1718,8.1718,8.1948,8.2109,8.2115,8.2182,8.2226,8.2226,8.2265,8.2304,8.2304,8.2304,8.2304,8.2304,8.2304,0.0,8.2304,8.163,8.1531,8.2009,8.2076,0.0,8.1323,8.1291,8.1385,8.162,8.1473,8.1362,8.1323,8.14,8.1785,8.2324,8.2862,8.3785,8.4939,8.517,8.4939,8.4555,8.4824,8.417,8.3247,8.3516,8.2785,8.1939,8.2516,8.3093,8.3824,8.5016,8.4978,8.4824,8.6286,8.5786,8.5286,8.6978,8.7209,8.7325,8.844,8.8286,8.7671,8.6824,8.6363,8.5593,8.3901,8.4786,8.5055,8.2939,0.0,0.0,0.0,0.0,0.0,0.0,0.0,0.0,0.0,0.0,0.0,0.0,0.0,0.0,0.0,0.0,0.0,0.0,0.0,0.0,8.9961,9.0,9.0429,9.1328,9.2187,9.2617,9.2617,9.2851,9.332,9.3945,9.4453,9.5351,9.6523,9.6758,9.7187,9.7695,9.7695,9.7695,9.7695,9.7695,9.7695,9.7656,7.9092,7.9797,8.0398,8.0405,8.1093,8.1662,8.1662,8.1701,8.1701,8.1701,8.1701,8.1683,8.1726,8.1864,8.1992,8.1992,8.2187,8.2304,8.2304,8.2304,8.2304,0.0,0.0,8.2304,8.2304,8.2086,8.2001,8.2009,0.0,0.0,7.656,7.6584,7.8308,8.1393,8.14,8.1285,8.117,8.1939,8.2285,8.2439,8.417,8.4901,8.4978,8.5786,8.5055,8.3708,8.4593,8.3785,8.2439,8.3324,8.3593,8.3555,8.3555,8.3593,8.3593,8.3593,8.3593,8.3824,8.4709,8.4939,8.5286,8.6978,8.6748,8.6555,8.8286,8.7363,8.5901,8.5093,8.5555,8.5593,8.3901,8.4324,8.517,8.594,0.0,0.0,0.0,0.0,0.0,0.0,0.0,0.0,8.3711,0.0,0.0,0.0,0.0,0.0,0.0,0.0,0.0,8.75,8.75,0.0,8.9961,9.0,9.0429,9.1328,9.2187,9.2617,9.2617,9.3476,9.3906,9.3984,9.5703,9.6484,9.6562,9.7344,9.7695,9.7695,9.7695,9.7695,9.7695,9.7695,9.7695,9.7578,8.0679,8.086,8.1076,8.1047,8.1208,8.1285,8.1285,8.1285,8.1285,8.1285,8.1285,8.1261,8.1285,8.174,8.2069,0.0,8.2265,8.2304,0.0,8.2304,8.2304,8.2304,8.2304,8.2248,8.2104,8.2014,8.1893,8.1593,0.0,0.0,0.0,8.0752,8.09,8.1208,8.1785,8.1977,8.1977,8.2824,8.3516,8.4055,8.4016,8.4709,8.5747,8.6017,8.544,8.4593,8.544,8.5016,8.4132,8.4401,8.4863,8.5286,8.5286,8.4939,8.4709,8.5863,8.5786,8.5632,8.7094,8.6632,8.6132,8.7863,8.7632,8.7286,8.844,8.7825,8.6901,8.6671,8.6324,8.5786,8.4709,8.4709,8.4786,8.4439,8.3708,0.0,8.3632,0.0,0.0,0.0,0.0,0.0,0.0,8.6054,0.0,0.0,0.0,0.0,0.0,0.0,0.0,0.0,8.832,0.0,9.0859,9.0898,9.1328,9.2187,9.2461,9.289,9.3515,9.3789,9.4531,9.5703,9.625,9.6797,9.7344,9.7578,9.7695,9.7695,9.7695,9.7695,9.7695,9.7695,9.7344,9.6836,8.1285,8.1285,8.1285,8.1285,8.117,8.1093,8.1093,8.1093,8.1208,8.1516,8.1554,8.1708,8.2093,8.2509,0.0,8.2585,8.2923,8.3169,8.3169,8.3068,8.3062,8.3164,8.2851,8.2465,8.2023,8.1932,0.0,8.0431,8.1008,8.1585,8.2086,8.1778,8.1585,8.1554,8.2093,8.2477,8.2862,8.3708,8.4401,8.4901,8.4632,8.5363,8.6555,8.6209,8.5786,8.544,8.594,8.5593,8.4939,8.5247,8.567,8.6094,8.6094,8.5747,8.5555,8.6594,8.6517,8.6324,8.744,8.694,8.6363,8.744,8.7325,8.7055,8.7594,8.7825,8.7709,8.7055,8.6748,8.6324,8.5517,8.5363,8.517,8.4632,8.4286,8.4093,8.4093,0.0,0.0,0.0,0.0,0.0,0.0,8.6767,8.7265,0.0,0.0,0.0,0.0,0.0,0.0,8.8711,8.8711,8.9531,9.1289,9.1289,9.1758,9.2617,9.2929,9.3359,9.3906,9.457,9.5469,9.6523,9.6836,9.7226,9.7695,9.7695,9.7695,9.7695,9.7695,9.7539,9.7265,9.7265,9.6719,9.5976,8.1093,8.1093,8.1093,8.1093,8.1131,8.117,8.117,8.1246,8.1554,8.2285,8.2401,8.2747,8.3779,8.3933,8.3768,8.3209,0.0,0.0,8.4599,8.4359,8.4312,8.456,8.3786,8.2962,8.2044,8.1924,8.0931,7.9045,7.8784,7.9515,8.1093,8.0285,8.0708,8.2208,8.2285,8.2785,8.3632,8.4478,8.4901,8.5055,8.567,8.6517,8.7286,8.644,8.6132,8.6209,8.6209,8.567,8.5093,8.5863,8.6094,8.6094,8.6094,8.6094,8.6094,8.6094,8.6094,8.6094,8.6094,8.6132,8.6209,8.6209,8.6247,8.6286,8.6286,8.7555,8.8248,8.6594,8.694,8.7248,8.644,8.6286,8.6286,8.6286,8.567,8.5132,8.5093,8.4362,8.4818,0.0,0.0,0.0,0.0,8.778,8.6871,0.0,0.0,0.0,0.0,0.0,9.0547,8.875,8.8828,8.9648,9.1289,9.1367,9.1836,9.2695,9.3515,9.3945,9.414,9.5742,9.6523,9.664,9.7383,9.7695,9.7695,9.7695,9.7695,9.7695,9.7695,9.7226,9.6484,9.6484,9.5898,9.5,8.1093,8.1093,8.1093,8.1093,8.1593,8.2016,8.2016,8.2593,8.3093,8.3247,8.3285,8.3401,8.3632,8.4395,8.4843,8.4677,8.4436,8.4273,8.4324,8.4219,8.4232,8.4276,8.4082,8.3523,8.2502,8.3054,8.2747,8.1477,8.0823,8.0708,8.1093,8.09,8.1016,8.14,8.2016,8.2785,8.3593,8.3824,8.4632,8.5709,8.4632,8.5478,8.7286,8.644,8.6517,8.7094,8.7094,8.6555,8.5863,8.6055,8.6094,8.6094,8.6094,8.6094,8.6094,8.6094,8.6094,8.6094,8.6094,8.6594,8.7094,8.7094,8.7594,8.8094,8.8094,8.8402,8.8556,8.8171,8.8248,8.8325,8.8132,8.8094,8.8094,8.8094,8.7902,8.7555,8.6901,8.6632,8.6478,0.0,8.655,8.6722,8.7153,8.7197,8.7914,0.0,0.0,0.0,9.1054,9.1836,9.1172,8.8789,9.0,9.0898,9.1289,9.1953,9.2734,9.3594,9.3789,9.4609,9.5898,9.6328,9.6836,9.7422,9.7617,9.7695,9.7695,9.7695,9.7695,9.7695,9.7695,9.7226,9.6484,9.6484,9.5547,9.4179,8.1631,8.1977,8.2247,8.2247,8.2593,8.2901,8.2901,8.3285,8.3747,8.4132,8.417,8.4324,8.4709,8.5247,8.5593,8.5593,8.5407,8.5268,8.5247,8.5137,8.4945,8.4676,8.4287,8.3451,8.2086,8.2516,8.2439,8.1747,8.0516,8.0323,8.1093,8.0708,8.09,8.167,8.2093,8.3016,8.4209,8.4593,8.5286,8.6055,8.5555,8.617,8.7286,8.644,8.6632,8.7363,8.694,8.6517,8.6094,8.6094,8.6094,8.6094,8.6094,8.6363,8.6709,8.6709,8.6709,8.6709,8.6709,8.7325,8.7979,8.7979,8.8363,8.8709,8.8709,8.8979,8.9133,8.8786,8.8979,8.9133,8.8748,8.8709,8.8709,8.8709,8.8709,8.8517,8.8055,8.7979,8.7825,8.7325,8.7478,8.7708,8.7911,8.8162,8.8937,9.0585,9.0703,0.0,9.1406,9.1797,9.1367,8.9922,9.082,9.1484,9.1875,9.2773,9.3437,9.3906,9.4726,9.5586,9.6523,9.6875,9.7304,9.7695,9.7695,9.7695,9.7656,9.7304,9.7148,9.7109,9.6719,9.6054,9.5312,9.5312,9.4453,9.332,8.2516,8.3093,8.3593,8.3593,8.3708,8.3785,8.3785,8.3901,8.4247,8.4978,8.5093,8.5363,8.6017,8.6094,8.6094,8.6094,8.6324,8.644,8.644,8.6247,8.5863,8.5357,8.4516,8.3324,8.177,8.147,8.1323,8.1285,7.9669,7.9631,8.1093,8.0477,8.0939,8.2324,8.2439,8.3401,8.4939,8.5478,8.5863,8.617,8.6786,8.7171,8.7286,8.644,8.6632,8.7286,8.6401,8.6094,8.6094,8.6094,8.6209,8.6286,8.6286,8.6901,8.7594,8.7594,8.7671,8.7748,8.7632,8.8209,8.8902,8.9017,8.9094,8.9094,8.9094,8.9594,8.9902,8.921,8.9633,8.9902,8.921,8.9094,8.9171,8.9402,8.9248,8.9133,8.9248,8.9056,8.8825,8.8709,8.8897,8.9107,8.9294,8.954,8.9844,9.0156,9.0195,9.0234,9.039,9.1094,9.1484,9.1484,9.1484,9.1914,9.2773,9.3515,9.4023,9.4297,9.5781,9.6562,9.6719,9.7383,9.7695,9.7695,9.7695,9.7695,9.7656,9.6836,9.6484,9.6406,9.5547,9.4687,9.3906,9.3906,9.3359,9.2617,8.3401,8.3516,8.3593,8.3593,8.4209,8.4709,8.4709,8.5286,8.5747,8.5901,8.5901,8.5978,8.6094,8.6094,8.6094,8.6094,8.6132,8.617,8.617,8.6132,8.6055,8.594,8.517,8.4286,8.3247,8.1862,8.1477,8.2093,8.117,8.0823,8.1093,8.167,8.2054,8.2324,8.3054,8.3939,8.4863,8.4247,8.4824,8.6055,8.5517,8.6132,8.7286,8.644,8.6632,8.7286,8.6401,8.6094,8.6094,8.6094,8.6594,8.7209,8.7209,8.7786,8.8479,8.8479,8.8979,8.9363,8.8671,8.9094,8.9902,9.0633,9.0825,9.0825,9.0825,9.0902,9.0979,9.0825,9.0902,9.0979,9.0825,9.0825,9.1287,9.2672,9.1748,9.1056,9.1825,9.0633,8.9479,8.8786,8.8902,8.9085,8.9254,8.9547,9.0078,9.1015,9.1094,9.1406,9.2148,9.2304,9.2383,9.2383,9.2383,9.2812,9.3672,9.3828,9.4648,9.6094,9.6367,9.6875,9.7539,9.7656,9.7695,9.7695,9.7695,9.7695,9.7656,9.6836,9.6484,9.6406,9.5547,9.4687,9.3906,9.3906,9.3359,9.2617,8.4286,8.4632,8.4939,8.4939,8.5286,8.5555,8.5555,8.5863,8.6094,8.6094,8.6094,8.6094,8.6094,8.6094,8.6094,8.6094,8.6094,8.6094,8.6094,8.6094,8.5709,8.4786,8.4401,8.3593,8.2285,8.19,8.1939,8.2285,8.2401,8.2439,8.2439,8.2824,8.2978,8.3016,8.3401,8.4093,8.4901,8.4939,8.5401,8.6094,8.6209,8.644,8.6671,8.6247,8.6363,8.6632,8.6247,8.6094,8.617,8.6632,8.7055,8.7478,8.794,8.8671,8.9363,8.9363,8.9633,8.994,9.0017,9.0325,9.071,9.1095,9.121,9.121,9.121,9.121,9.121,9.121,9.121,9.121,9.121,9.121,9.1441,9.221,9.171,9.1325,9.1748,9.1133,9.0479,9.0094,9.0133,9.0325,9.0668,9.081,9.1194,9.1953,9.1992,9.2187,9.2578,9.3047,9.3281,9.3281,9.3281,9.3711,9.4609,9.5078,9.5703,9.6523,9.6953,9.7344,9.7695,9.7695,9.7695,9.7695,9.7226,9.7031,9.6953,9.5625,9.5117,9.5,9.414,9.3554,9.3203,9.3203,9.2969,9.2617,8.517,8.567,8.6094,8.6094,8.6094,8.6094,8.6094,8.6094,8.6094,8.6094,8.6094,8.6094,8.6094,8.6094,8.6094,8.6094,8.6286,8.6401,8.6401,8.6401,8.5632,8.3978,8.3708,8.2978,8.1708,8.2285,8.2593,8.2593,8.3247,8.3593,8.3593,8.3824,8.3901,8.3901,8.4093,8.4555,8.5209,8.5863,8.6094,8.617,8.6824,8.6709,8.6094,8.6094,8.6094,8.6132,8.6324,8.6401,8.6555,8.7401,8.7825,8.8094,8.8786,8.9556,9.021,9.021,9.021,9.0364,9.1018,9.121,9.121,9.121,9.121,9.121,9.121,9.121,9.121,9.121,9.121,9.121,9.121,9.121,9.1325,9.171,9.1441,9.1325,9.1748,9.1441,9.121,9.121,9.121,9.1364,9.1748,9.1849,9.2159,9.2772,9.2851,9.3008,9.3203,9.3828,9.4297,9.4492,9.4297,9.4609,9.5508,9.6172,9.6601,9.6797,9.7383,9.7695,9.7695,9.7695,9.7695,9.7656,9.6836,9.6484,9.6367,9.4609,9.3906,9.3828,9.2929,9.2617,9.2617,9.2617,9.2617,9.2617,8.6017,8.6055,8.6094,8.6094,8.6094,8.6094,8.6094,8.6094,8.6094,8.6094,8.6094,8.6094,8.6094,8.6094,8.6094,8.6094,8.6824,8.7286,8.7286,8.7286,8.6555,8.4901,8.4016,8.3516,8.3401,8.3478,8.3478,8.3478,8.3555,8.3593,8.3593,8.4439,8.4786,8.4863,8.5593,8.594,8.6017,8.6055,8.6094,8.6094,8.617,8.617,8.6094,8.6094,8.6094,8.6209,8.7017,8.7286,8.744,8.8286,8.9094,8.9748,8.9787,9.0402,9.1095,9.1095,9.1095,9.1133,9.1171,9.121,9.121,9.121,9.121,9.121,9.121,9.121,9.121,9.121,9.121,9.121,9.121,9.121,9.171,9.3249,9.221,9.1748,9.3287,9.2172,9.121,9.121,9.121,9.1287,9.1518,9.1733,9.2315,9.3358,9.3672,9.414,9.4961,9.5078,9.5469,9.6289,9.5547,9.5508,9.6406,9.6484,9.6875,9.7617,9.7656,9.7695,9.7695,9.7695,9.7695,9.7656,9.6836,9.6484,9.6367,9.4609,9.3906,9.3828,9.2929,9.2617,9.2617,9.2617,9.2617,9.2617,8.6094,8.6094,8.6094,8.6094,8.6094,8.6094,8.6094,8.6094,8.6286,8.6824,8.6901,8.7094,8.7632,8.7709,8.7709,8.7709,8.8017,8.7979,8.744,8.6901,8.6094,8.4939,8.4055,8.3593,8.3593,8.4132,8.4401,8.4401,8.4901,8.5132,8.517,8.5478,8.5632,8.567,8.5978,8.6094,8.6094,8.6094,8.6094,8.6094,8.6094,8.6094,8.617,8.6709,8.6901,8.7017,8.7902,8.8209,8.8325,8.9171,8.9671,8.9979,9.0556,9.0941,9.121,9.121,9.121,9.121,9.121,9.121,9.121,9.121,9.121,9.121,9.121,9.121,9.121,9.121,9.121,9.121,9.121,9.121,9.1402,9.2056,9.1633,9.1441,9.2056,9.1595,9.121,9.121,9.1672,9.2133,9.2515,9.3083,9.3744,9.449,9.4648,9.4844,9.5195,9.5703,9.6406,9.7226,9.6914,9.6914,9.7226,9.7226,9.7383,9.7695,9.7695,9.7695,9.7695,9.7695,9.7695,9.7617,9.6289,9.5703,9.5547,9.3828,9.3086,9.3047,9.2734,9.2617,9.2617,9.2617,9.2617,9.2617,8.6094,8.6094,8.6209,8.6478,8.6517,8.6594,8.6863,8.6901,8.7132,8.7709,8.7825,8.8017,8.8632,8.8709,8.8709,8.8709,8.8709,8.844,8.7863,8.6978,8.6017,8.4939,8.4324,8.4132,8.4362,8.4978,8.5286,8.5286,8.5824,8.6094,8.6094,8.6094,8.6094,8.6094,8.6094,8.6094,8.6094,8.6094,8.6247,8.6517,8.6517,8.6671,8.6978,8.7594,8.7825,8.7902,8.8786,8.9094,8.921,9.0017,9.0325,9.0402,9.1018,9.121,9.121,9.121,9.121,9.121,9.121,9.121,9.121,9.121,9.121,9.121,9.121,9.121,9.121,9.121,9.121,9.121,9.121,9.121,9.121,9.121,9.1441,9.1595,9.1595,9.1825,9.1979,9.1979,9.2518,9.2903,9.3054,9.3862,9.4574,9.5042,9.5411,9.5703,9.5976,9.6562,9.7148,9.7695,9.7695,9.7695,9.7695,9.7695,9.7695,9.7695,9.7695,9.7695,9.7695,9.7695,9.7578,9.7226,9.582,9.5039,9.4687,9.3203,9.2617,9.2617,9.2617,9.2617,9.2617,9.2617,9.2617,9.2617,8.6132,8.6132,8.6401,8.7248,8.7401,8.7709,8.8556,8.8709,8.8709,8.8709,8.8709,8.8709,8.8709,8.8709,8.8709,8.8709,8.8709,8.8709,8.8671,8.7863,8.6632,8.4978,8.4901,8.5286,8.6094,8.6094,8.6094,8.6094,8.6094,8.6094,8.6094,8.6094,8.6094,8.6094,8.6094,8.6094,8.6094,8.6094,8.6594,8.7401,8.7401,8.794,8.8709,8.8709,8.8709,8.8786,8.9633,8.9902,9.0056,9.0902,9.121,9.121,9.121,9.121,9.121,9.121,9.121,9.121,9.121,9.121,9.121,9.121,9.121,9.121,9.121,9.121,9.121,9.121,9.121,9.121,9.121,9.121,9.121,9.121,9.1941,9.2518,9.2518,9.321,9.371,9.371,9.371,9.348,9.2903,9.3774,9.4535,9.4771,9.5862,9.6875,9.7656,9.7695,9.7695,9.7695,9.7695,9.7695,9.7695,9.7695,9.7695,9.7695,9.7695,9.7695,9.7695,9.7695,9.7265,9.6445,9.5586,9.4687,9.3828,9.2969,9.2617,9.2617,9.2617,9.2617,9.2617,9.2617,9.2617,9.2617,8.7786,8.7902,8.8017,8.8248,8.8286,8.8402,8.8671,8.8709,8.8902,8.9479,8.9556,8.9787,9.0402,9.0441,9.021,8.9594,8.9556,8.9056,8.7863,8.6978,8.6247,8.5747,8.5747,8.5863,8.6094,8.6094,8.6094,8.6094,8.6094,8.6094,8.6094,8.6094,8.6094,8.6094,8.6094,8.644,8.7017,8.7017,8.7517,8.8286,8.8286,8.8479,8.8748,8.9325,8.9556,8.9671,9.0517,9.0825,9.0864,9.1133,9.121,9.121,9.121,9.121,9.121,9.121,9.121,9.121,9.121,9.121,9.121,9.121,9.121,9.121,9.121,9.121,9.1364,9.1979,9.2095,9.2287,9.2864,9.2941,9.2941,9.2941,9.3172,9.3326,9.3326,9.3557,9.371,9.371,9.371,9.398,9.4747,9.5131,9.5736,9.6742,9.7129,9.7461,9.7695,9.7695,9.7695,9.7695,9.7695,9.7695,9.7695,9.7695,9.7695,9.7695,9.7695,9.7695,9.7695,9.7109,9.6719,9.6406,9.4922,9.414,9.3828,9.2969,9.2617,9.2617,9.2617,9.2617,9.2617,9.2617,9.2617,9.2617,8.8594,8.8709,8.8786,8.9133,8.9171,8.9286,8.9633,8.9671,8.9863,9.0364,9.0402,9.0633,9.1133,9.121,9.0864,8.9979,8.9286,8.8325,8.6978,8.6401,8.6094,8.6094,8.6094,8.6094,8.6094,8.6094,8.6094,8.6094,8.6094,8.6094,8.6094,8.6094,8.6286,8.6594,8.6594,8.7094,8.7902,8.7902,8.8402,8.9171,8.9171,8.9363,8.9748,9.0248,9.0402,9.0479,9.1018,9.121,9.121,9.121,9.121,9.121,9.121,9.121,9.121,9.121,9.121,9.121,9.121,9.1441,9.171,9.171,9.171,9.171,9.171,9.1979,9.2326,9.2864,9.2979,9.3133,9.3595,9.371,9.371,9.371,9.398,9.421,9.421,9.421,9.421,9.421,9.4287,9.4441,9.4708,9.5438,9.6215,9.7146,9.7226,9.7344,9.7695,9.7695,9.7695,9.7695,9.7695,9.7695,9.7695,9.7695,9.7695,9.7695,9.7695,9.7539,9.7226,9.6719,9.6133,9.539,9.4375,9.3711,9.3359,9.2812,9.2617,9.2617,9.2617,9.2617,9.2617,9.2617,9.2617,9.2617,8.8902,8.8902,8.9133,8.9902,9.0017,9.0287,9.1095,9.121,9.121,9.121,9.121,9.121,9.121,9.1133,9.0748,8.9863,8.8248,8.694,8.617,8.6094,8.6094,8.6094,8.6094,8.6094,8.6094,8.6094,8.6094,8.6094,8.617,8.6209,8.6209,8.6286,8.6748,8.7517,8.7517,8.7979,8.8786,8.8786,8.9286,9.0017,9.0017,9.0479,9.121,9.121,9.121,9.121,9.121,9.121,9.121,9.121,9.121,9.121,9.121,9.121,9.121,9.121,9.1248,9.1325,9.1325,9.1941,9.2595,9.2595,9.2672,9.271,9.2633,9.3172,9.371,9.3787,9.3826,9.3826,9.3903,9.3941,9.3941,9.3941,9.4595,9.5095,9.5095,9.5057,9.5018,9.5018,9.5134,9.4711,9.348,9.5045,9.6228,9.648,9.6562,9.6914,9.7656,9.7695,9.7695,9.7695,9.7695,9.7695,9.7695,9.7695,9.7656,9.7578,9.7578,9.7187,9.6367,9.6289,9.539,9.3906,9.3828,9.332,9.2617,9.2617,9.2617,9.2617,9.2617,9.2617,9.2617,9.2617,9.2617,9.2617,9.0517,9.0671,9.071,9.0902,9.0941,9.0979,9.1171,9.121,9.121,9.121,9.121,9.121,9.121,9.0594,8.9863,8.9017,8.7363,8.6286,8.6094,8.6094,8.6094,8.6094,8.6094,8.6094,8.6094,8.6094,8.6094,8.6094,8.6786,8.7132,8.7132,8.7825,8.8248,8.8402,8.8402,8.8863,8.9633,8.9633,9.0133,9.0941,9.0941,9.1018,9.121,9.121,9.121,9.121,9.121,9.121,9.121,9.121,9.121,9.121,9.121,9.121,9.121,9.121,9.1672,9.221,9.221,9.2826,9.3441,9.3441,9.3941,9.4287,9.3595,9.3557,9.3903,9.4557,9.4711,9.4941,9.5595,9.5749,9.5749,9.5749,9.5903,9.6019,9.6019,9.5595,9.5212,9.5212,9.4326,9.3903,9.4405,9.5652,9.6445,9.6484,9.707,9.7539,9.7695,9.7695,9.7695,9.7695,9.7695,9.7695,9.7695,9.7695,9.7383,9.6758,9.6758,9.6328,9.5469,9.4765,9.4258,9.3867,9.3164,9.2773,9.2617,9.2617,9.2617,9.2617,9.2617,9.2617,9.2617,9.2617,9.2617,9.2617,9.1133,9.121,9.121,9.121,9.121,9.121,9.121,9.121,9.121,9.121,9.121,9.1056,9.0633,9.0171,8.9402,8.8171,8.6863,8.6094,8.6094,8.6094,8.6286,8.6709,8.6709,8.6901,8.7325,8.7325,8.7132,8.6709,8.7594,8.8017,8.8017,8.8479,8.8902,8.9286,8.9286,8.9748,9.0517,9.0517,9.0787,9.121,9.121,9.121,9.121,9.121,9.121,9.121,9.121,9.121,9.121,9.121,9.121,9.121,9.121,9.1479,9.1825,9.1825,9.2402,9.3056,9.3056,9.3672,9.4326,9.4326,9.498,9.5403,9.4518,9.4634,9.5057,9.5518,9.5634,9.5749,9.6211,9.6288,9.6326,9.6442,9.6095,9.5903,9.6019,9.502,9.4317,9.4307,9.3753,9.3585,9.4309,9.4544,9.4804,9.5234,9.6015,9.6679,9.7109,9.75,9.7695,9.7695,9.7695,9.7695,9.7695,9.7304,9.6719,9.5898,9.6289,9.582,9.457,9.4101,9.3672,9.3242,9.2812,9.2617,9.2617,9.2617,9.2617,9.2617,9.2617,9.2617,9.2617,9.2617,9.2617,9.2617,9.121,9.121,9.121,9.121,9.121,9.121,9.121,9.121,9.121,9.121,9.1056,9.071,8.9979,8.9633,8.8863,8.7325,8.6671,8.6324,8.6324,8.6478,8.6863,8.7594,8.7632,8.794,8.8671,8.8825,8.8479,8.7632,8.8479,8.8902,8.8902,8.9056,8.9479,9.0133,9.0133,9.0517,9.121,9.121,9.121,9.121,9.121,9.121,9.121,9.121,9.121,9.121,9.121,9.121,9.121,9.121,9.1287,9.1441,9.1441,9.2018,9.271,9.271,9.3287,9.3903,9.3903,9.4557,9.5211,9.5211,9.5788,9.6095,9.5403,9.5788,9.6288,9.6288,9.6288,9.6288,9.6288,9.6288,9.6326,9.6365,9.5751,9.5363,9.5465,9.417,9.3263,9.3248,9.331,9.343,9.3668,9.3164,9.3164,9.4062,9.4922,9.5781,9.664,9.7344,9.7695,9.7695,9.7695,9.7617,9.75,9.6836,9.5976,9.5,9.5703,9.5234,9.3672,9.3672,9.3281,9.2617,9.2617,9.2617,9.2617,9.2617,9.2617,9.2617,9.2617,9.2617,9.2617,9.2617,9.2617,9.2617,9.121,9.121,9.121,9.121,9.121,9.121,9.121,9.121,9.121,9.121,9.0556,9.0056,8.9902,8.8594,8.7325,8.6363,8.6863,8.7209,8.7209,8.794,8.8402,8.8517,8.8517,8.8556,8.8709,8.9363,8.9325,8.8517,8.9325,8.9748,8.9748,9.0517,9.0941,9.1018,9.1018,9.1095,9.121,9.121,9.121,9.121,9.121,9.121,9.121,9.121,9.121,9.121,9.121,9.121,9.121,9.121,9.171,9.2326,9.2326,9.2864,9.3518,9.3518,9.4134,9.4826,9.4826,9.5441,9.6134,9.6134,9.6211,9.6288,9.6134,9.6211,9.6288,9.6288,9.6288,9.6288,9.6288,9.6288,9.6134,9.5558,9.5366,9.5147,9.4629,9.3948,9.3482,9.347,9.3039,9.272,9.2773,9.3359,9.4101,9.4961,9.582,9.6679,9.75,9.7656,9.7695,9.7695,9.7695,9.7383,9.6679,9.6562,9.5664,9.4062,9.4219,9.3711,9.2773,9.2773,9.2695,9.2617,9.2617,9.2617,9.2617,9.2617,9.2617,9.2617,9.2617,9.2617,9.2617,9.2617,9.2617,9.2617,9.121,9.121,9.121,9.121,9.121,9.121,9.121,9.121,9.121,9.121,9.0864,9.0441,8.994,8.8825,8.7979,8.7594,8.7902,8.8132,8.8132,8.8479,8.8902,8.9363,8.9363,8.9594,9.0094,9.0441,9.0441,9.0094,9.0441,9.0633,9.0633,9.1018,9.121,9.121,9.121,9.121,9.121,9.121,9.121,9.121,9.121,9.121,9.121,9.121,9.121,9.121,9.121,9.1518,9.1941,9.1941,9.2479,9.3172,9.3172,9.3749,9.4441,9.4441,9.5018,9.5711,9.5711,9.6019,9.6288,9.6288,9.6288,9.6288,9.6288,9.6288,9.6288,9.6288,9.6288,9.6288,9.6288,9.6288,9.6134,9.5597,9.5084,9.4652,9.4188,9.3484,9.3016,9.3016,9.2763,9.2617,9.2617,9.2969,9.332,9.3711,9.457,9.5429,9.625,9.6758,9.7226,9.7695,9.7265,9.6875,9.6484,9.5547,9.4648,9.3906,9.3398,9.2969,9.2617,9.2617,9.2617,9.2617,9.2617,9.2617,9.2617,9.2617,9.2617,9.2617,9.2617,9.2617,9.2617,9.2617,9.2617,9.2617]},{"header":{"parameterUnit":"m.s-1","parameterCategory":1,"la1":30.6,"la2":28.766,"lo1":-90.7593,"lo2":-88.6598,"dx":0.0162,"dy":0.0183,"nx":116,"ny":114,"refTime":"2022-12-31T06:00:00:Z","depth":0,"parameterNumber":3,"parameterNumberName":"V-component_of_WINDS"},"data":[0.0,0.0,0.0,0.0,0.0,0.0,0.0,0.0,0.0,0.0,0.0,0.0,0.0,0.0,0.0,0.0,0.0,0.0,0.0,0.0,0.0,0.0,0.0,0.0,0.0,0.0,0.0,0.0,0.0,0.0,0.0,0.0,0.0,0.0,0.0,0.0,0.0,0.0,0.0,0.0,0.0,0.0,0.0,0.0,0.0,0.0,0.0,0.0,0.0,0.0,0.0,0.0,0.0,0.0,0.0,0.0,0.0,0.0,0.0,0.0,0.0,0.0,0.0,0.0,0.0,0.0,0.0,0.0,0.0,0.0,0.0,0.0,0.0,0.0,0.0,0.0,0.0,0.0,0.0,0.0,0.0,0.0,0.0,0.0,0.0,0.0,0.0,0.0,0.0,0.0,0.0,0.0,0.0,0.0,0.0,0.0,0.0,0.0,0.0,0.0,0.0,0.0,0.0,0.0,0.0,0.0,0.0,0.0,0.0,0.0,0.0,0.0,0.0,0.0,0.0,0.0,0.0,0.0,0.0,0.0,0.0,0.0,0.0,0.0,0.0,0.0,0.0,0.0,0.0,0.0,0.0,0.0,0.0,0.0,0.0,0.0,0.0,0.0,0.0,0.0,0.0,0.0,0.0,0.0,0.0,0.0,0.0,0.0,0.0,0.0,0.0,0.0,0.0,0.0,0.0,0.0,0.0,0.0,0.0,0.0,0.0,0.0,0.0,0.0,0.0,0.0,0.0,0.0,0.0,0.0,0.0,0.0,0.0,0.0,0.0,0.0,0.0,0.0,0.0,0.0,0.0,0.0,0.0,0.0,0.0,0.0,0.0,0.0,0.0,0.0,0.0,0.0,0.0,0.0,0.0,0.0,0.0,0.0,0.0,0.0,0.0,0.0,0.0,0.0,0.0,0.0,0.0,0.0,0.0,0.0,0.0,0.0,0.0,0.0,0.0,0.0,0.0,0.0,0.0,0.0,0.0,0.0,0.0,0.0,0.0,0.0,0.0,0.0,0.0,0.0,0.0,0.0,0.0,0.0,0.0,0.0,0.0,0.0,0.0,0.0,0.0,0.0,0.0,0.0,0.0,0.0,0.0,0.0,0.0,0.0,0.0,0.0,0.0,0.0,0.0,0.0,0.0,0.0,0.0,0.0,0.0,0.0,0.0,0.0,0.0,0.0,0.0,0.0,0.0,0.0,0.0,0.0,0.0,0.0,0.0,0.0,0.0,0.0,0.0,0.0,0.0,0.0,0.0,0.0,0.0,0.0,0.0,0.0,0.0,0.0,0.0,0.0,0.0,0.0,0.0,0.0,0.0,0.0,0.0,0.0,0.0,0.0,0.0,0.0,0.0,0.0,0.0,0.0,0.0,0.0,0.0,0.0,0.0,0.0,0.0,0.0,0.0,0.0,0.0,0.0,0.0,0.0,0.0,0.0,0.0,0.0,0.0,0.0,0.0,0.0,0.0,0.0,0.0,0.0,0.0,0.0,0.0,0.0,0.0,0.0,0.0,0.0,0.0,0.0,0.0,0.0,0.0,0.0,0.0,0.0,0.0,0.0,0.0,0.0,0.0,0.0,0.0,0.0,0.0,0.0,0.0,0.0,0.0,0.0,0.0,0.0,0.0,0.0,0.0,0.0,0.0,0.0,0.0,0.0,0.0,0.0,0.0,0.0,0.0,0.0,0.0,0.0,0.0,0.0,0.0,0.0,0.0,0.0,0.0,0.0,0.0,0.0,0.0,0.0,0.0,0.0,0.0,0.0,0.0,0.0,0.0,0.0,0.0,0.0,0.0,0.0,0.0,0.0,0.0,0.0,0.0,0.0,0.0,0.0,0.0,0.0,0.0,0.0,0.0,0.0,0.0,0.0,0.0,0.0,0.0,0.0,0.0,0.0,0.0,0.0,0.0,0.0,0.0,0.0,0.0,0.0,0.0,0.0,0.0,0.0,0.0,0.0,0.0,0.0,0.0,0.0,0.0,0.0,0.0,0.0,0.0,0.0,0.0,0.0,0.0,0.0,0.0,0.0,0.0,0.0,0.0,0.0,0.0,0.0,0.0,0.0,0.0,0.0,0.0,0.0,0.0,0.0,0.0,0.0,0.0,0.0,0.0,0.0,0.0,0.0,0.0,0.0,0.0,0.0,0.0,0.0,0.0,0.0,0.0,0.0,0.0,0.0,0.0,0.0,0.0,0.0,0.0,0.0,0.0,0.0,0.0,0.0,0.0,0.0,0.0,0.0,0.0,0.0,0.0,0.0,0.0,0.0,0.0,0.0,0.0,0.0,0.0,0.0,0.0,0.0,0.0,0.0,0.0,0.0,0.0,0.0,0.0,0.0,0.0,0.0,0.0,0.0,0.0,0.0,0.0,0.0,0.0,0.0,0.0,0.0,0.0,0.0,0.0,0.0,0.0,0.0,0.0,0.0,0.0,0.0,0.0,0.0,0.0,0.0,0.0,0.0,0.0,0.0,0.0,0.0,0.0,0.0,0.0,0.0,0.0,0.0,0.0,0.0,0.0,0.0,0.0,0.0,0.0,0.0,0.0,0.0,0.0,0.0,0.0,0.0,0.0,0.0,0.0,0.0,0.0,0.0,0.0,0.0,0.0,0.0,0.0,0.0,0.0,0.0,0.0,0.0,0.0,0.0,0.0,0.0,0.0,0.0,0.0,0.0,0.0,0.0,0.0,0.0,0.0,0.0,0.0,0.0,0.0,0.0,0.0,0.0,0.0,0.0,0.0,0.0,0.0,0.0,0.0,0.0,0.0,0.0,0.0,0.0,0.0,0.0,0.0,0.0,0.0,0.0,0.0,0.0,0.0,0.0,0.0,0.0,0.0,0.0,0.0,0.0,0.0,0.0,0.0,0.0,0.0,0.0,0.0,0.0,0.0,0.0,0.0,0.0,0.0,0.0,0.0,0.0,0.0,0.0,0.0,0.0,0.0,0.0,0.0,0.0,0.0,0.0,0.0,0.0,0.0,0.0,0.0,0.0,0.0,0.0,0.0,0.0,0.0,0.0,0.0,0.0,0.0,0.0,0.0,0.0,0.0,0.0,0.0,0.0,0.0,0.0,0.0,0.0,0.0,0.0,0.0,0.0,0.0,0.0,0.0,0.0,0.0,0.0,0.0,0.0,0.0,0.0,0.0,0.0,0.0,0.0,0.0,0.0,0.0,0.0,0.0,0.0,0.0,0.0,0.0,0.0,0.0,0.0,0.0,0.0,0.0,0.0,0.0,0.0,0.0,0.0,0.0,0.0,0.0,0.0,0.0,0.0,0.0,0.0,0.0,0.0,0.0,0.0,0.0,0.0,0.0,0.0,0.0,0.0,0.0,0.0,0.0,0.0,0.0,0.0,0.0,0.0,0.0,0.0,0.0,0.0,0.0,0.0,0.0,0.0,0.0,0.0,0.0,0.0,0.0,0.0,0.0,0.0,0.0,0.0,0.0,0.0,0.0,0.0,0.0,0.0,0.0,0.0,0.0,0.0,0.0,0.0,0.0,0.0,0.0,0.0,0.0,0.0,0.0,0.0,0.0,0.0,0.0,0.0,0.0,0.0,0.0,0.0,0.0,0.0,0.0,0.0,0.0,0.0,0.0,0.0,0.0,0.0,0.0,0.0,0.0,0.0,0.0,0.0,0.0,0.0,0.0,0.0,0.0,0.0,0.0,0.0,0.0,0.0,0.0,0.0,0.0,0.0,0.0,0.0,0.0,0.0,0.0,0.0,0.0,0.0,0.0,0.0,0.0,0.0,0.0,0.0,0.0,0.0,0.0,0.0,0.0,0.0,0.0,0.0,0.0,0.0,0.0,0.0,0.0,0.0,0.0,0.0,0.0,0.0,0.0,0.0,0.0,0.0,0.0,0.0,0.0,0.0,0.0,0.0,0.0,0.0,0.0,0.0,0.0,0.0,0.0,0.0,0.0,0.0,0.0,0.0,0.0,0.0,0.0,0.0,0.0,0.0,0.0,0.0,0.0,0.0,0.0,0.0,0.0,0.0,0.0,0.0,0.0,0.0,0.0,0.0,0.0,0.0,0.0,0.0,0.0,0.0,0.0,0.0,0.0,0.0,0.0,0.0,0.0,0.0,0.0,0.0,0.0,0.0,0.0,0.0,0.0,0.0,0.0,0.0,0.0,0.0,0.0,0.0,0.0,0.0,0.0,0.0,0.0,0.0,0.0,0.0,0.0,0.0,0.0,0.0,0.0,0.0,0.0,0.0,0.0,0.0,0.0,0.0,0.0,0.0,0.0,0.0,0.0,0.0,0.0,0.0,0.0,0.0,0.0,0.0,0.0,0.0,0.0,0.0,0.0,0.0,0.0,0.0,0.0,0.0,0.0,0.0,0.0,0.0,0.0,0.0,0.0,0.0,0.0,0.0,0.0,0.0,0.0,0.0,0.0,0.0,0.0,0.0,0.0,0.0,0.0,0.0,0.0,0.0,0.0,0.0,0.0,0.0,0.0,0.0,0.0,0.0,0.0,0.0,0.0,0.0,0.0,0.0,0.0,0.0,0.0,0.0,0.0,0.0,0.0,0.0,0.0,0.0,0.0,0.0,0.0,0.0,0.0,0.0,0.0,0.0,0.0,0.0,0.0,0.0,0.0,0.0,0.0,0.0,0.0,0.0,0.0,0.0,0.0,0.0,0.0,0.0,0.0,0.0,0.0,0.0,0.0,0.0,0.0,0.0,0.0,0.0,0.0,0.0,0.0,0.0,0.0,0.0,0.0,0.0,0.0,0.0,0.0,0.0,0.0,0.0,0.0,0.0,0.0,0.0,0.0,0.0,0.0,0.0,0.0,0.0,0.0,0.0,0.0,0.0,0.0,0.0,0.0,0.0,0.0,0.0,0.0,0.0,0.0,0.0,0.0,0.0,0.0,0.0,0.0,0.0,0.0,0.0,0.0,0.0,0.0,0.0,0.0,0.0,0.0,0.0,0.0,0.0,0.0,0.0,0.0,0.0,0.0,0.0,0.0,0.0,0.0,0.0,0.0,0.0,0.0,0.0,0.0,0.0,0.0,0.0,0.0,0.0,0.0,0.0,0.0,0.0,0.0,0.0,0.0,0.0,0.0,0.0,0.0,0.0,0.0,0.0,0.0,0.0,0.0,0.0,0.0,0.0,0.0,0.0,0.0,0.0,0.0,0.0,0.0,0.0,0.0,0.0,0.0,0.0,0.0,0.0,0.0,0.0,0.0,0.0,0.0,0.0,0.0,0.0,0.0,0.0,0.0,0.0,0.0,0.0,0.0,0.0,0.0,0.0,0.0,0.0,0.0,0.0,0.0,0.0,0.0,0.0,0.0,0.0,0.0,0.0,0.0,0.0,0.0,0.0,0.0,0.0,0.0,0.0,0.0,0.0,0.0,0.0,0.0,0.0,0.0,0.0,0.0,0.0,0.0,0.0,0.0,0.0,0.0,0.0,0.0,0.0,0.0,0.0,0.0,0.0,0.0,0.0,0.0,0.0,0.0,0.0,0.0,0.0,0.0,0.0,0.0,0.0,0.0,0.0,0.0,0.0,0.0,0.0,0.0,0.0,0.0,0.0,0.0,0.0,0.0,0.0,0.0,0.0,0.0,0.0,0.0,0.0,0.0,0.0,0.0,0.0,0.0,0.0,0.0,0.0,0.0,0.0,0.0,0.0,0.0,0.0,0.0,0.0,0.0,0.0,0.0,0.0,0.0,0.0,0.0,0.0,0.0,0.0,0.0,0.0,0.0,0.0,0.0,0.0,0.0,0.0,0.0,0.0,0.0,0.0,0.0,0.0,0.0,0.0,0.0,0.0,0.0,0.0,0.0,0.0,0.0,0.0,0.0,0.0,0.0,0.0,0.0,0.0,0.0,0.0,0.0,0.0,0.0,0.0,0.0,0.0,0.0,0.0,0.0,0.0,0.0,0.0,0.0,0.0,0.0,0.0,0.0,0.0,0.0,0.0,0.0,0.0,0.0,0.0,0.0,0.0,0.0,0.0,0.0,0.0,0.0,0.0,0.0,0.0,0.0,0.0,0.0,0.0,0.0,0.0,0.0,0.0,0.0,0.0,0.0,0.0,0.0,0.0,0.0,0.0,0.0,0.0,0.0,0.0,0.0,0.0,0.0,0.0,-1.4856,-1.621,0.0,0.0,0.0,0.0,0.0,0.0,0.0,0.0,0.0,0.0,0.0,0.0,0.0,0.0,0.0,0.0,0.0,0.0,0.0,0.0,0.0,0.0,0.0,-1.0862,-1.0715,-1.0631,-1.0618,0.0,0.0,0.0,0.0,0.0,0.0,0.0,0.0,0.0,-1.2665,-1.2973,-1.3106,-1.3561,-1.4282,-1.4242,-1.3935,-1.3414,0.0,0.0,0.0,0.0,0.0,0.0,0.0,0.0,0.0,0.0,0.0,0.0,0.0,0.0,0.0,0.0,0.0,0.0,0.0,0.0,0.0,0.0,0.0,0.0,0.0,0.0,0.0,0.0,0.0,0.0,0.0,0.0,0.0,0.0,0.0,0.0,0.0,0.0,0.0,0.0,0.0,0.0,0.0,0.0,0.0,0.0,0.0,0.0,0.0,0.0,0.0,0.0,0.0,0.0,0.0,0.0,0.0,0.0,0.0,0.0,0.0,0.0,0.0,0.0,0.0,0.0,0.0,0.0,0.0,0.0,-1.4279,-1.4959,0.0,0.0,0.0,0.0,0.0,0.0,0.0,0.0,0.0,0.0,0.0,0.0,0.0,0.0,0.0,0.0,0.0,0.0,0.0,0.0,0.0,-1.1396,-1.1102,-1.1062,-1.0955,-1.0661,-1.0688,-1.0835,-1.1129,-1.1142,0.0,0.0,0.0,0.0,-1.2452,-1.2705,-1.3026,-1.344,-1.3881,-1.4482,-1.5204,-1.5685,-1.5257,-1.4095,-1.3801,0.0,0.0,0.0,0.0,0.0,0.0,0.0,0.0,0.0,0.0,0.0,0.0,0.0,0.0,0.0,0.0,0.0,0.0,0.0,0.0,0.0,0.0,0.0,0.0,0.0,0.0,0.0,0.0,0.0,0.0,0.0,0.0,0.0,0.0,0.0,0.0,0.0,0.0,0.0,0.0,0.0,0.0,0.0,0.0,0.0,0.0,0.0,0.0,0.0,0.0,0.0,0.0,0.0,0.0,0.0,0.0,0.0,0.0,0.0,0.0,0.0,0.0,0.0,-1.4355,-1.4248,-1.4248,-1.4248,-1.358,-1.2564,-1.3225,-1.3083,-1.244,-1.4769,0.0,0.0,0.0,0.0,0.0,0.0,0.0,0.0,0.0,0.0,0.0,0.0,0.0,0.0,0.0,0.0,0.0,0.0,0.0,-1.1703,-1.1396,-1.1369,-1.1249,-1.0955,-1.1169,-1.1436,-1.173,-1.1757,0.0,0.0,0.0,-1.2772,-1.308,-1.3133,-1.3547,-1.4349,-1.5404,-1.5979,-1.6099,-1.6179,-1.6112,-1.5912,-1.5618,-1.5337,-1.507,0.0,0.0,0.0,0.0,0.0,0.0,0.0,0.0,0.0,0.0,0.0,0.0,0.0,0.0,0.0,0.0,0.0,0.0,0.0,0.0,0.0,0.0,0.0,0.0,0.0,0.0,0.0,0.0,0.0,0.0,0.0,0.0,0.0,0.0,0.0,0.0,0.0,0.0,0.0,0.0,0.0,-1.3871,-1.4104,0.0,0.0,0.0,0.0,0.0,0.0,0.0,0.0,0.0,0.0,0.0,0.0,0.0,-1.5155,-1.4968,-1.3771,-1.3114,-1.314,-1.1888,-1.1308,-1.1308,-1.1308,-1.119,-1.0948,-1.1148,0.0,-1.2842,-1.3173,0.0,0.0,0.0,0.0,0.0,0.0,0.0,0.0,0.0,0.0,0.0,0.0,0.0,0.0,0.0,0.0,0.0,0.0,0.0,0.0,0.0,-1.1971,-1.2051,-1.1757,-1.2158,-1.2478,-1.2612,-1.2625,0.0,0.0,-1.3013,-1.3227,-1.3694,-1.3868,-1.4456,-1.5511,-1.6353,-1.6847,-1.7021,-1.7355,-1.7515,-1.7515,-1.7382,-1.67,-1.5618,-1.5364,0.0,0.0,0.0,0.0,0.0,0.0,0.0,0.0,0.0,0.0,0.0,0.0,0.0,0.0,0.0,0.0,0.0,0.0,0.0,0.0,0.0,0.0,0.0,0.0,0.0,0.0,0.0,0.0,0.0,0.0,0.0,0.0,0.0,0.0,0.0,0.0,0.0,0.0,0.0,-1.5266,-1.5037,-1.5275,-1.5909,-1.6523,0.0,0.0,0.0,0.0,0.0,0.0,0.0,0.0,0.0,-1.3672,-1.3762,-1.3479,-1.2572,-1.2003,-1.1657,-1.1657,-1.0948,-1.0765,-1.0846,-1.0846,-1.0894,-1.0968,-1.0968,-1.1333,-1.2044,-1.2661,-1.3824,-1.5199,0.0,0.0,0.0,0.0,-1.5964,-1.6223,0.0,0.0,0.0,0.0,0.0,0.0,0.0,0.0,0.0,0.0,0.0,0.0,-1.2238,-1.2732,-1.2973,-1.2665,-1.3133,-1.344,-1.344,-1.3507,-1.3574,-1.3654,-1.3734,-1.3975,-1.4416,-1.4776,-1.5471,-1.65,-1.7088,-1.7528,-1.7822,-1.8277,-1.849,-1.849,-1.849,-1.7756,-1.65,-1.6259,-1.5912,-1.5471,0.0,0.0,0.0,0.0,0.0,0.0,0.0,0.0,0.0,0.0,0.0,0.0,0.0,0.0,0.0,0.0,0.0,0.0,0.0,0.0,0.0,0.0,0.0,0.0,0.0,0.0,0.0,0.0,0.0,0.0,0.0,0.0,0.0,0.0,0.0,0.0,0.0,-1.5454,-1.5297,-1.5926,-1.5653,-1.5982,0.0,0.0,0.0,0.0,0.0,0.0,-1.4461,-1.4471,-1.3807,-1.2346,-1.2354,-1.1788,-1.0778,-1.0778,-1.0799,-1.0833,-1.0833,-1.0894,-1.1002,-1.1002,-1.1063,-1.1165,-1.1165,-1.1165,-1.1276,-1.2117,-1.2791,-1.3498,-1.418,-1.5121,-1.5734,-1.4857,-1.4817,-1.4985,0.0,0.0,0.0,0.0,0.0,0.0,0.0,0.0,0.0,0.0,0.0,-1.316,-1.3146,-1.3667,-1.3895,-1.3601,-1.3868,-1.4041,-1.4041,-1.4295,-1.4576,-1.487,-1.5137,-1.5297,-1.5324,-1.5899,-1.6486,-1.7101,-1.7702,-1.8156,-1.845,-1.8477,-1.849,-1.849,-1.849,-1.8437,-1.8303,-1.7448,-1.7061,-1.6941,-1.5805,0.0,0.0,0.0,0.0,0.0,0.0,0.0,0.0,0.0,0.0,0.0,0.0,0.0,0.0,0.0,0.0,0.0,0.0,0.0,0.0,0.0,0.0,0.0,0.0,0.0,0.0,0.0,0.0,0.0,0.0,0.0,0.0,0.0,0.0,0.0,0.0,0.0,0.0,-1.464,-1.372,0.0,0.0,0.0,0.0,-1.5102,-1.4998,-1.4471,-1.3029,-1.3037,-1.2354,-1.0836,-1.0836,-1.0778,-1.0934,-1.0934,-1.1009,-1.1138,-1.1138,-1.1145,-1.1151,-1.1151,-1.1158,-1.1165,-1.1165,-1.1165,-1.1158,-1.1276,-1.2127,-1.3436,-1.3252,-1.4353,-1.5624,-1.374,-1.3155,-1.3193,0.0,0.0,0.0,-1.0618,-1.0795,-1.0955,-1.0862,-1.1423,-1.1944,-1.2118,-1.2772,-1.328,-1.3467,-1.4188,-1.4603,-1.4496,-1.511,-1.5337,-1.495,-1.5378,-1.5444,-1.499,-1.5244,-1.5658,-1.6219,-1.682,-1.7315,-1.7729,-1.813,-1.8477,-1.8771,-1.9158,-1.9426,-1.9613,-1.9613,-1.9613,-1.9546,-1.8464,-1.7903,-1.7675,-1.7048,-1.6406,0.0,0.0,0.0,0.0,0.0,0.0,0.0,0.0,0.0,0.0,0.0,0.0,0.0,0.0,0.0,0.0,0.0,0.0,0.0,0.0,0.0,0.0,0.0,0.0,0.0,0.0,0.0,0.0,0.0,0.0,0.0,0.0,0.0,0.0,0.0,0.0,0.0,-1.4765,-1.3708,0.0,-1.4893,-1.4131,-1.3707,-1.3707,-1.2805,-1.1996,-1.1548,-1.1519,-1.134,-1.0867,-1.0955,-1.1029,-1.1084,-1.1084,-1.1111,-1.1165,-1.1165,-1.1212,-1.1307,-1.1307,-1.1362,-1.1457,-1.1457,-1.1457,-1.1457,-1.1457,-1.172,-1.2027,-1.1969,-1.2346,-1.2736,-1.2008,-1.1895,-1.1811,0.0,-1.0618,0.0,-1.0618,-1.0715,-1.0875,-1.0982,-1.149,-1.2051,-1.2545,-1.3213,-1.3801,-1.4188,-1.4843,-1.5297,-1.5391,-1.5845,-1.5952,-1.5565,-1.6005,-1.6059,-1.5578,-1.5925,-1.6406,-1.6981,-1.7382,-1.7836,-1.8343,-1.8544,-1.8891,-1.9372,-1.9666,-1.996,-2.0227,-2.0227,-2.0227,-2.0187,-1.9399,-1.8851,-1.845,-1.7943,-1.7395,-1.682,0.0,0.0,0.0,0.0,0.0,0.0,0.0,0.0,0.0,0.0,0.0,0.0,0.0,0.0,0.0,0.0,0.0,0.0,0.0,0.0,0.0,0.0,0.0,0.0,0.0,0.0,0.0,0.0,0.0,0.0,0.0,0.0,0.0,0.0,-1.3985,-1.3213,-1.4768,-1.3369,-1.2685,-1.4131,-1.3088,-1.2203,-1.2203,-1.1445,-1.0867,-1.0867,-1.0968,-1.1023,-1.1023,-1.1111,-1.1185,-1.124,-1.124,-1.1267,-1.1314,-1.1314,-1.1396,-1.1538,-1.1538,-1.1626,-1.1769,-1.1769,-1.1769,-1.1769,-1.1769,-1.1647,-1.145,-1.1301,-1.1206,-1.1165,-1.1165,-1.1165,-1.1165,0.0,-1.0618,-1.0618,-1.0618,-1.0631,-1.0675,-1.0955,-1.1503,-1.2211,-1.3106,-1.3975,-1.4736,-1.5324,-1.5658,-1.5952,-1.6233,-1.6019,-1.5845,-1.5845,-1.6139,-1.6433,-1.6727,-1.7275,-1.7582,-1.7582,-1.7595,-1.805,-1.8918,-1.8931,-1.9386,-2.0227,-1.996,-1.9987,-2.0254,-2.0254,-2.0254,-2.0254,-2.0254,-1.992,-1.9332,-1.845,-1.809,-1.7983,0.0,0.0,0.0,0.0,0.0,0.0,0.0,0.0,0.0,0.0,0.0,0.0,0.0,0.0,0.0,0.0,0.0,0.0,0.0,0.0,0.0,0.0,0.0,0.0,0.0,0.0,0.0,0.0,0.0,0.0,0.0,0.0,0.0,-1.4392,-1.3573,-1.3369,-1.4683,-1.2338,-1.1322,-1.2701,-1.1696,-1.0955,-1.0955,-1.1084,-1.1165,-1.1165,-1.1165,-1.1172,-1.1172,-1.1172,-1.1253,-1.1402,-1.1402,-1.1484,-1.1633,-1.1633,-1.1708,-1.1837,-1.1837,-1.1918,-1.206,-1.206,-1.206,-1.206,-1.206,-1.206,-1.202,-1.1579,-1.1321,-1.1192,-1.1192,-1.1185,-1.1185,-1.0618,-1.0618,-1.0618,-1.0618,-1.0728,-1.0969,-1.1263,-1.181,-1.2505,-1.3414,-1.4108,-1.4736,-1.5324,-1.5845,-1.6099,-1.5965,-1.6259,-1.638,-1.6166,-1.682,-1.7261,-1.7341,-1.7488,-1.7582,-1.7582,-1.8009,-1.8464,-1.8918,-1.9132,-1.9586,-2.0241,-2.0374,-2.0588,-2.0869,-2.0869,-2.0869,-2.0855,-2.0641,-2.0468,-2.0254,-1.9586,-1.9065,-1.8637,0.0,0.0,0.0,0.0,0.0,0.0,0.0,0.0,0.0,0.0,0.0,0.0,0.0,0.0,0.0,0.0,0.0,0.0,0.0,0.0,0.0,0.0,0.0,0.0,0.0,0.0,0.0,0.0,0.0,0.0,0.0,-1.3769,-1.2707,-1.3248,-1.2208,-1.1417,-1.1896,-1.129,-1.1001,-1.1354,-1.126,-1.1104,-1.1104,-1.1138,-1.1165,-1.1165,-1.1267,-1.1328,-1.1328,-1.1436,-1.1565,-1.1708,-1.1708,-1.1789,-1.1938,-1.1938,-1.1959,-1.1999,-1.1999,-1.202,-1.206,-1.206,-1.206,-1.206,-1.206,-1.206,-1.2047,-1.1925,-1.185,-1.1816,-1.1816,-1.1742,-1.1647,-1.0618,-1.0618,-1.0618,-1.0618,-1.0701,-1.0955,-1.1369,-1.1931,-1.2665,-1.3694,-1.4335,-1.4937,-1.5511,-1.5992,-1.6259,-1.6206,-1.6513,-1.674,-1.682,-1.7422,-1.7716,-1.7582,-1.7702,-1.7769,-1.7769,-1.825,-1.8758,-1.9292,-1.9466,-1.9907,-2.0601,-2.0655,-2.0828,-2.1109,-2.1109,-2.1109,-2.1096,-2.0802,-2.0748,-2.0802,-2.0214,-1.9773,-1.9399,-1.8744,-1.8424,-1.8263,-1.7756,-1.7662,-1.7729,-1.7435,0.0,0.0,0.0,0.0,0.0,0.0,0.0,0.0,0.0,0.0,0.0,0.0,0.0,0.0,0.0,0.0,0.0,0.0,0.0,0.0,0.0,0.0,0.0,0.0,-1.2564,-1.1595,-1.1865,-1.1272,-1.0717,-1.0717,-1.0907,-1.1036,-1.1036,-1.1172,-1.126,-1.126,-1.1314,-1.1355,-1.1355,-1.1436,-1.1511,-1.1572,-1.166,-1.1775,-1.1925,-1.1925,-1.1972,-1.206,-1.206,-1.2094,-1.2155,-1.2155,-1.2189,-1.2244,-1.2244,-1.2244,-1.2244,-1.2244,-1.2244,-1.2237,0.0,0.0,0.0,0.0,-1.1904,-1.1823,-1.0618,-1.0618,-1.0618,-1.0618,-1.0618,-1.0742,-1.1289,-1.1877,-1.2679,-1.3881,-1.4549,-1.515,-1.5765,-1.6099,-1.638,-1.6633,-1.6687,-1.6954,-1.7542,-1.7836,-1.7889,-1.7649,-1.7903,-1.805,-1.805,-1.841,-1.8985,-1.98,-1.9867,-2.0307,-2.1096,-2.0842,-2.0869,-2.1109,-2.1109,-2.1109,-2.1096,-2.0842,-2.0869,-2.1056,-2.0468,-2.0227,-2.012,-1.9052,-1.8945,-1.9225,-1.817,-1.7956,-1.8143,-1.7836,0.0,0.0,0.0,0.0,0.0,0.0,0.0,0.0,0.0,0.0,0.0,0.0,0.0,0.0,0.0,0.0,0.0,0.0,0.0,0.0,0.0,0.0,0.0,0.0,-1.1143,-1.0297,-1.0426,-1.0616,-1.0744,-1.0744,-1.1009,-1.1192,-1.1192,-1.1328,-1.1416,-1.1416,-1.1558,-1.1647,-1.1647,-1.166,0.0,0.0,0.0,-1.1932,-1.2088,-1.2088,-1.2094,-1.2115,-1.2115,-1.2182,-1.2318,-1.2318,-1.2379,-1.2501,-1.2501,-1.2501,-1.2501,-1.2501,-1.2501,-1.2474,-1.2216,-1.2115,-1.2094,-1.1938,-1.187,-1.1837,-1.0618,-1.0618,-1.0618,-1.0618,-1.0618,-1.0739,-1.1022,-1.157,-1.2385,-1.3574,-1.4242,-1.4923,-1.5738,-1.6099,-1.6299,-1.6353,-1.6567,-1.6954,-1.7542,-1.7635,-1.7756,-1.7956,-1.8009,-1.805,-1.805,-1.8798,-1.9399,-1.98,-2.0281,-2.0708,-2.1109,-2.1056,-2.1056,-2.1109,-2.1109,-2.1109,-2.1109,-2.1042,-2.1056,-2.1056,-2.0468,-2.0227,-2.0187,-1.972,-1.9466,-1.9332,-1.9105,-1.9065,-1.9065,-1.8771,-1.8664,-1.8624,-1.8384,-1.8277,0.0,0.0,0.0,0.0,0.0,0.0,0.0,0.0,0.0,0.0,0.0,0.0,0.0,0.0,0.0,0.0,0.0,0.0,0.0,-1.2268,-1.0971,-1.0107,-1.0127,-1.0582,-1.0907,-1.0907,-1.1165,-1.1348,-1.1348,-1.1484,-1.1572,-1.1572,-1.1708,-1.1789,-1.1789,-1.1904,-1.1993,-1.2013,-1.202,-1.2094,-1.2244,-1.2244,-1.2305,-1.242,-1.242,0.0,-1.2461,-1.2461,-1.2474,-1.2501,-1.2501,-1.2501,-1.2501,-1.2501,-1.2501,-1.2494,-1.244,-1.242,-1.24,-1.2257,-1.2121,-1.1999,-1.0618,-1.0618,-1.0618,-1.0618,-1.0618,-1.0715,-1.1142,-1.1583,-1.2238,-1.3293,-1.3814,-1.4362,-1.5097,-1.5565,-1.5952,-1.6246,-1.6954,-1.7435,-1.7569,-1.7729,-1.7809,-1.7809,-1.8103,-1.8343,-1.8477,-1.9212,-1.98,-2.0241,-2.0535,-2.0828,-2.1109,-2.1109,-2.1109,-2.1109,-2.1109,-2.1109,-2.1096,-2.0949,-2.0975,-2.1069,-2.0628,-2.0361,-2.0174,-1.9586,-1.9452,-1.9546,-1.9252,-1.9332,-1.9559,-1.9412,-1.9452,-1.9559,-1.9412,-1.9265,-1.9092,0.0,0.0,0.0,0.0,0.0,0.0,0.0,0.0,0.0,0.0,0.0,0.0,0.0,0.0,-1.5397,-1.4697,0.0,-1.1996,-1.1271,-1.0557,-1.0188,-1.0263,-1.0663,-1.0948,-1.0948,-1.128,-1.1504,-1.1504,-1.164,-1.1728,-1.1728,-1.1864,-1.1945,-1.1945,-1.202,-1.2094,-1.2176,-1.2176,-1.2244,-1.2393,-1.2393,-1.2433,-1.2501,-1.2501,-1.2501,-1.2501,-1.2501,-1.2542,-1.2617,-1.2617,-1.2657,-1.2732,-1.2732,-1.2732,-1.2732,-1.2732,-1.2596,-1.2379,-1.223,-1.2081,-1.1925,-1.0618,-1.0618,-1.0618,-1.0618,-1.0618,-1.0742,-1.1263,-1.1597,-1.2104,-1.2999,-1.3373,-1.3801,-1.4456,-1.499,-1.5578,-1.6219,-1.7194,-1.7702,-1.7515,-1.741,-1.7462,-1.7595,-1.7939,-1.8276,-1.8918,-1.9559,-2.0147,-2.0681,-2.0735,-2.0882,-2.1109,-2.1109,-2.1109,-2.1109,-2.1109,-2.1109,-2.1096,-2.0855,-2.0895,-2.1082,-2.0735,-2.0481,-2.0227,-1.9345,-1.9305,-1.9666,-1.9239,-1.9399,-1.9813,-1.9867,-2.004,-2.0227,-2.0227,-2.004,-1.9746,-1.9452,-1.9332,0.0,0.0,0.0,0.0,0.0,0.0,0.0,0.0,-1.877,-1.8607,-1.8842,-1.7443,-1.5677,-1.4421,-1.3004,-1.1534,-1.0211,-1.0222,-1.0365,-1.0473,-1.0778,-1.1002,-1.1029,-1.1402,-1.166,-1.166,-1.1789,-1.1877,-1.1877,-1.202,-1.2108,-1.2108,-1.2135,-1.2203,-1.2325,-1.2332,-1.2386,-1.2501,-1.2501,-1.2501,-1.2501,-1.2528,-1.2549,-1.2549,-1.2576,-1.2657,-1.2773,-1.2773,-1.2847,-1.2963,-1.2963,-1.2963,-1.2963,-1.2963,-1.2718,-1.2359,-1.2203,-1.2067,-1.1938,-1.0618,-1.0618,-1.0618,-1.0618,-1.0618,-1.0675,-1.0995,-1.1289,-1.1797,-1.2679,-1.3066,-1.3587,-1.4429,-1.4816,-1.5351,-1.6206,-1.6633,-1.6954,-1.7181,-1.6056,-1.5959,-1.7569,-1.6917,-1.7229,-1.8918,-1.9746,-2.0347,-2.0681,-2.0935,-2.1082,-2.1109,-2.1109,-2.1109,-2.1109,-2.1109,-2.1109,-2.1109,-2.1069,-2.1082,-2.1056,-2.0508,-2.0414,-2.0535,-1.9653,-1.9359,-1.9439,-1.9639,-1.9746,-1.984,-2.0094,-2.0214,-2.0227,-2.0227,-2.004,-1.9746,-1.9452,-1.9185,-1.8905,-1.8584,-1.8704,-1.8918,-1.8878,-1.9078,-1.9279,0.0,-1.8235,-1.7172,-1.7313,-1.4826,-1.2741,-1.2681,-1.1387,-1.0218,-1.0229,-1.0378,-1.0473,-1.0487,-1.0867,-1.1185,-1.1328,-1.1619,-1.1809,-1.1809,-1.1945,-1.2033,-1.2033,-1.2176,-1.2264,-1.2264,-1.2386,-1.2461,-1.2474,-1.2481,-1.2488,-1.2501,-1.2501,-1.2501,-1.2501,-1.2637,-1.2705,-1.2712,-1.2847,-1.2922,-1.2935,-1.2935,-1.2942,-1.2963,-1.2963,-1.2963,-1.2963,-1.2963,-1.2847,-1.2664,-1.2508,-1.244,-1.2386,-1.0808,-1.0739,-1.0618,-1.0618,-1.0618,-1.0715,-1.1169,-1.1343,-1.1744,-1.2701,-1.2943,-1.3213,-1.3935,-1.4736,-1.5431,-1.5965,-1.6433,-1.6834,-1.7128,-1.5774,-1.5362,-1.6274,-1.6356,-1.6839,-1.7865,-1.9376,-2.0454,-2.0922,-2.1056,-2.1109,-2.1109,-2.1109,-2.1109,-2.1109,-2.1109,-2.1109,-2.1109,-2.1109,-2.1015,-2.0842,-2.0588,-2.0361,-2.012,-1.976,-1.9519,-1.9386,-1.9506,-1.9653,0.0,-2.0134,-2.0347,-2.0521,-2.0695,-2.0548,-2.0254,-1.996,-1.9786,-1.9626,-1.9332,-1.9212,-1.9185,-1.9185,-1.9279,-1.9372,-1.9372,-1.8881,-1.8402,-1.8402,-1.6724,-1.4932,-1.3939,-1.2665,-1.1456,0.0,-1.0527,-1.0622,-1.0622,-1.1009,-1.1321,-1.1382,-1.1809,-1.206,-1.1972,-1.2101,-1.2196,-1.2196,-1.2332,-1.2413,-1.2413,-1.2467,-1.2501,-1.2501,-1.2501,-1.2542,-1.263,-1.2637,-1.2678,-1.2773,-1.2834,-1.2868,-1.2868,-1.2929,-1.301,-1.3091,-1.318,-1.3214,-1.3214,-1.3214,-1.3214,-1.3214,-1.3214,-1.3125,-1.2949,-1.2623,-1.2447,-1.2345,-1.1116,-1.0942,-1.0795,-1.0795,-1.0795,-1.0942,-1.1356,-1.149,-1.181,-1.2532,-1.2625,-1.2879,-1.3574,-1.4616,-1.5391,-1.5685,-1.6179,-1.666,-1.7114,-1.539,-1.4687,-1.5505,-1.5209,-1.541,-1.6389,-1.8401,-1.9698,-2.0333,-2.0724,-2.1029,-2.1109,-2.1109,-2.1109,-2.1109,-2.1109,-2.1109,-2.1109,-2.1029,-2.0869,-2.0668,-2.0508,-2.0227,-1.9907,-1.9746,-1.9599,-1.9492,-1.9492,-1.9679,-1.996,-2.0254,-2.0494,-2.0708,-2.0922,-2.0788,-2.0494,-2.0201,-2.0054,-1.9947,-1.9733,-1.9533,-1.9372,-1.9372,-1.9372,-1.9372,-1.9372,-1.9372,-1.9386,-1.9466,-1.7946,-1.6299,-1.5197,-1.3609,-1.204,-1.0802,-1.0649,-1.0731,-1.0778,-1.1138,-1.1423,-1.1504,-1.1972,-1.2264,-1.2189,-1.2284,-1.2345,-1.2345,-1.244,-1.2501,-1.2501,-1.2501,-1.2522,-1.2562,-1.2562,-1.2637,-1.2793,-1.2793,-1.2854,-1.2963,-1.3003,-1.3017,-1.3024,-1.3064,-1.3139,-1.3241,-1.3356,-1.3403,-1.3403,-1.3403,-1.3403,-1.3403,-1.3403,-1.3308,-1.3125,-1.2766,-1.2535,-1.2386,-1.141,-1.141,-1.1396,-1.1396,-1.1396,-1.141,-1.1423,-1.1677,-1.1971,-1.2278,-1.2318,-1.2652,-1.3547,-1.4442,-1.5097,-1.5391,-1.5685,-1.6219,-1.7101,-1.4287,-1.353,-1.5764,-1.3155,-1.2579,-1.4498,-1.6272,-1.7613,-1.8387,-1.9923,-2.0842,-2.1109,-2.1109,-2.1109,-2.1109,-2.1109,-2.1109,-2.1096,-2.0815,-2.0681,-2.0628,-2.0054,-1.9987,-2.016,-1.9599,-1.9546,-1.9786,-1.9786,-1.9973,-2.0267,-2.0561,-2.0668,-2.0681,-2.0681,-2.0481,-2.0187,-1.9893,-1.9613,-1.9399,-1.9386,-1.9372,-1.9372,-1.9372,-1.9372,-1.9372,-1.9372,-1.9372,-1.9452,-1.9733,-1.7218,-1.5054,-1.5363,-1.278,-1.0541,-1.069,-1.0717,-1.0772,-1.0921,-1.1199,-1.1497,-1.1782,-1.2094,-1.2345,-1.2474,-1.2494,-1.2494,-1.2494,-1.2501,-1.2501,-1.2501,-1.2501,-1.2569,-1.2718,-1.2725,-1.28,-1.2949,-1.2956,-1.2956,-1.2963,-1.3098,-1.3166,-1.3173,-1.3322,-1.339,-1.3397,-1.3397,-1.3403,-1.3403,-1.3403,-1.3403,-1.3403,-1.3403,-1.3308,-1.3152,-1.3003,-1.2847,-1.2698,-1.1717,-1.1557,-1.1423,-1.1423,-1.1583,-1.1717,-1.1717,-1.181,-1.2051,-1.2532,-1.2222,0.0,0.0,0.0,0.0,0.0,-1.3668,-1.4663,-1.5195,-1.3485,-1.2873,-1.3784,-1.2229,-1.189,-1.2858,-1.4606,-1.6375,-1.8238,-1.8875,-1.9788,-2.1109,-2.1109,-2.1109,-2.1109,-2.1109,-2.1109,-2.1096,-2.0802,-2.0561,-2.0347,-1.996,-1.9746,-1.9639,-1.9439,-1.9546,-1.98,0.0,-1.9867,-2.0027,-2.0508,-2.0681,-2.0708,-2.0909,-2.0762,-2.0468,-2.0174,-1.988,-1.9653,-1.9653,-1.9519,-1.9372,-1.9372,-1.9372,-1.9372,-1.9372,-1.9519,-1.9679,-1.9773,-1.9235,-1.842,-1.7462,-1.5445,-1.3761,-1.2668,-1.1592,-1.0887,-1.0941,-1.1375,-1.1721,-1.1816,-1.2182,-1.2447,-1.2494,-1.2501,-1.2501,-1.2501,-1.2501,-1.2549,-1.2651,-1.2651,-1.2725,-1.2881,-1.2881,-1.2956,-1.3098,-1.3105,-1.3152,-1.3254,-1.3302,-1.3322,-1.3322,-1.3376,-1.3403,-1.3403,-1.3403,-1.3403,-1.3403,-1.3403,-1.3403,-1.3403,-1.3403,-1.3247,-1.3024,-1.2976,-1.28,-1.2569,0.0,-1.1944,-1.177,-1.1877,-1.1971,0.0,0.0,0.0,0.0,0.0,0.0,0.0,0.0,0.0,0.0,0.0,0.0,-1.3374,-1.4453,-1.3153,-1.2761,-1.3667,-1.2488,-1.2126,-1.2648,-1.3712,-1.5119,-1.6952,-1.7626,-1.8741,-2.0039,-2.075,-2.1109,-2.1109,-2.1109,-2.1109,-2.1096,-2.0802,-2.0508,-2.0214,-1.992,-1.9626,-1.9372,-1.9372,-1.9479,0.0,-1.988,-1.996,-2.0027,-2.0508,-2.0681,-2.0708,-2.0895,-2.0681,-2.0347,-2.0254,-1.996,-1.9639,-1.9639,-1.9506,-1.9372,-1.9372,-1.9372,-1.9399,-1.9492,-1.9666,-1.9853,-2.0067,-1.9911,-1.9424,-1.838,-1.6465,-1.4642,-1.3541,-1.1993,-1.1063,-1.1172,-1.1606,-1.1932,-1.1986,-1.2298,-1.2501,-1.2501,-1.2549,-1.2583,-1.2583,-1.2583,-1.2651,-1.2807,-1.2813,-1.2881,-1.303,-1.3037,-1.3105,-1.3254,-1.3254,-1.3302,-1.3403,-1.3403,-1.3403,-1.3403,-1.3403,-1.3403,-1.3403,-1.3403,-1.3403,-1.3403,-1.3403,-1.3403,-1.3403,-1.3403,-1.322,-1.2963,-1.2963,-1.2766,-1.2501,0.0,0.0,-1.2385,0.0,0.0,0.0,0.0,0.0,0.0,0.0,0.0,0.0,0.0,0.0,0.0,0.0,0.0,0.0,-1.4453,-1.3079,-1.3057,-1.5117,-1.3678,-1.3046,-1.3467,-1.3598,-1.3943,-1.4381,-1.6487,-1.7696,-1.8093,-2.0,-2.0903,-2.1042,-2.1042,-2.1056,-2.1042,-2.0762,-2.0468,-2.0187,-1.9893,-1.9599,-1.9345,-1.9345,-1.9359,-1.9439,-1.9987,-2.0214,-2.0281,-2.0575,-2.0668,-2.0655,-2.0655,-2.0267,-1.988,-2.0147,-1.9826,-1.9386,-1.9386,-1.9372,-1.9372,-1.9372,-1.9372,-1.9439,-1.9733,-1.9813,-1.9987,-2.0561,-1.9412,-1.8356,-1.8617,-1.5804,-1.3532,-1.3587,-1.2301,-1.1287,-1.1579,-1.1884,-1.2128,0.0,0.0,0.0,0.0,0.0,-1.2739,-1.2752,-1.2745,-1.2807,-1.2963,-1.2969,-1.3037,-1.318,-1.3186,-1.3254,-1.3397,-1.3403,-1.3403,-1.3403,-1.3403,-1.3403,-1.3403,-1.3403,-1.3403,-1.3403,-1.3403,-1.3403,-1.3403,-1.3403,-1.3403,-1.3403,-1.3403,-1.322,-1.2963,-1.2963,-1.2766,-1.2501,0.0,0.0,0.0,0.0,0.0,0.0,0.0,0.0,0.0,0.0,0.0,0.0,0.0,0.0,0.0,0.0,0.0,0.0,-1.1194,-1.1815,-1.2445,-1.3025,-1.2951,-1.3018,-1.3138,-1.3446,-1.3972,-1.4381,-1.4961,-1.5976,-1.7422,-1.7924,-1.8936,-2.0134,-2.0134,-2.0254,-2.0441,-2.0147,-1.9973,-1.988,-1.9599,-1.9305,-1.9038,-1.9038,-1.9172,-1.9386,-1.9533,-1.9867,-2.0281,-2.0575,-2.0535,-2.0347,-2.0347,-2.0241,-2.0134,-2.0214,-1.9973,-1.9693,-1.9693,-1.9533,-1.9372,-1.9372,-1.9372,-1.9439,-1.9733,-1.996,-2.0227,-2.0601,-2.0467,-2.0436,-2.0721,-1.7882,-1.5452,-1.5798,-1.34,0.0,-1.1606,-1.1972,0.0,-1.2284,0.0,-1.2549,-1.2664,-1.2705,0.0,-1.3044,-1.2963,-1.2969,-1.3112,-1.3119,-1.3186,-1.3336,-1.3342,-1.3363,-1.3403,-1.3403,-1.3403,-1.3403,-1.3403,-1.3403,-1.3403,-1.3403,-1.3403,-1.3403,-1.3403,-1.3403,-1.3403,-1.3403,-1.3403,-1.3403,-1.3403,-1.322,-1.2963,-1.2963,-1.2766,-1.2501,0.0,0.0,0.0,0.0,0.0,0.0,0.0,0.0,0.0,0.0,0.0,0.0,0.0,0.0,0.0,0.0,0.0,0.0,0.0,-1.078,-1.1577,-1.2274,-1.3141,-1.3656,-1.3976,-1.4126,-1.4428,-1.4679,-1.4427,-1.5052,-1.6594,-1.7053,-1.8071,-1.9786,-1.9666,-1.9773,-2.0027,-1.9733,-1.9533,0.0,0.0,-1.8998,-1.8731,-1.8731,-1.8838,-1.9011,-1.9279,-1.9733,-2.0241,-2.0281,-2.0267,-2.0227,-2.0227,-2.0147,-2.004,-2.004,-1.984,-1.9613,-1.9613,-1.9492,-1.9372,-1.9372,-1.9372,-1.9479,-1.9893,-2.012,-2.0347,-2.0775,-2.1002,-2.1203,-2.1496,-1.8638,-1.6225,-1.6672,-1.3891,0.0,-1.1803,-1.2142,-1.2386,0.0,-1.2515,0.0,-1.2718,-1.2847,-1.2996,-1.3159,-1.3098,-1.3119,-1.3268,-1.3275,-1.3308,-1.3397,-1.3403,-1.3403,-1.3403,-1.3403,-1.3403,-1.3403,-1.3403,-1.3403,-1.3403,-1.3403,-1.3403,-1.3403,-1.3403,-1.3403,-1.3403,-1.3403,-1.3403,-1.3397,-1.3329,-1.3159,-1.2949,-1.2888,-1.2705,-1.2501,0.0,0.0,0.0,0.0,0.0,0.0,0.0,0.0,0.0,0.0,0.0,0.0,0.0,0.0,0.0,0.0,0.0,0.0,0.0,0.0,-1.0663,-1.2024,-1.3347,-1.4271,-1.4838,-1.4977,-1.4896,-1.4723,-1.4166,-1.4489,-1.5545,-1.6343,-1.764,-1.9364,-1.9203,-1.9372,-1.9666,-1.9372,-1.9105,-1.8865,-1.8865,-1.8691,-1.8437,0.0,-1.8437,-1.8504,-1.9092,-1.9653,-2.008,-1.9826,-1.9933,-2.0174,-2.0134,-1.9947,-1.9746,-1.9746,-1.9559,-1.9372,-1.9372,-1.9372,-1.9372,-1.9372,-1.9372,-1.9506,-2.0054,-2.0174,-2.0347,-2.0935,-2.1056,-2.1149,-2.1496,-1.8638,-1.6265,-1.6696,-1.4039,-1.1884,-1.204,-1.2318,-1.2501,-1.2501,-1.2637,-1.2739,-1.2759,-1.301,-1.318,-1.32,-1.32,-1.3261,-1.3397,-1.3403,-1.3403,-1.3403,-1.3403,-1.3403,-1.3403,-1.3403,-1.3403,-1.3403,-1.3403,-1.3403,-1.3403,-1.3403,-1.3403,-1.3403,-1.3403,-1.3403,-1.3403,-1.3403,-1.3403,-1.339,-1.3254,-1.3105,-1.2942,-1.2807,-1.2651,-1.2501,0.0,0.0,0.0,0.0,0.0,0.0,0.0,0.0,0.0,0.0,-0.7344,-0.6905,0.0,0.0,0.0,0.0,0.0,0.0,0.0,0.0,0.0,-1.0439,-1.1885,-1.2815,-1.2899,-1.4196,-1.4402,-1.3341,-1.3148,-1.3291,-1.3759,-1.3884,-1.5055,-1.6952,-1.7831,-1.8571,-1.9052,-1.8771,-1.8611,-1.8571,-1.8571,-1.8384,-1.813,-1.813,0.0,0.0,-1.8784,-1.9225,-1.9506,-1.9466,-1.9639,-1.9826,-1.9599,-1.9479,-1.9439,-1.9439,-1.9412,-1.9372,-1.9372,-1.9372,-1.9372,-1.9372,-1.9372,-1.9452,-1.98,-1.988,-2.004,-2.0628,-2.0748,-2.0922,-2.1456,-1.8638,-1.6265,-1.6696,-1.4039,-1.1884,-1.204,-1.2318,-1.2501,0.0,-1.2637,-1.2779,-1.2908,-1.3071,0.0,-1.3349,-1.3363,-1.337,-1.3397,-1.3403,-1.3403,-1.3403,-1.3403,-1.3403,-1.3403,-1.3403,-1.3403,-1.3403,-1.3403,-1.3403,-1.3403,-1.3403,-1.3403,-1.3403,-1.3403,-1.3403,-1.3403,-1.3403,-1.3403,-1.3397,-1.337,-1.32,-1.2956,-1.2929,-1.2745,-1.2501,0.0,0.0,0.0,0.0,0.0,0.0,0.0,-0.7627,-0.7319,-0.7558,-0.714,-0.6909,-0.7476,-0.7211,-0.7197,0.0,0.0,0.0,0.0,0.0,0.0,-0.8924,-1.0375,-1.1269,-1.1372,-1.2777,-1.3601,-1.37,0.0,-1.3122,-1.3865,-1.336,-1.4083,-1.6085,-1.6501,-1.7277,-1.845,-1.8143,-1.8023,-1.8023,-1.8023,-1.7929,-1.7809,-1.7809,0.0,0.0,-1.8597,-1.9078,-1.9573,-1.9412,-1.9559,-1.9746,-1.9452,-1.9372,-1.9372,-1.9372,-1.9372,-1.9372,-1.9372,-1.9372,-1.9372,-1.9372,-1.9372,-1.9439,-1.9733,-1.98,-1.992,-2.0361,-2.0575,-2.0855,-2.1443,-1.8599,-1.6425,-1.6877,-1.4186,-1.1979,-1.2054,-1.2318,-1.2528,-1.261,-1.2759,-1.2908,-1.3057,-1.3207,-1.3322,-1.3397,-1.3403,-1.3403,-1.3403,-1.3403,-1.3403,-1.3403,-1.3403,-1.3403,-1.3403,-1.3403,-1.3403,-1.3403,-1.3403,-1.3403,-1.3403,-1.3403,-1.3403,-1.3403,-1.3403,-1.3403,-1.3403,-1.3403,-1.3403,-1.3383,-1.3234,-1.3085,-1.2942,-1.2779,-1.263,-1.2501,0.0,0.0,0.0,0.0,0.0,0.0,0.0,-0.6871,-0.6898,-0.7197,-0.7238,-0.721,-0.7129,-0.7272,-0.7434,0.0,0.0,0.0,0.0,0.0,0.0,0.0,0.0,0.0,-0.9911,0.0,0.0,0.0,-1.2537,0.0,0.0,0.0,0.0,0.0,-1.5232,-1.6172,-1.7577,-1.7609,-1.7582,0.0,0.0,-1.7582,-1.7595,0.0,0.0,0.0,0.0,-1.9065,-1.9679,-1.9439,-1.9519,-1.9666,-1.9439,-1.9372,-1.9372,-1.9372,-1.9372,-1.9372,-1.9372,-1.9372,-1.9372,-1.9372,-1.9372,-1.9426,-1.9653,-1.9706,-1.9786,-2.008,-2.0321,-2.0557,-2.0811,-1.8313,-1.631,-1.648,-1.3946,-1.2013,-1.2013,-1.2298,-1.2556,-1.2712,-1.2868,0.0,-1.3159,-1.3308,-1.3403,-1.3403,-1.3403,-1.3403,-1.3403,-1.3403,-1.3403,-1.3403,-1.3403,-1.3403,-1.3403,-1.3403,-1.3403,-1.3403,-1.3403,-1.3403,-1.3403,-1.3403,-1.3403,-1.3403,-1.3403,-1.3403,-1.3403,-1.3403,-1.3403,-1.3376,-1.3112,-1.299,-1.2929,-1.2651,-1.2528,-1.2501,0.0,0.0,0.0,0.0,0.0,0.0,0.0,-0.7109,-0.721,-0.7516,-0.7556,-0.7604,-0.7719,-0.7516,-0.7434,0.0,0.0,0.0,0.0,0.0,0.0,0.0,0.0,0.0,0.0,0.0,0.0,0.0,0.0,0.0,0.0,0.0,0.0,0.0,0.0,-1.5565,-1.6126,-1.7158,0.0,0.0,0.0,0.0,0.0,0.0,0.0,0.0,0.0,-1.9105,-1.9399,-1.9372,-1.9386,-1.9399,-1.9372,-1.9372,-1.9372,-1.9372,-1.9372,-1.9372,-1.9372,-1.9372,-1.9372,-1.9372,-1.9372,-1.9372,-1.9399,-1.9412,-1.9492,-1.9773,-1.9867,-1.9637,-1.88,-1.7012,-1.5336,-1.4275,-1.2836,-1.185,-1.185,-1.2223,-1.2556,-1.2712,-1.2868,-1.3017,-1.3159,-1.3308,-1.3403,-1.3403,-1.3403,-1.3403,-1.3403,-1.3403,-1.3403,-1.3403,-1.3403,-1.3403,-1.3403,-1.3403,-1.3403,-1.3403,-1.3403,-1.3403,-1.3403,-1.3403,-1.3403,-1.3403,-1.3403,-1.3403,-1.3403,-1.3403,-1.3403,-1.3383,-1.322,-1.3071,-1.2942,-1.2773,-1.2623,-1.2501,0.0,0.0,0.0,0.0,0.0,0.0,-0.7455,-0.7394,-0.7421,-0.7814,-0.7862,-0.7848,-0.7814,-0.7787,-0.7801,-0.7855,0.0,0.0,0.0,0.0,0.0,0.0,0.0,0.0,0.0,0.0,-0.9252,-1.0203,0.0,0.0,0.0,0.0,0.0,0.0,0.0,0.0,-1.4483,-1.6655,0.0,0.0,0.0,0.0,0.0,0.0,0.0,0.0,0.0,0.0,-1.9372,-1.9372,-1.9372,-1.9372,-1.9372,-1.9372,-1.9372,-1.9372,-1.9372,-1.9372,-1.9372,-1.9372,-1.9372,-1.9372,-1.9372,-1.9372,-1.9372,-1.9372,-1.9153,-1.8307,-1.8208,-1.8034,-1.6888,-1.5424,-1.4245,-1.3976,-1.2888,-1.1938,-1.1843,-1.2216,-1.2596,-1.284,-1.2922,-1.3051,-1.3288,-1.3363,-1.3403,-1.3403,-1.3403,-1.3403,-1.3403,-1.3403,-1.3403,-1.3403,-1.3403,-1.3403,-1.3403,-1.3403,-1.3403,-1.3403,-1.3403,-1.3403,-1.3403,-1.3403,-1.3403,-1.3403,-1.3403,-1.3403,-1.3403,-1.3403,-1.3403,-1.3383,-1.3234,-1.3085,-1.2942,-1.2786,-1.263,-1.2501,0.0,0.0,0.0,0.0,0.0,-0.7102,-0.7719,-0.7672,-0.7685,-0.7997,-0.8038,-0.7997,-0.7889,-0.7977,-0.8038,-0.8038,-0.8038,0.0,0.0,0.0,0.0,0.0,0.0,0.0,0.0,0.0,-0.8428,-0.941,-0.941,-0.9498,0.0,0.0,0.0,0.0,0.0,0.0,0.0,0.0,0.0,0.0,0.0,0.0,0.0,0.0,0.0,0.0,0.0,0.0,0.0,0.0,0.0,-1.9359,-1.8881,-1.901,-1.9372,-1.9372,-1.9372,-1.9372,-1.9372,-1.9372,-1.9372,-1.9372,-1.9372,-1.9243,-1.8765,-1.8648,-1.8286,-1.6609,-1.6391,-1.6199,-1.511,-1.4038,-1.3269,-1.3158,-1.2481,-1.1952,-1.1843,-1.2257,-1.2664,-1.2929,-1.2996,-1.3125,-1.339,-1.3417,-1.341,-1.3403,-1.3403,-1.3403,-1.3403,-1.3403,-1.3403,-1.3403,-1.3403,-1.3403,-1.3403,-1.3403,-1.3403,-1.3403,-1.3403,-1.3403,-1.3403,-1.3403,-1.3403,-1.3403,-1.3403,-1.3403,-1.3403,-1.3403,-1.3403,-1.3383,-1.3234,-1.3112,-1.3003,-1.2854,-1.2732,-1.2637,0.0,0.0,0.0,0.0,0.0,0.0,-0.7767,-0.7936,-0.8031,-0.8038,-0.8038,-0.8038,-0.8038,-0.8038,-0.8038,-0.8038,-0.8038,0.0,0.0,0.0,0.0,0.0,0.0,0.0,0.0,0.0,-0.8038,-0.8038,-0.8038,-0.8119,-0.8269,-0.8269,-0.8425,0.0,0.0,0.0,0.0,0.0,0.0,0.0,0.0,0.0,-1.7649,0.0,0.0,0.0,0.0,0.0,0.0,0.0,0.0,0.0,0.0,-1.8169,-1.9372,-1.9372,-1.9372,-1.9372,-1.9372,-1.9372,-1.9372,-1.9372,-1.9372,-1.8997,-1.7443,-1.6962,-1.6609,-1.4955,-1.4609,-1.4328,-1.3199,-1.2925,-1.2588,-1.1365,-1.1538,-1.183,-1.183,-1.2352,-1.2786,-1.2942,-1.3085,-1.3247,-1.3431,-1.3451,-1.3437,-1.3403,-1.3403,-1.3403,-1.3403,-1.3403,-1.3403,-1.3403,-1.3403,-1.3403,-1.3403,-1.3403,-1.3403,-1.3403,-1.3403,-1.3403,-1.3403,-1.3403,-1.3403,-1.3403,-1.3403,-1.3403,-1.3403,-1.3403,-1.3403,-1.3383,-1.3234,-1.3173,-1.3152,-1.301,-1.2956,-1.2956,0.0,0.0,0.0,0.0,0.0,0.0,0.0,-0.7923,-0.7923,-0.8024,-0.8038,-0.8038,-0.8038,-0.8038,-0.8038,-0.8038,-0.8038,0.0,0.0,0.0,0.0,0.0,0.0,0.0,0.0,-0.814,-0.8201,-0.8201,-0.8296,-0.8364,-0.8418,-0.8418,-0.852,-0.8817,-1.019,0.0,0.0,0.0,0.0,0.0,0.0,-1.4234,-1.4708,0.0,0.0,0.0,0.0,0.0,0.0,0.0,0.0,0.0,0.0,0.0,0.0,-1.6149,-1.7701,-1.9372,-1.9372,-1.8648,-1.804,-1.9127,-1.7701,-1.6267,-1.6844,-1.6138,-1.4955,-1.3287,-1.2928,-1.2587,-1.1411,-1.1191,-1.1257,-1.0955,-1.1477,-1.183,-1.183,-1.2213,-1.2661,-1.2816,-1.307,-1.2229,-0.9049,-1.1605,-1.3471,-1.3437,-1.3437,-1.3424,-1.3403,-1.3403,-1.3403,-1.3403,-1.3403,-1.3403,-1.3403,-1.3403,-1.3403,-1.3403,-1.3403,-1.3403,-1.3403,-1.3403,-1.3403,-1.3403,-1.3403,-1.3458,-1.3559,-1.3559,-1.3614,-1.3695,-1.3648,-1.3505,-1.3322,-1.3275,-1.3132,-1.2963,0.0,0.0,0.0,0.0,0.0,0.0,0.0,-0.7957,-0.7929,-0.8024,-0.8038,-0.8038,-0.8038,-0.8038,-0.8038,-0.8038,-0.8038,0.0,0.0,0.0,0.0,0.0,0.0,0.0,-0.8126,-0.8275,-0.835,-0.835,-0.8438,-0.8513,-0.8567,-0.8567,-0.8648,-0.8798,-0.9761,-0.9712,0.0,0.0,0.0,0.0,-1.2516,-1.2832,-1.3295,0.0,0.0,0.0,0.0,0.0,0.0,0.0,0.0,0.0,0.0,0.0,0.0,0.0,-1.5548,-1.7572,-1.7572,-1.6856,-1.6374,-1.7337,-1.6031,-1.4718,-1.5063,-1.4361,-1.3287,-1.1615,-1.1308,-1.1202,-1.0482,-1.0446,-1.0697,-1.1056,-1.1518,-1.1891,-1.1925,-1.2387,-1.2128,-1.0666,-1.2204,-1.1628,-0.7208,-0.7722,-0.9068,-1.0742,-1.2445,-1.3464,-1.3437,-1.3437,-1.3437,-1.3437,-1.3417,-1.3403,-1.3403,-1.3403,-1.3403,-1.3403,-1.3403,-1.3403,-1.3403,-1.3403,-1.3431,-1.3485,-1.3485,-1.3573,0.0,-1.3709,-1.3763,-1.3838,-1.3838,-1.3695,-1.3485,-1.3485,-1.3336,-1.3125,0.0,0.0,0.0,0.0,0.0,0.0,0.0,-0.8038,-0.8038,-0.8038,-0.8038,-0.8038,-0.8038,-0.8038,-0.8038,-0.8038,0.0,0.0,0.0,0.0,0.0,0.0,0.0,0.0,-0.8282,-0.8425,-0.8499,-0.8499,-0.8506,-0.8587,-0.8723,-0.8723,-0.8804,-0.894,-0.894,-0.894,-0.894,-0.894,-0.9699,-1.0891,-1.0891,-1.1755,0.0,0.0,0.0,0.0,0.0,0.0,0.0,0.0,0.0,0.0,0.0,0.0,0.0,0.0,0.0,0.0,0.0,-1.4361,-1.448,-1.4599,-1.448,-1.3885,-1.2449,-1.2097,0.0,-1.0072,-0.9951,-1.01,-1.0263,-1.0534,-1.088,-1.1321,-1.1647,-1.1864,-1.2172,-1.2503,-1.1149,-0.6686,-0.9943,-1.0802,-0.6707,-0.2514,-0.1677,-0.5864,-1.0085,-1.265,-1.2991,-1.2991,-1.2991,-1.2991,-1.2932,-1.3065,-1.341,-1.3403,-1.3403,-1.3403,-1.3403,-1.3403,-1.3417,-1.3417,-1.3498,-1.3648,-1.3648,-1.3722,-1.3858,-1.3858,-1.3865,-1.3871,-1.3871,-1.3777,-1.3648,-1.3648,-1.3539,-1.3403,0.0,0.0,0.0,0.0,0.0,0.0,0.0,0.0,0.0,0.0,-0.8038,-0.8038,-0.8038,-0.8038,-0.8038,0.0,0.0,0.0,0.0,0.0,0.0,0.0,0.0,0.0,-0.8431,-0.8581,-0.8655,-0.8655,-0.8771,-0.8852,-0.8886,-0.8886,-0.8906,-0.894,-0.894,-0.894,-0.894,-0.894,-0.9044,-0.9375,-0.9375,-0.9588,0.0,0.0,0.0,0.0,-1.24,-1.3343,0.0,0.0,0.0,0.0,0.0,0.0,0.0,0.0,-1.0657,-1.0899,-1.0899,0.0,-1.3048,-1.4242,-1.2689,-1.114,0.0,-1.1261,-1.0336,-0.9971,-1.0025,-1.0127,-1.0392,-1.069,-1.1002,-1.1335,-1.1742,-1.2135,-1.2185,-1.2462,-0.9793,-0.2518,-0.2524,-0.2692,-0.1681,-0.0673,-0.0504,-0.1509,-0.2515,-0.4695,-0.8052,-0.8219,-0.8219,-0.8219,-0.8211,-0.9898,-1.3311,-1.3451,-1.3437,-1.3437,-1.341,-1.3464,-1.3573,-1.3573,-1.3654,-1.379,-1.379,-1.3878,-1.4014,-1.4014,-1.4089,-1.419,-1.419,-1.4027,-1.379,-1.379,-1.3627,-1.3403,0.0,0.0,0.0,0.0,0.0,0.0,0.0,0.0,0.0,0.0,0.0,-0.8038,-0.8038,-0.8038,0.0,0.0,0.0,0.0,0.0,0.0,0.0,0.0,0.0,-0.8506,-0.8587,-0.8737,-0.8818,-0.8818,-0.8899,-0.894,-0.894,-0.894,-0.894,-0.894,-0.894,-0.894,-0.894,-0.894,-0.894,-0.894,-0.894,0.0,0.0,0.0,0.0,0.0,-1.0638,-1.1265,0.0,-1.2302,-1.1741,-1.104,0.0,0.0,0.0,0.0,-0.9822,-0.9822,-0.9822,-1.0422,-1.1253,-1.2217,-1.114,-1.0058,-1.0899,-1.0479,-0.9971,-1.0127,-1.0263,-1.0446,-1.0744,-1.092,-1.1221,-1.1653,-1.1891,-1.2132,-1.2364,-0.9048,-0.5018,-0.0505,0.0,0.0,0.0,0.0,0.0,0.0,0.0,-0.1008,-0.3524,-0.5544,-0.6727,-0.6727,-0.6727,-0.7901,-1.0257,-1.0409,-1.1282,-1.3412,-1.3392,-1.3459,-1.3435,-1.3606,-1.3686,-1.3814,-1.38,-1.4055,-1.4197,-1.4183,-1.4224,-1.4299,-1.4299,-1.4109,-1.3838,-1.3838,-1.3654,-1.3403,0.0,0.0,0.0,0.0,0.0,0.0,0.0,0.0,0.0,0.0,0.0,0.0,0.0,0.0,0.0,0.0,0.0,0.0,0.0,0.0,0.0,0.0,-0.8574,-0.8723,-0.8743,-0.8872,-0.894,-0.894,-0.896,-0.8974,-0.8974,-0.8994,-0.9008,-0.9008,-0.8981,-0.8974,-0.8967,-0.8947,-0.894,-0.894,-0.894,0.0,0.0,0.0,0.0,0.0,0.0,0.0,0.0,-0.953,-0.9591,-0.9632,-0.9747,0.0,0.0,0.0,0.0,0.0,-0.9822,-0.9836,-0.9849,-0.9829,-0.9822,-0.9836,-0.9883,-0.9992,-1.0141,-1.0344,-1.0582,-1.0846,-1.1151,-1.1302,-1.1305,-1.1139,-1.1657,-1.2204,-1.2427,-0.5352,0.0,0.0,0.0,0.0,0.0,0.0,0.0,0.0,0.0,0.0,0.0,-0.3539,-0.5738,-0.5738,-0.5746,-0.5738,-0.5714,-0.5712,-0.7604,-1.1306,-1.2015,-1.2441,-1.2397,-1.2576,-1.2823,-1.2765,-1.2916,-1.3513,-1.436,-1.4326,-1.4312,-1.4306,-1.4306,-1.4129,-1.3871,-1.3851,-1.3668,-1.3431,0.0,0.0,0.0,0.0,0.0,0.0,0.0,0.0,0.0,0.0,0.0,0.0,0.0,0.0,0.0,0.0,0.0,0.0,0.0,0.0,0.0,-0.8635,-0.8682,-0.8771,-0.8899,-0.8927,-0.894,-0.894,-0.9062,-0.9123,-0.9123,-0.9252,-0.9313,-0.9306,-0.9178,-0.9123,-0.911,-0.8988,-0.894,-0.894,-0.894,0.0,0.0,0.0,0.0,0.0,0.0,0.0,0.0,-0.9408,-0.9503,-0.9612,-0.9639,0.0,0.0,0.0,0.0,0.0,-0.9822,-0.9917,-0.9985,-0.9849,-0.9822,-0.989,-1.0148,-1.0229,-1.0358,-1.0765,-1.088,-1.0873,-1.1047,-1.1389,-1.045,-0.6997,-0.9744,-1.2402,-1.2472,-0.5352,0.0,0.0,0.0,0.0,0.0,0.0,0.0,0.0,0.0,0.0,0.0,-0.0674,-0.101,-0.101,-0.102,-0.1025,-0.1024,-0.1022,-0.1362,-0.2047,-0.5851,-0.7649,-0.7724,-0.7724,-0.7949,-0.8207,-0.8203,-1.055,-1.4216,-1.4209,-1.4373,-1.434,-1.434,-1.4217,-1.4021,-1.3885,-1.3736,-1.3573,0.0,0.0,0.0,0.0,0.0,0.0,0.0,0.0,0.0,0.0,0.0,0.0,0.0,0.0,0.0,0.0,0.0,0.0,0.0,0.0,-0.8635,-0.871,-0.8791,-0.8866,-0.894,-0.894,-0.8974,-0.9055,-0.9123,-0.9198,-0.9279,-0.9347,-0.9381,-0.9374,-0.9218,-0.915,-0.9144,-0.9001,-0.894,-0.894,0.0,0.0,0.0,0.0,0.0,0.0,0.0,0.0,0.0,0.0,-0.9306,-0.9395,-0.9557,0.0,0.0,0.0,0.0,0.0,-0.9822,-0.9869,-0.9951,-1.0046,-1.0127,-1.0222,-1.0365,-1.0521,-1.0704,-1.0907,-1.1077,-1.1147,-1.1325,-0.9714,-0.7219,-0.3145,-0.8135,-1.0992,-0.6346,-0.2349,0.0,0.0,0.0,0.0,0.0,0.0,0.0,0.0,0.0,0.0,0.0,0.0,0.0,0.0,0.0,0.0,0.0,0.0,0.0,-0.0,-0.2095,-0.3167,-0.3021,-0.3021,-0.3208,-0.3222,-0.3219,-0.447,-0.6803,-0.9313,-1.0387,-1.0733,-1.3261,-1.4251,-1.4249,-1.3817,-1.3688,-1.3607,0.0,0.0,0.0,0.0,0.0,0.0,0.0,0.0,0.0,0.0,0.0,0.0,0.0,0.0,0.0,0.0,0.0,0.0,0.0,-0.8587,-0.8723,-0.8764,-0.8872,-0.894,-0.894,-0.894,-0.9028,-0.9205,-0.9245,-0.9354,-0.9537,-0.9503,-0.9483,-0.9476,-0.9327,-0.9239,-0.9198,-0.9049,-0.8967,-0.894,0.0,0.0,0.0,0.0,0.0,0.0,0.0,0.0,0.0,0.0,0.0,0.0,0.0,0.0,0.0,-0.9781,-0.9842,-0.9869,-0.9829,-0.9897,-1.0032,-1.027,-1.0385,-1.048,-1.0616,-1.0867,-1.0933,-1.1104,-1.1214,-1.1365,-1.1501,-0.7608,-0.3432,-0.0486,-0.5434,-0.7342,-0.0841,0.0,0.0,0.0,0.0,0.0,0.0,0.0,0.0,0.0,0.0,0.0,0.0,0.0,0.0,0.0,0.0,0.0,0.0,0.0,0.0,0.0,0.0,0.0,0.0,0.0,0.0,0.0,0.0,0.0,-0.0358,-0.3934,-0.5363,-0.6073,-1.2011,-1.4272,-1.4277,-1.3844,-1.3743,-1.3709,0.0,0.0,0.0,0.0,0.0,0.0,0.0,0.0,0.0,0.0,0.0,0.0,0.0,0.0,0.0,0.0,0.0,0.0,0.0,-0.8696,-0.8771,-0.8913,-0.8933,-0.894,-0.894,-0.894,-0.9076,-0.9367,-0.951,-0.972,-0.9998,-0.9856,-0.9788,-0.9781,-0.9639,-0.9496,-0.9354,-0.9205,-0.9062,-0.894,-0.894,0.0,0.0,0.0,0.0,0.0,0.0,0.0,0.0,0.0,0.0,0.0,0.0,0.0,-0.9639,-0.9781,-0.9924,-0.9998,-0.9863,-1.0127,-1.0453,-1.0473,-1.0385,-1.0439,-1.0989,-1.1121,-1.1153,-1.1429,-1.141,-1.1227,-1.1568,-0.5431,-0.0328,-0.0,-0.0498,-0.0673,-0.0168,0.0,0.0,0.0,0.0,0.0,0.0,0.0,0.0,0.0,0.0,0.0,0.0,0.0,0.0,0.0,0.0,0.0,0.0,0.0,0.0,0.0,0.0,0.0,0.0,0.0,0.0,0.0,0.0,0.0,-0.0,-0.0359,-0.0538,-0.1431,-1.061,-1.4319,-1.4297,-1.4277,-1.4242,-1.4021,0.0,0.0,0.0,0.0,0.0,0.0,0.0,0.0,0.0,0.0,0.0,0.0,0.0,0.0,0.0,0.0,0.0,0.0,0.0,-0.8798,-0.8879,-0.894,-0.894,-0.894,-0.894,-0.9117,-0.9361,-0.9652,-0.9808,-0.9937,-1.0046,-0.989,-0.9822,-0.9815,-0.9673,-0.9523,-0.9367,-0.9218,-0.9069,-0.894,-0.894,-0.894,0.0,0.0,0.0,0.0,0.0,0.0,0.0,0.0,-0.8974,-0.9062,-0.9306,-0.9422,-0.9517,-0.9747,-0.993,-1.0039,-0.9978,-1.0109,-1.03,-1.0731,-1.088,-1.105,-1.1274,-1.1382,-1.0794,-0.8494,-0.792,-0.8581,-1.1121,-0.5297,0.0,0.0,0.0,0.0,0.0,0.0,0.0,0.0,0.0,0.0,0.0,0.0,0.0,0.0,0.0,0.0,0.0,0.0,0.0,0.0,0.0,0.0,0.0,0.0,0.0,0.0,0.0,0.0,0.0,0.0,0.0,0.0,0.0,0.0,0.0,0.0,0.0,-0.0359,-0.3941,-0.717,-1.0228,-1.3236,-1.4346,-1.4216,0.0,0.0,0.0,0.0,0.0,0.0,0.0,0.0,0.0,0.0,0.0,0.0,0.0,0.0,0.0,0.0,0.0,0.0,-0.8777,-0.8879,-0.894,-0.894,-0.894,-0.896,-0.9008,-0.93,-0.9578,-0.9822,-1.0025,-1.01,-1.0046,-0.989,-0.9822,-0.9815,-0.9673,-0.9523,-0.9367,-0.9218,-0.9069,-0.894,-0.894,-0.894,0.0,0.0,0.0,0.0,0.0,0.0,0.0,0.0,-0.894,-0.8988,-0.9286,-0.9381,-0.9449,-0.9795,-0.9881,-1.0002,-1.0002,-1.0148,-1.006,-0.9261,-1.0101,-1.1239,-1.1435,-1.062,-0.9393,-0.7892,-0.5654,-0.4744,-0.7397,-0.3576,0.0,0.0,0.0,0.0,0.0,0.0,0.0,0.0,0.0,0.0,0.0,0.0,0.0,0.0,0.0,0.0,0.0,0.0,0.0,0.0,0.0,0.0,0.0,0.0,0.0,0.0,0.0,0.0,0.0,0.0,0.0,0.0,0.0,0.0,0.0,0.0,0.0,0.0,0.0,-0.199,-0.5285,-0.8525,-1.0755,-1.213,0.0,0.0,0.0,0.0,0.0,0.0,0.0,0.0,-0.8479,-0.8479,-0.8479,0.0,0.0,0.0,0.0,0.0,0.0,0.0,-0.8927,-0.894,-0.894,-0.894,-0.894,-0.9008,-0.915,-0.9449,-0.968,-0.9822,-1.0127,-1.0202,-1.0046,-0.989,-0.9822,-0.9815,-0.9673,-0.9523,-0.9367,-0.9218,-0.9069,-0.894,-0.894,-0.894,-0.894,0.0,0.0,0.0,0.0,0.0,0.0,0.0,-0.894,-0.8988,-0.9286,-0.9381,-0.9469,-0.9917,-1.0049,-1.0055,-1.0055,-1.0399,-0.9775,-0.5884,-0.8062,-1.1305,-1.1482,-0.8639,-0.6899,-1.0678,-0.5306,0.0,0.0,0.0,0.0,0.0,0.0,0.0,0.0,0.0,0.0,0.0,0.0,0.0,0.0,0.0,0.0,0.0,0.0,0.0,0.0,0.0,0.0,0.0,0.0,0.0,0.0,0.0,0.0,0.0,0.0,0.0,0.0,0.0,0.0,0.0,0.0,0.0,0.0,0.0,0.0,0.0,0.0,0.0,0.0,0.0,-0.2968,-0.7097,0.0,0.0,0.0,0.0,0.0,0.0,0.0,0.0,-0.8479,-0.8479,-0.8479,0.0,0.0,0.0,0.0,0.0,0.0,0.0,-0.9083,-0.8994,-0.8981,-0.9083,-0.8994,-0.896,-0.9001,-0.9401,-0.9781,-1.0148,-1.0127,-1.0093,-1.0046,-0.989,-0.9768,-0.9673,-0.9632,-0.9462,-0.9218,-0.9171,-0.9069,-0.894,-0.894,-0.894,-0.894,0.0,0.0,0.0,0.0,0.0,0.0,0.0,0.0,0.0,-0.9286,-0.9381,-0.9469,-0.9917,-1.0161,-1.0189,-1.031,-0.8628,-0.6668,-0.5549,-0.8385,-1.1457,-1.1508,-1.0638,-0.8618,-0.4402,-0.1598,0.0,0.0,0.0,0.0,0.0,0.0,0.0,0.0,0.0,0.0,0.0,0.0,0.0,0.0,0.0,0.0,0.0,0.0,0.0,0.0,0.0,0.0,0.0,0.0,0.0,0.0,0.0,0.0,0.0,0.0,0.0,0.0,0.0,0.0,0.0,0.0,0.0,0.0,0.0,0.0,0.0,0.0,0.0,0.0,0.0,-0.0941,-0.2085,0.0,0.0,0.0,0.0,0.0,0.0,-0.8662,-0.8662,-0.8662,-0.8662,-0.8662,-0.8662,0.0,0.0,0.0,-0.8804,-0.8886,-0.8974,-0.9062,-0.8988,-0.8981,-0.9062,-0.8988,-0.8967,-0.9022,-0.9286,-0.9591,-0.9924,-1.0005,-1.0019,-0.9958,-0.9808,-0.9693,-0.9605,-0.9544,-0.9381,-0.915,-0.915,-0.9069,-0.894,-0.894,-0.894,-0.894,0.0,0.0,0.0,0.0,0.0,0.0,0.0,0.0,0.0,-0.9286,-0.9381,-0.9496,-0.9948,-1.0189,-1.0317,-1.0419,-0.7005,-0.3237,-0.3219,-0.7447,-1.1656,-1.1889,-0.9306,-0.5719,-0.0964,0.0,0.0,0.0,0.0,0.0,0.0,0.0,0.0,0.0,0.0,0.0,0.0,0.0,0.0,0.0,0.0,0.0,0.0,0.0,0.0,0.0,0.0,0.0,0.0,0.0,0.0,0.0,0.0,0.0,0.0,0.0,0.0,0.0,0.0,0.0,0.0,0.0,0.0,0.0,0.0,0.0,0.0,0.0,0.0,0.0,0.0,0.0,0.0,0.0,0.0,0.0,0.0,0.0,0.0,-0.894,-0.894,-0.894,-0.894,-0.894,-0.894,0.0,0.0,0.0,-0.892,-0.892,-0.8927,-0.894,-0.894,-0.8947,-0.896,-0.896,-0.9022,-0.915,-0.9164,-0.9239,-0.9361,-0.9781,-0.9917,-0.9781,-0.9666,-0.9598,-0.9564,-0.9435,-0.9293,-0.913,-0.913,-0.9055,-0.894,-0.894,-0.894,-0.894,-0.894,0.0,0.0,0.0,0.0,0.0,0.0,0.0,0.0,-0.9273,-0.9367,-0.953,-0.9888,-1.0136,-1.0373,-1.0684,-0.589,-0.0856,-0.0141,-0.5262,-1.0662,-1.1183,-0.5494,0.0,0.0,0.0,0.0,0.0,0.0,0.0,0.0,0.0,0.0,0.0,0.0,0.0,0.0,0.0,0.0,0.0,0.0,0.0,0.0,0.0,0.0,0.0,0.0,0.0,0.0,0.0,0.0,0.0,0.0,0.0,0.0,0.0,0.0,0.0,0.0,0.0,0.0,0.0,0.0,0.0,0.0,0.0,0.0,0.0,0.0,0.0,0.0,0.0,0.0,0.0,0.0,0.0,0.0,0.0,0.0,-0.894,-0.894,-0.894,-0.894,-0.894,-0.894,-0.894,-0.8832,0.0,-0.89,-0.8784,-0.8729,-0.8863,-0.8863,-0.9015,-0.913,-0.9117,-0.9123,-0.915,-0.9273,-0.9293,-0.9205,-0.9415,-0.951,-0.9476,-0.9564,-0.9483,-0.9252,-0.934,-0.9232,-0.8988,-0.8988,-0.8967,-0.894,-0.894,-0.894,-0.894,-0.894,-0.894,0.0,0.0,0.0,0.0,0.0,0.0,0.0,-0.9144,-0.9286,-0.9483,-0.9771,-0.9967,-1.0195,-1.0558,-0.9642,-0.7002,-0.1407,-0.1313,-0.2601,-0.2707,-0.1291,0.0,0.0,0.0,0.0,0.0,0.0,0.0,0.0,0.0,0.0,0.0,0.0,0.0,0.0,0.0,0.0,0.0,0.0,0.0,0.0,0.0,0.0,0.0,0.0,0.0,0.0,0.0,0.0,0.0,0.0,0.0,0.0,0.0,0.0,0.0,0.0,0.0,0.0,0.0,0.0,0.0,0.0,0.0,0.0,0.0,0.0,0.0,0.0,0.0,0.0,0.0,0.0,0.0,0.0,0.0,0.0,0.0,0.0,-0.8937,-0.887,-0.8863,-0.8947,-0.8872,-0.8791,0.0,0.0,-0.7446,-0.6706,-0.6774,-0.6769,-0.7472,-0.8948,-0.9164,-0.9229,-0.9171,-0.9178,-0.9144,-0.9049,-0.913,-0.9239,-0.9381,-0.9388,-0.9306,-0.9157,-0.9239,-0.915,-0.8947,-0.9015,-0.9001,-0.894,-0.894,-0.8981,-0.9042,-0.9042,-0.9089,-0.9144,-0.9069,0.0,0.0,0.0,0.0,0.0,0.0,0.0,-0.9248,-0.9705,-0.9916,-0.9365,-0.6373,-0.5583,-0.4737,-0.0871,0.0,0.0,0.0,0.0,0.0,0.0,0.0,0.0,0.0,0.0,0.0,0.0,0.0,0.0,0.0,0.0,0.0,0.0,0.0,0.0,0.0,0.0,0.0,0.0,0.0,0.0,0.0,0.0,0.0,0.0,0.0,0.0,0.0,0.0,0.0,0.0,0.0,0.0,0.0,0.0,0.0,0.0,0.0,0.0,0.0,0.0,0.0,0.0,0.0,0.0,0.0,0.0,0.0,0.0,0.0,0.0,0.0,0.0,0.0,0.0,0.0,0.0,0.0,-0.8109,-0.8097,-0.8152,-0.8125,-0.8094,-0.8239,0.0,0.0,0.0,-0.3803,-0.3711,-0.5088,-0.7968,-0.8363,-0.8514,-0.8489,-0.8845,-0.8994,-0.8954,-0.8863,-0.911,-0.9347,-0.9211,-0.9144,-0.9117,-0.9144,-0.9089,-0.8981,-0.9103,-0.9096,-0.9015,-0.9015,-0.9089,-0.9198,-0.9218,-0.9313,-0.9408,-0.9306,-0.9252,-0.9218,-0.9089,0.0,0.0,0.0,0.0,-0.8285,-0.9336,-0.9664,-0.8397,-0.1775,0.0,0.0,0.0,0.0,0.0,0.0,0.0,0.0,0.0,0.0,0.0,0.0,0.0,0.0,0.0,0.0,0.0,0.0,0.0,0.0,0.0,0.0,0.0,0.0,0.0,0.0,0.0,0.0,0.0,0.0,0.0,0.0,0.0,0.0,0.0,0.0,0.0,0.0,0.0,0.0,0.0,0.0,0.0,0.0,0.0,0.0,0.0,0.0,0.0,0.0,0.0,0.0,0.0,0.0,0.0,0.0,0.0,0.0,0.0,0.0,0.0,0.0,0.0,0.0,0.0,0.0,0.0,-0.5035,-0.5111,-0.5134,-0.5054,-0.6152,-0.8612,-0.8066,-0.553,-0.0937,0.0,0.0,-0.4933,-0.5146,-0.5256,-0.5492,-0.8028,-0.9243,-0.889,-0.8891,-0.8964,-0.9211,-0.9171,-0.9089,-0.8974,-0.9096,-0.9144,-0.9123,-0.9144,-0.9218,-0.932,-0.932,-0.9334,-0.9367,-0.9496,-0.9564,-0.9591,-0.9693,-0.9666,-0.9432,-0.9408,-0.7514,0.0,0.0,0.0,-0.5585,-0.8303,-0.9395,-0.8375,-0.1754,0.0,0.0,0.0,0.0,0.0,0.0,0.0,0.0,0.0,0.0,0.0,0.0,0.0,0.0,0.0,0.0,0.0,0.0,0.0,0.0,0.0,0.0,0.0,0.0,0.0,0.0,0.0,0.0,0.0,0.0,0.0,0.0,0.0,0.0,0.0,0.0,0.0,0.0,0.0,0.0,0.0,0.0,0.0,0.0,0.0,0.0,0.0,0.0,0.0,0.0,0.0,0.0,0.0,0.0,0.0,0.0,0.0,0.0,0.0,0.0,0.0,0.0,0.0,0.0,0.0,0.0,0.0,0.0,-0.1994,-0.1943,-0.203,-0.2537,-0.3849,-0.3635,-0.2523,-0.0108,0.0,-0.0557,-0.1973,-0.1941,-0.2043,-0.2174,-0.3436,-0.4911,-0.6473,-0.646,-0.6508,-0.6618,-0.8493,-0.9225,-0.9055,-0.9042,-0.9076,-0.9157,-0.9245,-0.9367,-0.9517,-0.9598,-0.9613,-0.9652,-0.9632,-0.9861,-1.0009,-1.0039,-0.9964,-0.9897,-0.9385,-0.8199,-0.635,-0.3011,0.0,0.0,0.0,-0.4084,-0.3652,-0.0831,0.0,0.0,0.0,0.0,0.0,0.0,0.0,0.0,0.0,0.0,0.0,0.0,0.0,0.0,0.0,0.0,0.0,0.0,0.0,0.0,0.0,0.0,0.0,0.0,0.0,0.0,0.0,0.0,0.0,0.0,0.0,0.0,0.0,0.0,0.0,0.0,0.0,0.0,0.0,0.0,0.0,0.0,0.0,0.0,0.0,0.0,0.0,0.0,0.0,0.0,0.0,0.0,0.0,0.0,0.0,0.0,0.0,0.0,0.0,0.0,0.0,0.0,0.0,0.0,0.0,0.0,0.0,0.0,0.0,0.0,0.0,0.0,0.0,0.0,0.0,0.0,0.0,0.0,0.0,0.0,0.0,0.0,0.0,-0.1143,-0.3342,-0.4085,-0.447,-0.4604,-0.7914,-0.8923,-0.8099,-0.8626,-0.9055,-0.9164,-0.9361,-0.9523,-0.9686,-0.9787,-0.9896,-0.9838,-0.8893,-0.875,-0.891,-0.8986,-0.9685,-1.029,-0.96,-0.8127,-0.585,-0.1372,0.0,0.0,0.0,0.0,0.0,0.0,0.0,0.0,0.0,0.0,0.0,0.0,0.0,0.0,0.0,0.0,0.0,0.0,0.0,0.0,0.0,0.0,0.0,0.0,0.0,0.0,0.0,0.0,0.0,0.0,0.0,0.0,0.0,0.0,0.0,0.0,0.0,0.0,0.0,0.0,0.0,0.0,0.0,0.0,0.0,0.0,0.0,0.0,0.0,0.0,0.0,0.0,0.0,0.0,0.0,0.0,0.0,0.0,0.0,0.0,0.0,0.0,0.0,0.0,0.0,0.0,0.0,0.0,0.0,0.0,0.0,0.0,0.0,0.0,0.0,0.0,0.0,0.0,0.0,0.0,0.0,0.0,0.0,0.0,0.0,0.0,0.0,0.0,0.0,-0.0114,-0.0235,-0.3065,-0.4516,-0.4571,-0.7858,-0.7847,-0.5264,-0.7778,-0.9051,-0.9171,-0.9469,-0.968,-0.9849,-1.0055,-1.0117,-0.9758,-0.648,-0.5182,-0.5188,-0.5594,-0.7873,-1.0625,-1.0596,-0.6133,-0.0379,-0.0128,0.0,0.0,0.0,0.0,0.0,0.0,0.0,0.0,0.0,0.0,0.0,0.0,0.0,0.0,0.0,0.0,0.0,0.0,0.0,0.0,0.0,0.0,0.0,0.0,0.0,0.0,0.0,0.0,0.0,0.0,0.0,0.0,0.0,0.0,0.0,0.0,0.0,0.0,0.0,0.0,0.0,0.0,0.0,0.0,0.0,0.0,0.0,0.0,0.0,0.0,0.0,0.0,0.0,0.0,0.0,0.0,0.0,0.0,0.0,0.0,0.0,0.0,0.0,0.0,0.0,0.0,0.0,0.0,0.0,0.0,0.0,0.0,0.0,0.0,0.0,0.0,0.0,0.0,0.0,0.0,0.0,0.0,0.0,0.0,0.0,0.0,0.0,0.0,0.0,0.0,-0.0,-0.1071,-0.167,-0.1662,-0.2833,-0.3875,-0.5017,-0.7738,-0.8909,-0.9007,-0.94,-0.9741,-1.0191,-1.034,-1.0489,-1.034,-0.9038,-0.5737,-0.1829,-0.1952,0.0,-0.3816,-0.3777,-0.2131,0.0,0.0,0.0,0.0,0.0,0.0,0.0,0.0,0.0,0.0,0.0,0.0,0.0,0.0,0.0,0.0,0.0,0.0,0.0,0.0,0.0,0.0,0.0,0.0,0.0,0.0,0.0,0.0,0.0,0.0,0.0,0.0,0.0,0.0,0.0,0.0,0.0,0.0,0.0,0.0,0.0,0.0,0.0,0.0,0.0,0.0,0.0,0.0,0.0,0.0,0.0,0.0,0.0,0.0,0.0,0.0,0.0,0.0,0.0,0.0,0.0,0.0,0.0,0.0,0.0,0.0,0.0,0.0,0.0,0.0,0.0,0.0,0.0,0.0,0.0,0.0,0.0,0.0,0.0,0.0,0.0,0.0,0.0,0.0,0.0,0.0,0.0,0.0,0.0,0.0,0.0,0.0,0.0,0.0,0.0,0.0,0.0,-0.1164,-0.3356,-0.5096,-0.6503,-0.7486,-0.7758,-0.8705,-1.0175,-1.0551,-1.0718,-1.0379,-0.8043,-0.412,0.0,0.0,0.0,0.0,0.0,0.0,0.0,0.0,0.0,0.0,0.0,0.0,0.0,0.0,0.0,0.0,0.0,0.0,0.0,0.0,0.0,0.0,0.0,0.0,0.0,0.0,0.0,0.0,0.0,0.0,0.0,0.0,0.0,0.0,0.0,0.0,0.0,0.0,0.0,0.0,0.0,0.0,0.0,0.0,0.0,0.0,0.0,0.0,0.0,0.0,0.0,0.0,0.0,0.0,0.0,0.0,0.0,0.0,0.0,0.0,0.0,0.0,0.0,0.0,0.0,0.0,0.0,0.0,0.0,0.0,0.0,0.0,0.0,0.0,0.0,0.0,0.0,0.0,0.0,0.0,0.0,0.0,0.0,0.0,0.0,0.0,0.0,0.0,0.0,0.0,0.0,0.0,0.0,0.0,0.0,0.0,0.0,0.0,0.0,0.0,0.0,0.0,0.0,0.0,0.0,0.0,-0.1631,-0.437,-0.4343,-0.6337,-0.9545,-1.0419,-1.0638,-0.9566,-0.2692,0.0,0.0,0.0,0.0,0.0,0.0,0.0,0.0,0.0,0.0,0.0,0.0,0.0,0.0,0.0,0.0,0.0,0.0,0.0,0.0,0.0,0.0,0.0,0.0,0.0,0.0,0.0,0.0,0.0,0.0,0.0,0.0,0.0,0.0,0.0,0.0,0.0,0.0,0.0,0.0,0.0,0.0,0.0,0.0,0.0,0.0,0.0,0.0,0.0,0.0,0.0,0.0,0.0,0.0,0.0,0.0,0.0,0.0,0.0,0.0,0.0,0.0,0.0,0.0,0.0,0.0,0.0,0.0,0.0,0.0,0.0,0.0,0.0,0.0,0.0,0.0,0.0,0.0,0.0,0.0,0.0,0.0,0.0,0.0,0.0,0.0,0.0,0.0,0.0,0.0,0.0,0.0,0.0,0.0,0.0,0.0,0.0,0.0,0.0,0.0,0.0,0.0,0.0,0.0,0.0,0.0,0.0,-0.0471,-0.1211,-0.1237,-0.1755,-0.3171,-0.8536,-0.765,0.0,0.0,0.0,0.0,0.0,0.0,0.0,0.0,0.0,0.0,0.0,0.0,0.0,0.0,0.0,0.0,0.0,0.0,0.0,0.0,0.0,0.0,0.0,0.0,0.0,0.0,0.0,0.0,0.0,0.0,0.0,0.0,0.0,0.0,0.0,0.0,0.0,0.0,0.0,0.0,0.0,0.0,0.0,0.0,0.0,0.0,0.0,0.0,0.0,0.0,0.0,0.0,0.0,0.0,0.0,0.0,0.0,0.0,0.0,0.0,0.0,0.0,0.0,0.0,0.0,0.0,0.0,0.0,0.0,0.0,0.0,0.0,0.0,0.0,0.0,0.0,0.0,0.0,0.0,0.0,0.0,0.0,0.0,0.0,0.0,0.0,0.0,0.0,0.0,0.0,0.0,0.0,0.0,0.0,0.0,0.0,0.0,0.0,0.0,0.0,0.0,0.0,0.0,0.0,0.0,0.0,0.0,0.0,0.0,0.0,0.0,0.0,0.0,0.0,-0.4487,0.0,0.0,0.0,0.0,0.0,0.0,0.0,0.0,0.0,0.0,0.0,0.0,0.0,0.0,0.0,0.0,0.0,0.0,0.0,0.0,0.0,0.0,0.0,0.0,0.0,0.0,0.0,0.0,0.0,0.0,0.0,0.0,0.0,0.0,0.0,0.0,0.0,0.0,0.0,0.0,0.0,0.0,0.0,0.0,0.0,0.0,0.0,0.0,0.0,0.0,0.0,0.0,0.0,0.0,0.0,0.0,0.0,0.0,0.0,0.0,0.0,0.0,0.0,0.0,0.0,0.0,0.0,0.0,0.0,0.0,0.0,0.0,0.0,0.0,0.0,0.0,0.0,0.0,0.0,0.0,0.0,0.0,0.0,0.0,0.0,0.0,0.0,0.0,0.0,0.0,0.0,0.0,0.0,0.0,0.0,0.0,0.0,0.0,0.0,0.0,0.0,0.0,0.0,0.0,0.0,0.0,0.0,0.0,0.0,0.0,0.0,0.0,0.0,0.0,0.0,0.0,0.0,0.0,0.0,0.0,0.0,0.0,0.0,0.0,0.0,0.0,0.0,0.0,0.0,0.0,0.0,0.0,0.0,0.0,0.0,0.0,0.0,0.0,0.0,0.0,0.0,0.0,0.0,0.0,0.0,0.0,0.0,0.0,0.0,0.0,0.0,0.0,0.0,0.0,0.0,0.0,0.0,0.0,0.0,0.0,0.0,0.0,0.0,0.0,0.0,0.0,0.0,0.0,0.0,0.0,0.0,0.0,0.0,0.0,0.0,0.0,0.0,0.0,0.0,0.0,0.0,0.0,0.0,0.0,0.0,0.0,0.0,0.0,0.0,0.0,0.0,0.0,0.0,0.0,0.0,0.0,0.0,0.0,0.0,0.0,0.0,0.0,0.0,0.0,0.0,0.0,0.0,0.0,0.0,0.0,0.0,0.0,0.0,0.0,0.0,0.0,0.0,0.0,0.0,0.0,0.0,0.0,0.0,0.0,0.0,0.0,0.0,0.0,0.0,0.0,0.0,0.0,0.0,0.0,0.0,0.0,0.0,0.0,0.0,0.0,0.0,0.0,0.0,0.0,0.0,0.0,0.0,0.0,0.0,0.0,0.0,0.0,0.0,0.0,0.0,0.0,0.0,0.0,0.0,0.0,0.0,0.0,0.0,0.0,0.0,0.0,0.0,0.0,0.0,0.0,0.0,0.0,0.0,0.0,0.0,0.0,0.0,0.0,0.0,0.0,0.0,0.0,0.0,0.0,0.0,0.0,0.0,0.0,0.0,0.0,0.0,0.0,0.0,0.0,0.0,0.0,0.0,0.0,0.0,0.0,0.0,0.0,0.0,0.0,0.0,0.0,0.0,0.0,0.0,0.0,0.0,0.0,0.0,0.0,0.0,0.0,0.0,0.0,0.0,0.0,0.0,0.0,0.0,0.0,0.0,0.0,0.0,0.0,0.0,0.0,0.0,0.0,0.0,0.0,0.0,0.0,0.0,0.0,0.0,0.0,0.0,0.0,0.0,0.0,0.0,0.0,0.0,0.0,0.0,0.0,0.0,0.0,0.0,0.0,0.0,0.0,0.0,0.0,0.0,0.0,0.0,0.0,0.0,0.0,0.0,0.0,0.0,0.0,0.0,0.0,0.0,0.0,0.0,0.0,0.0,0.0,0.0,0.0,0.0,0.0,0.0,0.0,0.0,0.0,0.0,0.0,0.0,0.0,0.0,0.0,0.0,0.0,0.0,0.0,0.0,0.0,0.0,0.0,0.0,0.0,0.0,0.0,0.0,0.0,0.0,0.0,0.0,0.0,0.0,0.0,0.0,0.0,0.0,0.0,0.0,0.0,0.0,0.0,0.0,0.0,0.0,0.0,0.0,0.0,0.0,0.0,0.0,0.0,0.0,0.0,0.0,0.0,0.0,0.0,0.0,0.0,0.0,0.0,0.0,0.0,0.0,0.0,0.0,0.0,0.0,0.0,0.0,0.0,0.0,0.0,0.0,0.0,0.0,0.0,0.0,0.0,0.0,0.0,0.0,0.0,0.0,0.0,0.0,0.0,0.0,0.0,0.0,0.0,0.0,0.0,0.0,0.0,0.0,0.0,0.0,0.0,0.0,0.0,0.0,0.0,0.0,0.0,0.0,0.0,0.0,0.0,0.0,0.0,0.0,0.0,0.0,0.0,0.0,0.0,0.0,0.0,0.0,0.0,0.0,0.0,0.0,0.0,0.0,0.0,0.0,0.0,0.0,0.0,0.0,0.0,0.0,0.0,0.0,0.0,0.0,0.0,0.0,0.0,0.0,0.0,0.0,0.0,0.0,0.0,0.0,0.0,0.0,0.0,0.0,0.0,0.0,0.0,0.0,0.0,0.0,0.0,0.0,0.0,0.0,0.0,0.0,0.0,0.0,0.0,0.0,0.0,0.0,0.0,0.0,0.0,0.0,0.0,0.0,0.0,0.0,0.0,0.0,0.0,0.0,0.0,0.0,0.0,0.0,0.0,0.0,0.0,0.0,0.0,0.0,0.0,0.0,0.0,0.0,0.0,0.0,0.0,0.0,0.0,0.0,0.0,0.0,0.0,0.0,0.0,0.0,0.0,0.0,0.0,0.0,0.0,0.0,0.0,0.0,0.0,0.0,0.0,0.0,0.0,0.0,0.0,0.0,0.0,0.0,0.0,0.0,0.0,0.0,0.0,0.0,0.0,0.0,0.0,0.0,0.0,0.0,0.0,0.0,0.0,0.0,0.0,0.0,0.0,0.0,0.0,0.0,0.0,0.0,0.0,0.0,0.0,0.0,0.0,0.0,0.0,0.0,0.0,0.0,0.0,0.0,0.0,0.0,0.0,0.0,0.0,0.0,0.0,0.0,0.0,0.0,0.0,0.0,0.0,0.0,0.0,0.0,0.0,0.0,0.0,0.0,0.0,0.0,0.0,0.0,0.0,0.0,0.0,0.0,0.0,0.0,0.0,0.0,0.0,0.0,0.0,0.0,0.0,0.0,0.0,0.0,0.0,0.0,0.0,0.0,0.0,0.0,0.0,0.0,0.0,0.0,0.0,0.0,0.0,0.0,0.0,0.0,0.0,0.0,0.0,0.0,0.0,0.0,0.0,0.0,0.0,0.0,0.0,0.0,0.0,0.0,0.0,0.0,0.0,0.0,0.0,0.0,0.0,0.0,0.0,0.0,0.0,0.0,0.0,0.0,0.0,0.0,0.0,0.0,0.0,0.0,0.0,0.0,0.0,0.0,0.0,0.0,0.0,0.0,0.0,0.0,0.0,0.0,0.0,0.0,0.0,0.0,0.0,0.0,0.0,0.0,0.0,0.0,0.0,0.0,0.0,0.0,0.0,0.0,0.0,0.0,0.0,0.0,0.0,0.0,0.0,0.0,0.0,0.0,0.0,0.0,0.0,0.0,0.0,0.0,0.0,0.0,0.0,0.0,0.0,0.0,0.0,0.0,0.0,0.0,0.0,0.0,0.0,0.0,0.0,0.0,0.0,0.0,0.0,0.0,0.0,0.0,0.0,0.0,0.0,0.0,0.0,0.0,0.0,0.0,0.0,0.0,0.0,0.0,0.0,0.0,0.0,0.0,0.0,0.0,0.0,0.0,0.0,0.0,0.0,0.0,0.0,0.0,0.0,0.0,0.0,0.0,0.0507,0.0,0.0,0.0,0.0636,0.0,0.0,0.0,0.0,0.0,0.0,0.0,0.0,0.0,0.0,0.0,0.0,0.0,0.0,0.0,0.0,0.0,0.0,0.0,0.0,0.0,0.0,0.0,0.0,0.0,0.0,0.0,0.0,0.0,0.0,0.0,0.0,0.0,0.0,0.0,0.0,0.0,0.0,0.0,0.0,0.0,0.0,0.0,0.0,0.0,0.0,0.0,0.0,0.0,0.0,0.0,0.0,0.0,0.0,0.0,0.0,0.0,0.0,0.0,0.0,0.0,0.0,0.0,0.0,0.0,0.0,0.0,0.0,0.0,0.0,0.0,0.0,0.0,0.0,0.0,0.0,0.0,0.0,0.0,0.0,0.0,0.0,0.0,0.0,0.0,0.0,0.0,0.0,0.0,0.0,0.0,0.0,0.0,0.0,0.0,0.0,0.0,0.0,0.0,0.0,0.0,0.0,0.0,0.0,0.0,0.0,0.0,0.0,0.0,0.0,0.0,0.0,0.0,0.0,0.0,0.0,0.0,0.0,1.0895,0.0,0.0,0.0,0.0,0.0,0.0,0.0,0.0,0.0,0.0,0.0,0.0,0.0,0.0,0.0,0.0,0.0,0.0,0.0,0.0,0.0,0.0,0.0,0.0,0.0,0.0,0.0,0.0,0.0,0.0,0.0,0.0,0.0,0.0,0.0,0.0,0.0,0.0,0.0,0.0,0.0,0.0,0.0,0.0,0.0,0.0,0.0,0.0,0.0,0.0,0.0,0.0,0.0,0.0,0.0,0.0,0.0,0.0,0.0,0.0,0.0,0.0,0.0,0.0,0.0,0.0,0.0,0.0,0.0,0.0,0.0,0.0,0.0,0.0,0.0,0.0,0.0,0.0,0.0,0.0,0.0,0.0,0.0,0.0,0.0,0.0,0.0,0.0,0.0,0.0,0.0,0.0,0.0,0.0,0.0,0.0,0.0,0.0,0.0,0.0,0.0,0.0,0.0,0.0,0.0,0.1036,0.701,0.913,0.9558,0.9602,1.1646,1.3206,0.0,0.0,0.9212,0.9202,0.0,0.0,0.0,0.0,0.0,0.0,0.0,0.0,0.0,0.0,0.0,0.0,0.0,0.0,0.0,0.0,0.0,0.0,0.0,0.0,0.0,0.0,0.0,0.0,0.0,0.0,0.0,0.0,0.0,0.0,0.0,0.0,0.0,0.0,0.0,0.0,0.0,0.0,0.0,0.0,0.0,0.0,0.0,0.0,0.0,0.0,0.0,0.0,0.0,0.0,0.0,0.0,0.0,0.0,0.0,0.0,0.0,0.0,0.0,0.0,0.0,0.0,0.0,0.0,0.0,0.0,0.0,0.0,0.0,0.0,0.0,0.0,0.0,0.0,0.0,0.0,0.0,0.0,0.0,0.0,0.0,0.0,0.0,0.0,0.0,0.0,0.0,0.0,0.0,0.0,0.0,0.0,0.0,0.0,0.0,0.0,0.0,0.0,0.0,0.0,0.0,0.0,0.051,0.3713,0.4772,0.5521,0.971,1.2417,1.35,1.0381,1.1807,1.4187,1.4014,1.3953,0.0,1.0315,0.9607,0.0,0.3566,0.0,0.0,0.0,0.0,0.0,0.0,0.1142,0.0,0.0,0.0,0.0,0.0,0.0,0.0,0.0,0.0,0.0,0.0,0.0,0.0,0.0,0.0,0.0,0.0,0.0,0.0,0.0,0.0,0.0,0.0,0.0,0.0,0.0,0.0,0.0,0.0,0.0,0.0,0.0,0.0,0.0,0.0,0.0,0.0,0.0,0.0,0.0,0.0,0.0,0.0,0.0,0.0,0.0,0.0,0.0,0.0,0.0,0.0,0.0,0.0,0.0,0.0,0.0,0.0,0.0,0.0,0.0,0.0,0.0,0.0,0.0,0.0,0.0,0.0,0.0,0.0,0.0,0.0,0.0,0.0,0.0,0.0,0.0,0.0,0.0,0.0,0.0,0.0,0.0,0.0,0.0,0.0,0.0,0.0,0.0528,0.0702,0.0694,0.017,0.0337,0.2021,1.0472,1.3479,1.2715,0.8357,1.0214,1.3786,1.3941,1.3934,1.4122,1.4311,1.4201,1.4098,1.4312,1.4326,0.0,0.0,0.0,0.7503,0.0,0.0,0.0,0.0,0.0,0.048,0.0,0.0,0.0,0.0,0.0,0.0,0.0,0.0,0.0,0.0,0.0,0.0,0.0,0.0,0.0,0.0,0.0,0.0,0.0,0.0,0.0,0.0,0.0,0.0,0.0,0.0,0.0,0.0,0.0,0.0,0.0,0.0,0.0,0.0,0.0,0.0,0.0,0.0,0.0,0.0,0.0,0.0,0.0,0.0,0.0,0.0,0.0,0.0,0.0,0.0,0.0,0.0,0.0,0.0,0.0,0.0,0.0,0.0,0.0,0.0,0.0,0.0,0.0,0.0,0.0,0.0,0.0,0.0,0.0,0.0,0.0,0.0,0.0,0.0,0.0,0.0,0.0,0.0,0.0,0.0,0.0,0.0,0.0,0.0,0.0,0.0704,0.0,1.0615,0.9674,0.2577,0.424,1.0304,1.2694,1.3398,1.3224,1.1987,1.2614,1.3824,1.3892,1.3994,1.4109,1.4224,1.4224,1.4197,1.4211,1.4231,1.4062,0.0,0.0,0.0,0.0,0.0,0.0,0.0,0.0,0.0,0.1175,0.0,0.0,0.0,0.0,0.0,0.0,0.0,0.0,0.0,0.0,0.0,0.0,0.0,0.0,0.0,0.0,0.0,0.0,0.0,0.0,0.0,0.0,0.0,0.0,0.0,0.0,0.0,0.0,0.0,0.0,0.0,0.0,0.0,0.0,0.0,0.0,0.0,0.0,0.0,0.0,0.0,0.0,0.0,0.0,0.0,0.0,0.0,0.0,0.0,0.0,0.0,0.0,0.0,0.0,0.0,0.0,0.0,0.0,0.0,0.0,0.0,0.0,0.0,0.0,0.0,0.0,0.0,0.0,0.0,0.0,0.0,0.0,0.0,0.0,0.0,0.0,0.0,0.0,0.0,0.0,0.0,0.0342,0.4553,0.6204,0.0,0.9969,1.2413,1.3384,0.8225,0.8109,1.0867,1.2991,1.3648,1.3587,1.3614,1.3729,1.3865,1.3926,1.4055,1.419,1.4278,1.4299,1.4299,1.4299,1.4312,1.4326,1.4326,1.4278,1.4224,0.0,1.4095,1.4194,0.0,0.0,0.0,0.0,0.0,0.0,0.0,0.0,0.0,0.0,0.0,0.0,0.0,0.0,0.0,0.0,0.0,0.0,0.0,0.0,0.0,0.0,0.0,0.0,0.0,0.0,0.0,0.0,0.0,0.0,0.0,0.0,0.0,0.0,0.0,0.0,0.0,0.0,0.0,0.0,0.0,0.0,0.0,0.0,0.0,0.0,0.0,0.0,0.0,0.0,0.0,0.0,0.0,0.0,0.0,0.0,0.0,0.0,0.0,0.0,0.0,0.0,0.0,0.0,0.0,0.0,0.0,0.0,0.0,0.0,0.0,0.0,0.0,0.0,0.0,0.0,0.0,0.0,0.0,0.0,0.0,0.0768,0.1912,0.1831,0.1541,0.1743,1.0068,1.3781,1.3898,0.9688,1.046,1.3861,1.4503,1.1608,0.8361,1.2662,1.3858,1.3756,1.3865,1.3994,1.4102,1.4122,1.4224,1.4333,1.4353,1.436,1.436,1.436,1.436,1.436,1.436,1.436,1.4353,1.4333,1.4224,1.4163,0.0,0.0,0.0,0.0,0.0,0.0,0.0,0.0,0.0,0.0,0.0,0.0,0.0,0.0,0.0,0.0,0.0,0.0,0.0,0.0,0.0,0.0,0.0,0.0,0.0,0.0,0.0,0.0,0.0,0.0,0.0,0.0,0.0,0.0,0.0,0.0,0.0,0.0,0.0,0.0,0.0,0.0,0.0,0.0,0.0,0.0,0.0,0.0,0.0,0.0,0.0,0.0,0.0,0.0,0.0,0.0,0.0,0.0,0.0,0.0,0.0,0.0,0.0,0.0,0.0,0.0,0.0,0.0,0.0,0.0,0.0,0.0,0.0,0.0,0.0,0.0,0.0,0.0,0.0,0.0,0.0,0.4411,1.1879,1.1836,0.0,0.5972,0.764,1.0748,1.4242,1.3579,1.3694,1.4299,1.4441,1.3604,1.2696,1.3961,1.4331,1.4027,1.417,1.4238,1.4285,1.4401,1.4455,1.4502,1.4631,1.4665,1.4665,1.4665,1.4665,1.4665,1.4665,1.4665,1.4624,1.4502,1.4455,1.4407,1.4319,0.0,0.0,0.0,0.0,0.0,0.0,0.0,0.0,0.0,0.0,0.0,0.0,0.0,0.0,0.0,0.0,0.0,0.0,0.0,0.0,0.0,0.0,0.0,0.0,0.0,0.0,0.0,0.0,0.0,0.0,0.0,0.0,0.0,0.0,0.0,0.0,0.0,0.0,0.0,0.0,0.0,0.0,0.0,0.0,0.0,0.0,0.0,0.0,0.0,0.0,0.0,0.0,0.0,0.0,0.0,0.0,0.0,0.0,0.0,0.0,0.0,0.0,0.0,0.0,0.0,0.0,0.0,0.0,0.0,0.0,0.0,0.0,0.0,0.0,0.0,0.0,0.0,0.0,0.016,0.5281,0.9973,1.4316,1.4263,0.0,1.0776,1.0874,1.2223,1.4489,1.4523,1.4496,1.4462,1.4672,1.4428,1.4034,1.4434,1.4217,1.4095,1.4251,1.4353,1.4421,1.4489,1.4509,1.4529,1.4604,1.4624,1.4624,1.4624,1.4679,1.474,1.474,1.474,1.4719,1.4645,1.4631,1.4584,1.4434,1.457,0.0,0.0,0.0,0.0,0.0,0.0,0.0,0.0,0.0,0.0,0.0,0.0,0.0,0.0,0.0,0.0,0.0,0.0,0.0,0.0,0.0,0.0,0.0,0.0,0.0,0.0,0.0,0.0,0.0,0.0,0.0,0.0,0.0,0.0,0.0,0.0,0.0,0.0,0.0,0.0,0.0,0.0,0.0,0.0,0.0,0.0,0.0,0.0,0.0,0.0,0.0,0.0,0.0,0.0,0.0,0.0,0.0,0.0,0.0,0.0,0.0,0.0,0.0,0.0,0.0,0.0,0.0,0.0,0.0,0.0,0.0,0.0,0.0,0.0,0.0,0.0,0.116,0.336,1.0954,1.4372,0.0,0.0,1.4211,1.4217,1.434,1.4455,1.4557,1.4597,1.457,1.455,1.4821,1.4652,1.4299,1.4299,1.4238,1.419,1.4346,1.4468,1.4563,1.4563,1.4563,1.457,1.4597,1.4611,1.4624,1.4685,1.4767,1.4841,1.4875,1.4855,1.4828,1.4794,1.476,1.4692,1.4536,1.4733,0.0,0.0,0.0,0.0,0.0,0.0,0.0,0.0,0.0,0.0,0.0,0.0,0.0,0.0,0.0,0.0,0.0,0.0,0.0,0.0,0.0,0.0,0.0,0.0,0.0,0.0,0.0,0.0,0.0,0.0,0.0,0.0,0.0,0.0,0.0,0.0,0.0,0.0,0.0,0.0,0.0,0.0,0.0,0.0,0.0,0.0,0.0,0.0,0.0,0.0,0.0,0.0,0.0,0.0,0.0,0.0,0.0,0.0,0.0,0.0,0.0,0.0,0.0,0.0,0.0,0.0,0.0,0.0,0.0,0.0,0.0,0.0,0.0,0.0,0.0,0.0,0.4652,1.306,1.3854,0.0,0.0,1.4326,1.4319,1.4299,1.4441,1.4502,1.455,1.4821,1.4753,1.4529,1.4699,1.4563,1.4299,1.4299,1.4373,1.4496,1.4652,1.4706,1.4719,1.4719,1.4719,1.4746,1.4889,1.493,1.4991,1.5262,1.5235,1.5174,1.5316,1.5242,1.5106,1.4977,1.4835,1.4692,1.4536,1.4536,1.4638,0.0,0.0,0.0,0.0,0.0,0.0,0.0,0.0,0.0,0.0,0.0,0.0,0.0,0.0,0.0,0.0,0.0,0.0,0.0,0.0,0.0,0.0,0.0,0.0,0.0,0.0,0.0,0.0,0.0,0.0,0.0,0.0,0.0,0.0,0.0,0.0,0.0,0.0,0.0,0.0,0.0,0.0,0.0,0.0,0.0,0.0,0.0,0.0,0.0,0.0,0.4238,0.426,0.4242,0.1777,0.0,0.0,0.0,0.0,0.0,0.0,0.0,0.0,0.0,0.0,0.0,0.0,0.0,0.0,0.0,0.2812,0.0,0.0,0.0,0.8515,0.8661,0.9087,1.016,1.2978,1.4265,1.4346,1.4326,1.436,1.4434,1.4489,1.4624,1.4801,1.4923,1.4896,1.4794,1.4855,1.474,1.4563,1.4563,1.4482,1.4407,1.4557,1.4665,1.4774,1.4957,1.4943,1.493,1.5167,1.5106,1.5038,1.5337,1.5364,1.5357,1.5513,1.5499,1.5411,1.5262,1.5113,1.493,1.4692,1.4794,1.4841,1.4604,0.0,0.0,0.0,0.0,0.0,0.0,0.0,0.0,0.0,0.0,0.0,0.0,0.0,0.0,0.0,0.0,0.0,0.0,0.0,0.0,0.0,0.0,0.0,0.0,0.0,0.0,0.0,0.0,0.0,0.0,0.0,0.0,0.0,0.0,0.0,0.0,0.0,0.0,0.0,0.0,0.0,0.0,0.2423,0.0,1.2625,0.0,1.1467,0.9202,0.9202,0.9264,0.913,0.913,0.627,0.3585,0.233,0.0897,0.0,0.0,0.0,0.0,0.0,0.0,0.0,0.0,0.0,0.0,0.0,0.2851,0.7492,1.4276,0.7542,0.0,1.2154,1.3604,1.2526,0.9299,1.2722,1.4346,1.434,1.4353,1.4421,1.4516,1.4611,1.4774,1.4977,1.5018,1.4977,1.4909,1.4957,1.4841,1.4679,1.4726,1.4597,1.4448,1.455,1.4652,1.478,1.4991,1.4984,1.4957,1.5215,1.5126,1.5038,1.5337,1.5377,1.5398,1.5594,1.5567,1.5459,1.5309,1.5228,1.5092,1.4794,1.495,1.4997,1.4624,0.0,0.0,0.0,0.0,0.0,0.0,0.0,0.0,0.0,0.0,0.0,0.0,0.0,0.0,0.0,0.0,0.0,0.0,0.0,0.0,0.0,0.0,0.0,0.0,0.0,0.0,0.0,0.0,0.0,0.0,0.0,0.0,0.0,0.0,0.0,0.0,0.0,0.0,0.0,0.0,0.0,0.0,0.7964,0.7157,0.8628,1.3455,1.4299,1.4216,1.4216,1.4222,1.4222,1.4222,1.4222,1.239,0.751,0.2859,0.0,0.0,0.0,0.0,0.0,0.0,0.0,0.0,0.0,0.0,0.0,0.9353,1.409,1.4276,0.0,0.0,0.7372,1.213,1.4337,1.4169,1.4353,1.4333,1.4312,1.4448,1.4509,1.4536,1.4841,1.497,1.4984,1.5126,1.4997,1.476,1.4916,1.4774,1.4536,1.4692,1.474,1.4733,1.4733,1.474,1.474,1.474,1.474,1.478,1.4936,1.4977,1.5038,1.5337,1.5296,1.5262,1.5567,1.5404,1.5147,1.5004,1.5086,1.5092,1.4794,1.4869,1.5018,1.5153,0.0,0.0,0.0,0.0,0.0,0.0,0.0,0.0,0.0,0.0,0.0,0.0,0.0,0.0,0.0,0.0,0.0,0.0,0.0,0.0,0.0,0.0,0.0,0.0,0.0,0.0,0.0,0.0,0.0,0.0,0.0,0.0,0.0,0.0,0.0,0.0,0.0,0.0,0.0,0.0,0.0,0.0,1.2237,1.2085,1.2479,1.4108,1.4319,1.4333,1.4333,1.4333,1.4333,1.4333,1.4333,1.3781,1.2148,1.058,0.718,0.0,0.0,0.0,0.0,0.0,0.0,0.0,0.0,0.3052,0.9536,1.2806,1.4256,1.4387,0.0,0.0,0.0,1.3513,1.4265,1.4319,1.4421,1.4455,1.4455,1.4604,1.4726,1.4821,1.4814,1.4936,1.512,1.5167,1.5065,1.4916,1.5065,1.4991,1.4835,1.4882,1.4964,1.5038,1.5038,1.4977,1.4936,1.514,1.5126,1.5099,1.5357,1.5276,1.5187,1.5493,1.5452,1.5391,1.5594,1.5486,1.5323,1.5282,1.5221,1.5126,1.4936,1.4936,1.495,1.4889,1.476,0.0,1.4746,0.0,0.0,0.0,0.0,0.0,0.0,0.0,0.0,0.0,0.0,0.0,0.0,0.0,0.0,0.0,0.0,0.0,0.0,0.0,0.0,0.0,0.0,0.0,0.0,0.0,0.0,0.0,0.0,0.0,0.0,0.0,0.0,0.0,0.0,0.0,0.0,0.0,0.0,0.0,1.4333,1.4333,1.4333,1.4333,1.4312,1.4299,1.4299,1.4299,1.4319,1.4373,1.438,1.4407,1.4475,1.4363,0.0,0.3425,0.4527,0.5633,0.5633,0.399,0.1994,0.0,0.0,0.4322,1.3726,1.4263,0.0,1.4001,1.4102,1.4202,1.4289,1.4236,1.4202,1.438,1.4475,1.4543,1.4611,1.476,1.4882,1.497,1.4923,1.5052,1.5262,1.5201,1.5126,1.5065,1.5153,1.5092,1.4977,1.5031,1.5106,1.5181,1.5181,1.512,1.5086,1.5269,1.5255,1.5221,1.5418,1.533,1.5228,1.5418,1.5398,1.535,1.5445,1.5486,1.5466,1.535,1.5296,1.5221,1.5079,1.5052,1.5018,1.4923,1.4862,1.4828,1.4828,0.0,0.0,0.0,0.0,0.0,0.0,0.2272,0.0,0.0,0.0,0.0,0.0,0.0,0.0,0.0,0.0,0.0,0.0,0.0,0.0,0.0,0.0,0.0,0.0,0.0,0.0,0.0,0.0,0.0,0.0,0.0,0.0,0.0,0.0,0.0,0.0,0.0,0.0,0.0,1.4299,1.4299,1.4299,1.4299,1.4306,1.4312,1.4312,1.4326,1.438,1.4509,1.4529,1.459,1.4584,1.4611,1.2706,0.8012,0.0,0.0,1.5107,1.0732,0.6081,0.1291,0.0731,0.4529,1.3362,1.4077,1.4088,1.376,1.3892,1.4021,1.4299,1.4156,1.4231,1.4496,1.4509,1.4597,1.4746,1.4896,1.497,1.4997,1.5106,1.5255,1.5391,1.5242,1.5187,1.5201,1.5201,1.5106,1.5004,1.514,1.5181,1.5181,1.5181,1.5181,1.5181,1.5181,1.5181,1.5181,1.5181,1.5187,1.5201,1.5201,1.5208,1.5215,1.5215,1.5438,1.556,1.5269,1.533,1.5384,1.5242,1.5215,1.5215,1.5215,1.5106,1.5011,1.5004,1.4875,1.4765,0.0,0.0,0.0,0.0,0.6331,0.0758,0.0,0.0,0.0,0.0,0.0,0.0,0.0,0.0,0.0,0.0,0.0,0.0,0.0,0.0,0.0,0.0,0.0,0.0,0.0,0.0,0.0,0.0,0.0,0.0,0.0,0.0,0.0,0.0,0.0,0.0,0.0,1.4299,1.4299,1.4299,1.4299,1.4387,1.4462,1.4462,1.4563,1.4652,1.4679,1.4685,1.4706,1.4746,1.4691,1.4388,1.3222,1.0742,1.1095,1.4869,1.4093,1.2776,1.1657,0.7911,0.841,1.4176,1.4645,1.459,1.4367,1.4251,1.4231,1.4299,1.4265,1.4285,1.4353,1.4462,1.4597,1.474,1.478,1.4923,1.5113,1.4923,1.5072,1.5391,1.5242,1.5255,1.5357,1.5357,1.5262,1.514,1.5174,1.5181,1.5181,1.5181,1.5181,1.5181,1.5181,1.5181,1.5181,1.5181,1.5269,1.5357,1.5357,1.5445,1.5533,1.5533,1.5588,1.5615,1.5547,1.556,1.5574,1.554,1.5533,1.5533,1.5533,1.5499,1.5438,1.5323,1.5276,1.5248,0.0,1.5066,1.3542,0.9737,1.0706,0.8465,0.0,0.0,0.0,0.0,0.0,0.0,0.0,0.0,0.0,0.0,0.0,0.0,0.0,0.0,0.0,0.0,0.0,0.0,0.0,0.0,0.0,0.0,0.0,0.0,0.0,0.0,0.0,0.0,0.0,0.0,0.0,1.4394,1.4455,1.4502,1.4502,1.4563,1.4618,1.4618,1.4685,1.4767,1.4835,1.4841,1.4869,1.4936,1.5031,1.5092,1.5092,1.2574,1.2173,1.5031,1.5204,1.5169,1.5121,1.2409,1.1914,1.4289,1.455,1.4536,1.4414,1.4197,1.4163,1.4299,1.4231,1.4265,1.4401,1.4475,1.4638,1.4848,1.4916,1.5038,1.5174,1.5086,1.5194,1.5391,1.5242,1.5276,1.5404,1.533,1.5255,1.5181,1.5181,1.5181,1.5181,1.5181,1.5228,1.5289,1.5289,1.5289,1.5289,1.5289,1.5398,1.5513,1.5513,1.5581,1.5642,1.5642,1.5689,1.5716,1.5655,1.5689,1.5716,1.5649,1.5642,1.5642,1.5642,1.5642,1.5608,1.5527,1.5513,1.5486,1.5398,1.5425,1.3304,0.8078,0.7907,0.6024,0.0395,0.0,0.0,0.0,0.0,0.0,0.0,0.0,0.0,0.0,0.0,0.0,0.0,0.0,0.0,0.0,0.0,0.0,0.0,0.0,0.0,0.0,0.0,0.0,0.0,0.0,0.0,0.0,0.0,0.0,0.0,1.455,1.4652,1.474,1.474,1.476,1.4774,1.4774,1.4794,1.4855,1.4984,1.5004,1.5052,1.5167,1.5181,1.5181,1.5181,1.5221,1.5242,1.5242,1.5208,1.514,1.4859,1.4903,1.4692,1.4051,1.4182,1.434,1.4333,1.4048,1.4041,1.4299,1.419,1.4272,1.4516,1.4536,1.4706,1.4977,1.5072,1.514,1.5194,1.5303,1.5371,1.5391,1.5242,1.5276,1.5391,1.5235,1.5181,1.5181,1.5181,1.5201,1.5215,1.5215,1.5323,1.5445,1.5445,1.5459,1.5472,1.5452,1.5554,1.5676,1.5696,1.571,1.571,1.571,1.5798,1.5852,1.573,1.5805,1.5852,1.573,1.571,1.5723,1.5764,1.5737,1.5716,1.5737,1.5703,1.5662,1.5642,1.5475,1.3715,0.9188,0.3518,0.0,0.0,0.0,0.0,0.0,0.0,0.0,0.0,0.0,0.0,0.0,0.0,0.0,0.0,0.0,0.0,0.0,0.0,0.0,0.0,0.0,0.0,0.0,0.0,0.0,0.0,0.0,0.0,0.0,0.0,0.0,0.0,1.4706,1.4726,1.474,1.474,1.4848,1.4936,1.4936,1.5038,1.512,1.5147,1.5147,1.516,1.5181,1.5181,1.5181,1.5181,1.5187,1.5194,1.5194,1.5187,1.5174,1.5153,1.5018,1.4862,1.4679,1.4434,1.4367,1.4475,1.4312,1.4251,1.4299,1.4401,1.4468,1.4516,1.4645,1.4801,1.4964,1.4855,1.4957,1.5174,1.5079,1.5187,1.5391,1.5242,1.5276,1.5391,1.5235,1.5181,1.5181,1.5181,1.5269,1.5377,1.5377,1.5479,1.5601,1.5601,1.5689,1.5757,1.5635,1.571,1.5852,1.5981,1.6015,1.6015,1.6015,1.6029,1.6042,1.6015,1.6029,1.6042,1.6015,1.6015,1.6096,1.6341,1.6178,1.6056,1.6191,1.5981,1.5778,1.5655,1.5676,1.5308,1.4536,0.5673,0.0,0.0,0.0,0.0,0.0,0.0,0.0,0.0,0.0,0.0,0.0,0.0,0.0,0.0,0.0,0.0,0.0,0.0,0.0,0.0,0.0,0.0,0.0,0.0,0.0,0.0,0.0,0.0,0.0,0.0,0.0,0.0,1.4862,1.4923,1.4977,1.4977,1.5038,1.5086,1.5086,1.514,1.5181,1.5181,1.5181,1.5181,1.5181,1.5181,1.5181,1.5181,1.5181,1.5181,1.5181,1.5181,1.5113,1.495,1.4882,1.474,1.4509,1.4441,1.4448,1.4509,1.4529,1.4536,1.4536,1.4604,1.4631,1.4638,1.4706,1.4828,1.497,1.4977,1.5059,1.5181,1.5201,1.5242,1.5282,1.5208,1.5228,1.5276,1.5208,1.5181,1.5194,1.5276,1.535,1.5425,1.5506,1.5635,1.5757,1.5757,1.5805,1.5859,1.5872,1.5927,1.5995,1.6062,1.6083,1.6083,1.6083,1.6083,1.6083,1.6083,1.6083,1.6083,1.6083,1.6083,1.6123,1.6259,1.6171,1.6103,1.6178,1.6069,1.5954,1.5886,1.5893,1.5927,1.5783,0.8944,0.3185,0.0201,0.0,0.0,0.0,0.0,0.0,0.0,0.0,0.0,0.0,0.0,0.0,0.0,0.0,0.0,0.0,0.0,0.0,0.0,0.0,0.0,0.0,0.0,0.0,0.0,0.0,0.0,0.0,0.0,0.0,0.0,1.5018,1.5106,1.5181,1.5181,1.5181,1.5181,1.5181,1.5181,1.5181,1.5181,1.5181,1.5181,1.5181,1.5181,1.5181,1.5181,1.5215,1.5235,1.5235,1.5235,1.5099,1.4808,1.476,1.4631,1.4407,1.4509,1.4563,1.4563,1.4679,1.474,1.474,1.478,1.4794,1.4794,1.4828,1.4909,1.5025,1.514,1.5181,1.5194,1.5309,1.5289,1.5181,1.5181,1.5181,1.5187,1.5221,1.5235,1.5262,1.5411,1.5486,1.5533,1.5655,1.5791,1.5906,1.5906,1.5906,1.5934,1.6049,1.6083,1.6083,1.6083,1.6083,1.6083,1.6083,1.6083,1.6083,1.6083,1.6083,1.6083,1.6083,1.6083,1.6103,1.6171,1.6123,1.6103,1.6178,1.6123,1.6083,1.6083,1.6083,1.611,1.6178,1.1278,0.5839,0.0405,0.0,0.0,0.0,0.0,0.0,0.0,0.0,0.0,0.0,0.0,0.0,0.0,0.0,0.0,0.0,0.0,0.0,0.0,0.0,0.0,0.0,0.0,0.0,0.0,0.0,0.0,0.0,0.0,0.0,0.0,1.5167,1.5174,1.5181,1.5181,1.5181,1.5181,1.5181,1.5181,1.5181,1.5181,1.5181,1.5181,1.5181,1.5181,1.5181,1.5181,1.5309,1.5391,1.5391,1.5391,1.5262,1.497,1.4814,1.4726,1.4706,1.4719,1.4719,1.4719,1.4733,1.474,1.474,1.4889,1.495,1.4964,1.5092,1.5153,1.5167,1.5174,1.5181,1.5181,1.5194,1.5194,1.5181,1.5181,1.5181,1.5201,1.5343,1.5391,1.5418,1.5567,1.571,1.5825,1.5832,1.594,1.6062,1.6062,1.6062,1.6069,1.6076,1.6083,1.6083,1.6083,1.6083,1.6083,1.6083,1.6083,1.6083,1.6083,1.6083,1.6083,1.6083,1.6083,1.6171,1.6442,1.6259,1.6178,1.6449,1.6252,1.6083,1.6083,1.6083,1.6096,1.6137,1.1263,0.5848,0.0407,0.0,0.0,0.0,0.0,0.0,0.0,0.0,0.0,0.0,0.0,0.0,0.0,0.0,0.0,0.0,0.0,0.0,0.0,0.0,0.0,0.0,0.0,0.0,0.0,0.0,0.0,0.0,0.0,0.0,0.0,1.5181,1.5181,1.5181,1.5181,1.5181,1.5181,1.5181,1.5181,1.5215,1.5309,1.5323,1.5357,1.5452,1.5466,1.5466,1.5466,1.552,1.5513,1.5418,1.5323,1.5181,1.4977,1.4821,1.474,1.474,1.4835,1.4882,1.4882,1.497,1.5011,1.5018,1.5072,1.5099,1.5106,1.516,1.5181,1.5181,1.5181,1.5181,1.5181,1.5181,1.5181,1.5194,1.5289,1.5323,1.5343,1.5499,1.5554,1.5574,1.5723,1.5811,1.5866,1.5967,1.6035,1.6083,1.6083,1.6083,1.6083,1.6083,1.6083,1.6083,1.6083,1.6083,1.6083,1.6083,1.6083,1.6083,1.6083,1.6083,1.6083,1.6083,1.6083,1.6117,1.6232,1.6157,1.6123,1.6232,1.6151,1.6083,1.6083,1.6164,1.6246,1.6105,1.4327,0.944,0.0618,0.0,0.0,0.0,0.0,0.0,0.0,0.0,0.0,0.0,0.0,0.0,0.0,0.0,0.0,0.0,0.0,0.0,0.0,0.0,0.0,0.0,0.0,0.0,0.0,0.0,0.0,0.0,0.0,0.0,0.0,1.5181,1.5181,1.5201,1.5248,1.5255,1.5269,1.5316,1.5323,1.5364,1.5466,1.5486,1.552,1.5628,1.5642,1.5642,1.5642,1.5642,1.5594,1.5493,1.5337,1.5167,1.4977,1.4869,1.4835,1.4875,1.4984,1.5038,1.5038,1.5133,1.5181,1.5181,1.5181,1.5181,1.5181,1.5181,1.5181,1.5181,1.5181,1.5208,1.5255,1.5255,1.5282,1.5337,1.5445,1.5486,1.5499,1.5655,1.571,1.573,1.5872,1.5927,1.594,1.6049,1.6083,1.6083,1.6083,1.6083,1.6083,1.6083,1.6083,1.6083,1.6083,1.6083,1.6083,1.6083,1.6083,1.6083,1.6083,1.6083,1.6083,1.6083,1.6083,1.6083,1.6083,1.6123,1.6151,1.6151,1.6191,1.6218,1.6218,1.6313,1.6381,1.6199,1.4656,1.1194,0.5397,0.1874,0.0,0.0,0.0,0.0,0.0,0.0,0.0,0.0,0.0,0.0,0.0,0.0,0.0,0.0,0.0,0.0,0.0,0.0,0.0,0.0,0.0,0.0,0.0,0.0,0.0,0.0,0.0,0.0,0.0,1.5187,1.5187,1.5235,1.5384,1.5411,1.5466,1.5615,1.5642,1.5642,1.5642,1.5642,1.5642,1.5642,1.5642,1.5642,1.5642,1.5642,1.5642,1.5635,1.5493,1.5276,1.4984,1.497,1.5038,1.5181,1.5181,1.5181,1.5181,1.5181,1.5181,1.5181,1.5181,1.5181,1.5181,1.5181,1.5181,1.5181,1.5181,1.5269,1.5411,1.5411,1.5506,1.5642,1.5642,1.5642,1.5655,1.5805,1.5852,1.5879,1.6029,1.6083,1.6083,1.6083,1.6083,1.6083,1.6083,1.6083,1.6083,1.6083,1.6083,1.6083,1.6083,1.6083,1.6083,1.6083,1.6083,1.6083,1.6083,1.6083,1.6083,1.6083,1.6083,1.6083,1.6083,1.6212,1.6313,1.6313,1.6435,1.6524,1.6524,1.6524,1.6483,1.6381,1.1306,1.0145,1.5647,0.6073,0.0,0.0,0.0,0.0,0.0,0.0,0.0,0.0,0.0,0.0,0.0,0.0,0.0,0.0,0.0,0.0,0.0,0.0,0.0,0.0,0.0,0.0,0.0,0.0,0.0,0.0,0.0,0.0,0.0,1.5479,1.5499,1.552,1.556,1.5567,1.5588,1.5635,1.5642,1.5676,1.5778,1.5791,1.5832,1.594,1.5947,1.5906,1.5798,1.5791,1.5703,1.5493,1.5337,1.5208,1.512,1.512,1.514,1.5181,1.5181,1.5181,1.5181,1.5181,1.5181,1.5181,1.5181,1.5181,1.5181,1.5181,1.5242,1.5343,1.5343,1.5432,1.5567,1.5567,1.5601,1.5649,1.575,1.5791,1.5811,1.5961,1.6015,1.6022,1.6069,1.6083,1.6083,1.6083,1.6083,1.6083,1.6083,1.6083,1.6083,1.6083,1.6083,1.6083,1.6083,1.6083,1.6083,1.6083,1.6083,1.611,1.6218,1.6239,1.6273,1.6374,1.6388,1.6388,1.6388,1.6429,1.6456,1.6456,1.6497,1.6524,1.6524,1.6524,1.6571,1.6493,1.147,0.7324,0.507,0.1907,0.0,0.0,0.0,0.0,0.0,0.0,0.0,0.0,0.0,0.0,0.0,0.0,0.0,0.0,0.0,0.0,0.0,0.0,0.0,0.0,0.0,0.0,0.0,0.0,0.0,0.0,0.0,0.0,0.0,1.5622,1.5642,1.5655,1.5716,1.5723,1.5744,1.5805,1.5811,1.5845,1.5934,1.594,1.5981,1.6069,1.6083,1.6022,1.5866,1.5744,1.5574,1.5337,1.5235,1.5181,1.5181,1.5181,1.5181,1.5181,1.5181,1.5181,1.5181,1.5181,1.5181,1.5181,1.5181,1.5215,1.5269,1.5269,1.5357,1.5499,1.5499,1.5588,1.5723,1.5723,1.5757,1.5825,1.5913,1.594,1.5954,1.6049,1.6083,1.6083,1.6083,1.6083,1.6083,1.6083,1.6083,1.6083,1.6083,1.6083,1.6083,1.6083,1.6123,1.6171,1.6171,1.6171,1.6171,1.6171,1.6218,1.6279,1.6374,1.6395,1.6422,1.6503,1.6524,1.6524,1.6524,1.6571,1.6612,1.6612,1.6612,1.6612,1.6612,1.6625,1.6653,1.6487,1.3625,0.8629,0.0636,0.0,0.0,0.0,0.0,0.0,0.0,0.0,0.0,0.0,0.0,0.0,0.0,0.0,0.0,0.0,0.0,0.0,0.0,0.0,0.0,0.0,0.0,0.0,0.0,0.0,0.0,0.0,0.0,0.0,0.0,1.5676,1.5676,1.5716,1.5852,1.5872,1.592,1.6062,1.6083,1.6083,1.6083,1.6083,1.6083,1.6083,1.6069,1.6001,1.5845,1.556,1.533,1.5194,1.5181,1.5181,1.5181,1.5181,1.5181,1.5181,1.5181,1.5181,1.5181,1.5194,1.5201,1.5201,1.5215,1.5296,1.5432,1.5432,1.5513,1.5655,1.5655,1.5744,1.5872,1.5872,1.5954,1.6083,1.6083,1.6083,1.6083,1.6083,1.6083,1.6083,1.6083,1.6083,1.6083,1.6083,1.6083,1.6083,1.6083,1.609,1.6103,1.6103,1.6212,1.6327,1.6327,1.6341,1.6347,1.6334,1.6429,1.6524,1.6537,1.6544,1.6544,1.6558,1.6564,1.6564,1.6564,1.668,1.6768,1.6768,1.6761,1.6754,1.6754,1.6775,1.67,1.6483,1.5905,1.1176,0.0842,0.0,0.0,0.0,0.0,0.0,0.0,0.0,0.0,0.0,0.0,0.0,0.0,0.0,0.0,0.0,0.0,0.0,0.0,0.0,0.0,0.0,0.0,0.0,0.0,0.0,0.0,0.0,0.0,0.0,0.0,1.5961,1.5988,1.5995,1.6029,1.6035,1.6042,1.6076,1.6083,1.6083,1.6083,1.6083,1.6083,1.6083,1.5974,1.5845,1.5696,1.5404,1.5215,1.5181,1.5181,1.5181,1.5181,1.5181,1.5181,1.5181,1.5181,1.5181,1.5181,1.5303,1.5364,1.5364,1.5486,1.556,1.5588,1.5588,1.5669,1.5805,1.5805,1.5893,1.6035,1.6035,1.6049,1.6083,1.6083,1.6083,1.6083,1.6083,1.6083,1.6083,1.6083,1.6083,1.6083,1.6083,1.6083,1.6083,1.6083,1.6164,1.6259,1.6259,1.6368,1.6476,1.6476,1.6564,1.6625,1.6503,1.6497,1.6558,1.6673,1.67,1.6741,1.6856,1.6883,1.6883,1.6883,1.691,1.6931,1.6931,1.6856,1.7003,1.7003,1.6632,1.6558,1.6859,0.8789,0.2736,0.021,0.0,0.0,0.0,0.0,0.0,0.0,0.0,0.0,0.0,0.0,0.0,0.0,0.0,0.0,0.0,0.0,0.0,0.0,0.0,0.0,0.0,0.0,0.0,0.0,0.0,0.0,0.0,0.0,0.0,0.0,1.6069,1.6083,1.6083,1.6083,1.6083,1.6083,1.6083,1.6083,1.6083,1.6083,1.6083,1.6056,1.5981,1.59,1.5764,1.5547,1.5316,1.5181,1.5181,1.5181,1.5215,1.5289,1.5289,1.5323,1.5398,1.5398,1.5364,1.5289,1.5445,1.552,1.552,1.5601,1.5676,1.5744,1.5744,1.5825,1.5961,1.5961,1.6008,1.6083,1.6083,1.6083,1.6083,1.6083,1.6083,1.6083,1.6083,1.6083,1.6083,1.6083,1.6083,1.6083,1.6083,1.613,1.6191,1.6191,1.6293,1.6408,1.6408,1.6517,1.6632,1.6632,1.6748,1.6822,1.6666,1.6686,1.6761,1.6842,1.6863,1.6883,1.6965,1.6978,1.6985,1.7005,1.6944,1.691,1.6931,1.6968,1.5995,1.3254,1.4849,1.4404,0.9289,0.3508,0.0,0.0,0.0,0.0,0.0,0.0,0.0,0.0,0.0,0.0,0.0,0.0,0.0,0.0,0.0,0.0,0.0,0.0,0.0,0.0,0.0,0.0,0.0,0.0,0.0,0.0,0.0,0.0,0.0,0.0,0.0,0.0,1.6083,1.6083,1.6083,1.6083,1.6083,1.6083,1.6083,1.6083,1.6083,1.6083,1.6056,1.5995,1.5866,1.5805,1.5669,1.5398,1.5282,1.5221,1.5221,1.5248,1.5316,1.5445,1.5452,1.5506,1.5635,1.5662,1.5601,1.5452,1.5601,1.5676,1.5676,1.5703,1.5778,1.5893,1.5893,1.5961,1.6083,1.6083,1.6083,1.6083,1.6083,1.6083,1.6083,1.6083,1.6083,1.6083,1.6083,1.6083,1.6083,1.6083,1.6096,1.6123,1.6123,1.6225,1.6347,1.6347,1.6449,1.6558,1.6558,1.6673,1.6788,1.6788,1.689,1.6944,1.6822,1.689,1.6978,1.6978,1.6978,1.6978,1.6978,1.6978,1.6985,1.6992,1.7099,1.6601,1.5761,1.6393,1.5189,1.0418,1.1871,0.982,0.0817,0.0,0.0,0.0,0.0,0.0,0.0,0.0,0.0,0.0,0.0,0.0,0.0,0.0,0.0,0.0,0.0,0.0,0.0,0.0,0.0,0.0,0.0,0.0,0.0,0.0,0.0,0.0,0.0,0.0,0.0,0.0,0.0,0.0,1.6083,1.6083,1.6083,1.6083,1.6083,1.6083,1.6083,1.6083,1.6083,1.6083,1.5967,1.5879,1.5852,1.5622,1.5398,1.5228,1.5316,1.5377,1.5377,1.5506,1.5588,1.5608,1.5608,1.5615,1.5642,1.5757,1.575,1.5608,1.575,1.5825,1.5825,1.5961,1.6035,1.6049,1.6049,1.6062,1.6083,1.6083,1.6083,1.6083,1.6083,1.6083,1.6083,1.6083,1.6083,1.6083,1.6083,1.6083,1.6083,1.6083,1.6171,1.6279,1.6279,1.6374,1.649,1.649,1.6598,1.672,1.672,1.6829,1.6951,1.6951,1.6965,1.6978,1.6951,1.6965,1.6978,1.6978,1.6978,1.6978,1.6978,1.6978,1.6951,1.7065,1.703,1.5283,1.0364,1.3831,1.6694,1.5851,0.7731,0.1618,0.0202,0.0,0.0,0.0,0.0,0.0,0.0,0.0,0.0,0.0,0.0,0.0,0.0,0.0,0.0,0.0,0.0,0.0,0.0,0.0,0.0,0.0,0.0,0.0,0.0,0.0,0.0,0.0,0.0,0.0,0.0,0.0,0.0,0.0,1.6083,1.6083,1.6083,1.6083,1.6083,1.6083,1.6083,1.6083,1.6083,1.6083,1.6022,1.5947,1.5859,1.5662,1.5513,1.5445,1.5499,1.554,1.554,1.5601,1.5676,1.5757,1.5757,1.5798,1.5886,1.5947,1.5947,1.5886,1.5947,1.5981,1.5981,1.6049,1.6083,1.6083,1.6083,1.6083,1.6083,1.6083,1.6083,1.6083,1.6083,1.6083,1.6083,1.6083,1.6083,1.6083,1.6083,1.6137,1.6212,1.6212,1.6307,1.6429,1.6429,1.653,1.6653,1.6653,1.6754,1.6876,1.6876,1.6931,1.6978,1.6978,1.6978,1.6978,1.6978,1.6978,1.6978,1.6978,1.6978,1.6978,1.6978,1.6978,1.6951,1.7071,1.4423,1.0157,0.4524,0.5922,0.7525,0.7525,0.3037,0.0,0.0,0.0,0.0,0.0,0.0,0.0,0.0,0.0,0.0,0.0,0.0,0.0,0.0,0.0,0.0,0.0,0.0,0.0,0.0,0.0,0.0,0.0,0.0,0.0,0.0,0.0,0.0,0.0,0.0,0.0,0.0,0.0,0.0,0.0]}]]